Wetterdaten: Sonntag, 05.02.2017
Datum Zeit Temp. A. Feuchte A. Luftdruck Regen Wind Richtung Richtung Sonnenschein ET UV Solar Taupunkt Windchill Windben Empfang
05.02.2017 00:00 2,8 C 96 % 1006,5 hPa 0,0 l/m 9,5 km/h (2 Bft) SW 223 0 min 0,000 mm 0,0 UV-I 0 W/m 2,2 C 0,0 C 12,9 km/h (3 Bft) 100,00 %
05.02.2017 00:02 2,9 C 95 % 1006,4 hPa 0,0 l/m 10,2 km/h (2 Bft) SW 235 0 min 0,000 mm 0,0 UV-I 0 W/m 2,2 C -0,4 C 16,1 km/h (3 Bft) 100,00 %
05.02.2017 00:04 3,0 C 95 % 1006,4 hPa 0,0 l/m 8,9 km/h (2 Bft) W-SW 240 0 min 0,000 mm 0,0 UV-I 0 W/m 2,3 C 0,7 C 19,3 km/h (3 Bft) 97,56 %
05.02.2017 00:06 3,1 C 95 % 1006,4 hPa 0,0 l/m 10,4 km/h (2 Bft) W-SW 242 0 min 0,000 mm 0,0 UV-I 0 W/m 2,4 C -0,3 C 16,1 km/h (3 Bft) 97,73 %
05.02.2017 00:08 3,2 C 95 % 1006,4 hPa 0,0 l/m 12,0 km/h (2 Bft) SW 231 0 min 0,000 mm 0,0 UV-I 0 W/m 2,5 C -1,3 C 19,3 km/h (3 Bft) 98,04 %
05.02.2017 00:10 3,2 C 95 % 1006,4 hPa 0,0 l/m 11,4 km/h (2 Bft) S-SW 212 0 min 0,000 mm 0,0 UV-I 0 W/m 2,5 C -0,9 C 17,7 km/h (3 Bft) 100,00 %
05.02.2017 00:12 3,4 C 95 % 1006,4 hPa 0,0 l/m 13,2 km/h (3 Bft) SW 230 0 min 0,000 mm 0,0 UV-I 0 W/m 2,7 C -1,8 C 19,3 km/h (3 Bft) 97,73 %
05.02.2017 00:14 3,6 C 95 % 1006,4 hPa 0,0 l/m 12,4 km/h (3 Bft) S-SW 208 0 min 0,000 mm 0,0 UV-I 0 W/m 2,9 C -1,1 C 17,7 km/h (3 Bft) 96,00 %
05.02.2017 00:16 3,7 C 94 % 1006,4 hPa 0,0 l/m 12,6 km/h (3 Bft) SW 214 0 min 0,000 mm 0,0 UV-I 0 W/m 2,8 C -1,1 C 20,9 km/h (4 Bft) 97,56 %
05.02.2017 00:18 3,9 C 93 % 1006,3 hPa 0,0 l/m 12,2 km/h (2 Bft) SW 232 0 min 0,000 mm 0,0 UV-I 0 W/m 2,9 C -0,6 C 19,3 km/h (3 Bft) 98,31 %
05.02.2017 00:20 4,1 C 93 % 1006,4 hPa 0,0 l/m 11,4 km/h (2 Bft) SW 223 0 min 0,000 mm 0,0 UV-I 0 W/m 3,1 C 0,1 C 16,1 km/h (3 Bft) 97,73 %
05.02.2017 00:22 4,2 C 92 % 1006,4 hPa 0,0 l/m 13,4 km/h (3 Bft) S 169 0 min 0,000 mm 0,0 UV-I 0 W/m 3,0 C -1,0 C 20,9 km/h (4 Bft) 98,00 %
05.02.2017 00:24 4,3 C 91 % 1006,4 hPa 0,0 l/m 11,8 km/h (2 Bft) SW 230 0 min 0,000 mm 0,0 UV-I 0 W/m 3,0 C 0,1 C 17,7 km/h (3 Bft) 94,44 %
05.02.2017 00:26 4,3 C 91 % 1006,4 hPa 0,0 l/m 9,9 km/h (2 Bft) S-SW 213 0 min 0,000 mm 0,0 UV-I 0 W/m 3,0 C 1,4 C 14,5 km/h (3 Bft) 100,00 %
05.02.2017 00:28 4,4 C 90 % 1006,3 hPa 0,0 l/m 12,1 km/h (2 Bft) W-SW 237 0 min 0,000 mm 0,0 UV-I 0 W/m 2,9 C 0,0 C 19,3 km/h (3 Bft) 98,00 %
05.02.2017 00:30 4,4 C 90 % 1006,4 hPa 0,0 l/m 10,0 km/h (2 Bft) S-SW 194 0 min 0,000 mm 0,0 UV-I 0 W/m 2,9 C 1,4 C 16,1 km/h (3 Bft) 97,56 %
05.02.2017 00:32 4,6 C 90 % 1006,4 hPa 0,0 l/m 11,2 km/h (2 Bft) SW 221 0 min 0,000 mm 0,0 UV-I 0 W/m 3,1 C 0,8 C 17,7 km/h (3 Bft) 100,00 %
05.02.2017 00:34 4,6 C 89 % 1006,4 hPa 0,0 l/m 13,3 km/h (3 Bft) SW 217 0 min 0,000 mm 0,0 UV-I 0 W/m 2,9 C -0,5 C 19,3 km/h (3 Bft) 95,12 %
05.02.2017 00:37 4,7 C 88 % 1006,3 hPa 0,0 l/m 13,2 km/h (3 Bft) SW 220 0 min 0,000 mm 0,0 UV-I 0 W/m 2,9 C -0,3 C 19,3 km/h (3 Bft) 98,63 %
05.02.2017 00:38 4,7 C 88 % 1006,3 hPa 0,0 l/m 12,3 km/h (3 Bft) S-SW 213 0 min 0,000 mm 0,0 UV-I 0 W/m 2,9 C 0,2 C 16,1 km/h (3 Bft) 100,00 %
05.02.2017 00:40 4,7 C 88 % 1006,2 hPa 0,0 l/m 11,2 km/h (2 Bft) SW 222 0 min 0,000 mm 0,0 UV-I 0 W/m 2,9 C 0,9 C 17,7 km/h (3 Bft) 100,00 %
05.02.2017 00:42 4,7 C 87 % 1006,3 hPa 0,0 l/m 13,8 km/h (3 Bft) S-SW 208 0 min 0,000 mm 0,0 UV-I 0 W/m 2,7 C -0,6 C 20,9 km/h (4 Bft) 95,74 %
05.02.2017 00:44 4,8 C 86 % 1006,2 hPa 0,0 l/m 24,7 km/h (4 Bft) W-SW 241 0 min 0,000 mm 0,0 UV-I 0 W/m 2,7 C -5,1 C 32,2 km/h (5 Bft) 97,73 %
05.02.2017 00:46 4,9 C 85 % 1006,3 hPa 0,0 l/m 19,0 km/h (3 Bft) SW 224 0 min 0,000 mm 0,0 UV-I 0 W/m 2,6 C -2,9 C 25,7 km/h (4 Bft) 100,00 %
05.02.2017 00:48 4,9 C 84 % 1006,3 hPa 0,0 l/m 18,6 km/h (3 Bft) SW 229 0 min 0,000 mm 0,0 UV-I 0 W/m 2,4 C -2,7 C 25,7 km/h (4 Bft) 96,23 %
05.02.2017 00:50 5,1 C 84 % 1006,3 hPa 0,0 l/m 19,3 km/h (3 Bft) W-SW 251 0 min 0,000 mm 0,0 UV-I 0 W/m 2,6 C -2,8 C 25,7 km/h (4 Bft) 98,11 %
05.02.2017 00:52 5,1 C 83 % 1006,3 hPa 0,0 l/m 17,7 km/h (3 Bft) W-SW 243 0 min 0,000 mm 0,0 UV-I 0 W/m 2,5 C -2,1 C 25,7 km/h (4 Bft) 96,00 %
05.02.2017 00:54 5,1 C 83 % 1006,3 hPa 0,0 l/m 19,0 km/h (3 Bft) SW 216 0 min 0,000 mm 0,0 UV-I 0 W/m 2,5 C -2,6 C 29,0 km/h (5 Bft) 97,87 %
05.02.2017 00:56 5,2 C 82 % 1006,3 hPa 0,0 l/m 19,0 km/h (3 Bft) SW 235 0 min 0,000 mm 0,0 UV-I 0 W/m 2,4 C -2,5 C 27,4 km/h (4 Bft) 95,45 %
05.02.2017 00:58 5,2 C 82 % 1006,3 hPa 0,0 l/m 17,4 km/h (3 Bft) SW 226 0 min 0,000 mm 0,0 UV-I 0 W/m 2,4 C -1,8 C 27,4 km/h (4 Bft) 100,00 %
05.02.2017 01:00 5,2 C 82 % 1006,4 hPa 0,0 l/m 14,9 km/h (3 Bft) W-SW 238 0 min 0,025 mm 0,0 UV-I 0 W/m 2,4 C -0,6 C 20,9 km/h (4 Bft) 98,11 %
05.02.2017 01:02 5,1 C 82 % 1006,4 hPa 0,0 l/m 15,6 km/h (3 Bft) SW 223 0 min 0,000 mm 0,0 UV-I 0 W/m 2,3 C -1,1 C 22,5 km/h (4 Bft) 100,00 %
05.02.2017 01:04 5,1 C 82 % 1006,4 hPa 0,0 l/m 15,4 km/h (3 Bft) W-SW 246 0 min 0,000 mm 0,0 UV-I 0 W/m 2,3 C -1,0 C 20,9 km/h (4 Bft) 100,00 %
05.02.2017 01:06 5,1 C 82 % 1006,4 hPa 0,0 l/m 14,3 km/h (3 Bft) SW 236 0 min 0,000 mm 0,0 UV-I 0 W/m 2,3 C -0,4 C 19,3 km/h (3 Bft) 100,00 %
05.02.2017 01:08 5,0 C 82 % 1006,4 hPa 0,0 l/m 12,2 km/h (2 Bft) W-SW 245 0 min 0,000 mm 0,0 UV-I 0 W/m 2,2 C 0,6 C 17,7 km/h (3 Bft) 96,00 %
05.02.2017 01:10 4,9 C 83 % 1006,4 hPa 0,0 l/m 10,4 km/h (2 Bft) SW 234 0 min 0,000 mm 0,0 UV-I 0 W/m 2,3 C 1,7 C 17,7 km/h (3 Bft) 98,00 %
05.02.2017 01:12 4,8 C 83 % 1006,4 hPa 0,0 l/m 7,8 km/h (2 Bft) SW 219 0 min 0,000 mm 0,0 UV-I 0 W/m 2,2 C 3,6 C 12,9 km/h (3 Bft) 98,00 %
05.02.2017 01:14 4,8 C 83 % 1006,4 hPa 0,0 l/m 8,2 km/h (2 Bft) SW 223 0 min 0,000 mm 0,0 UV-I 0 W/m 2,2 C 3,2 C 12,9 km/h (3 Bft) 97,56 %
05.02.2017 01:16 4,7 C 84 % 1006,3 hPa 0,0 l/m 7,8 km/h (2 Bft) S-SW 210 0 min 0,000 mm 0,0 UV-I 0 W/m 2,2 C 3,5 C 12,9 km/h (3 Bft) 100,00 %
05.02.2017 01:18 4,7 C 84 % 1006,4 hPa 0,0 l/m 6,1 km/h (2 Bft) SW 221 0 min 0,000 mm 0,0 UV-I 0 W/m 2,2 C 4,7 C 9,7 km/h (2 Bft) 98,11 %
05.02.2017 01:20 4,7 C 84 % 1006,4 hPa 0,0 l/m 7,1 km/h (2 Bft) SW 231 0 min 0,000 mm 0,0 UV-I 0 W/m 2,2 C 4,1 C 11,3 km/h (2 Bft) 98,21 %
05.02.2017 01:22 4,6 C 85 % 1006,4 hPa 0,0 l/m 7,5 km/h (2 Bft) SW 227 0 min 0,000 mm 0,0 UV-I 0 W/m 2,3 C 3,6 C 14,5 km/h (3 Bft) 100,00 %
05.02.2017 01:24 4,6 C 85 % 1006,4 hPa 0,0 l/m 7,8 km/h (2 Bft) S-SW 196 0 min 0,000 mm 0,0 UV-I 0 W/m 2,3 C 3,4 C 11,3 km/h (2 Bft) 96,15 %
05.02.2017 01:26 4,6 C 85 % 1006,4 hPa 0,0 l/m 9,1 km/h (2 Bft) SW 229 0 min 0,000 mm 0,0 UV-I 0 W/m 2,3 C 2,3 C 12,9 km/h (3 Bft) 98,21 %
05.02.2017 01:28 4,6 C 85 % 1006,4 hPa 0,0 l/m 8,3 km/h (2 Bft) W-SW 238 0 min 0,000 mm 0,0 UV-I 0 W/m 2,3 C 2,9 C 12,9 km/h (3 Bft) 98,21 %
05.02.2017 01:30 4,5 C 85 % 1006,4 hPa 0,0 l/m 7,9 km/h (2 Bft) W-SW 246 0 min 0,000 mm 0,0 UV-I 0 W/m 2,2 C 3,2 C 14,5 km/h (3 Bft) 93,62 %
05.02.2017 01:32 4,4 C 85 % 1006,5 hPa 0,0 l/m 9,5 km/h (2 Bft) SW 222 0 min 0,000 mm 0,0 UV-I 0 W/m 2,1 C 1,8 C 14,5 km/h (3 Bft) 97,73 %
05.02.2017 01:34 4,4 C 86 % 1006,5 hPa 0,0 l/m 8,0 km/h (2 Bft) SW 229 0 min 0,000 mm 0,0 UV-I 0 W/m 2,3 C 3,0 C 12,9 km/h (3 Bft) 96,23 %
05.02.2017 01:36 4,3 C 86 % 1006,5 hPa 0,0 l/m 8,2 km/h (2 Bft) W-SW 249 0 min 0,000 mm 0,0 UV-I 0 W/m 2,2 C 2,7 C 11,3 km/h (2 Bft) 97,87 %
05.02.2017 01:38 4,3 C 86 % 1006,5 hPa 0,0 l/m 9,0 km/h (2 Bft) SW 229 0 min 0,000 mm 0,0 UV-I 0 W/m 2,2 C 2,1 C 12,9 km/h (3 Bft) 92,68 %
05.02.2017 01:40 4,2 C 86 % 1006,5 hPa 0,0 l/m 7,2 km/h (2 Bft) SW 218 0 min 0,000 mm 0,0 UV-I 0 W/m 2,1 C 3,5 C 12,9 km/h (3 Bft) 96,00 %
05.02.2017 01:42 4,2 C 86 % 1006,5 hPa 0,0 l/m 8,0 km/h (2 Bft) W-SW 247 0 min 0,000 mm 0,0 UV-I 0 W/m 2,1 C 2,8 C 11,3 km/h (2 Bft) 97,62 %
05.02.2017 01:44 4,2 C 86 % 1006,6 hPa 0,0 l/m 6,9 km/h (2 Bft) W-SW 242 0 min 0,000 mm 0,0 UV-I 0 W/m 2,1 C 3,8 C 11,3 km/h (2 Bft) 96,15 %
05.02.2017 01:46 4,2 C 86 % 1006,6 hPa 0,0 l/m 7,7 km/h (2 Bft) W-SW 238 0 min 0,000 mm 0,0 UV-I 0 W/m 2,1 C 3,0 C 11,3 km/h (2 Bft) 97,44 %
05.02.2017 01:48 4,2 C 86 % 1006,6 hPa 0,0 l/m 7,4 km/h (2 Bft) SW 218 0 min 0,000 mm 0,0 UV-I 0 W/m 2,1 C 3,3 C 9,7 km/h (2 Bft) 95,45 %
05.02.2017 01:50 4,2 C 86 % 1006,6 hPa 0,0 l/m 6,5 km/h (2 Bft) W-SW 252 0 min 0,000 mm 0,0 UV-I 0 W/m 2,1 C 4,1 C 11,3 km/h (2 Bft) 92,86 %
05.02.2017 01:52 4,2 C 86 % 1006,7 hPa 0,0 l/m 6,0 km/h (2 Bft) SW 229 0 min 0,000 mm 0,0 UV-I 0 W/m 2,1 C 4,2 C 9,7 km/h (2 Bft) 93,62 %
05.02.2017 01:54 4,1 C 86 % 1006,7 hPa 0,0 l/m 5,8 km/h (2 Bft) SW 225 0 min 0,000 mm 0,0 UV-I 0 W/m 2,0 C 4,1 C 8,0 km/h (2 Bft) 97,73 %
05.02.2017 01:56 4,1 C 86 % 1006,8 hPa 0,0 l/m 6,5 km/h (2 Bft) W-SW 239 0 min 0,000 mm 0,0 UV-I 0 W/m 2,0 C 4,0 C 9,7 km/h (2 Bft) 98,11 %
05.02.2017 01:58 4,1 C 86 % 1006,8 hPa 0,0 l/m 7,6 km/h (2 Bft) SW 227 0 min 0,000 mm 0,0 UV-I 0 W/m 2,0 C 3,0 C 12,9 km/h (3 Bft) 95,65 %
05.02.2017 02:00 4,1 C 86 % 1006,8 hPa 0,0 l/m 6,5 km/h (2 Bft) SW 229 0 min 0,026 mm 0,0 UV-I 0 W/m 2,0 C 4,0 C 11,3 km/h (2 Bft) 97,18 %
05.02.2017 02:02 4,1 C 86 % 1006,8 hPa 0,0 l/m 6,5 km/h (2 Bft) SW 215 0 min 0,000 mm 0,0 UV-I 0 W/m 2,0 C 4,0 C 9,7 km/h (2 Bft) 95,12 %
05.02.2017 02:04 4,1 C 86 % 1006,8 hPa 0,0 l/m 7,4 km/h (2 Bft) W-SW 241 0 min 0,000 mm 0,0 UV-I 0 W/m 2,0 C 3,2 C 11,3 km/h (2 Bft) 93,62 %
05.02.2017 02:06 4,1 C 86 % 1006,9 hPa 0,0 l/m 6,5 km/h (2 Bft) SW 227 0 min 0,000 mm 0,0 UV-I 0 W/m 2,0 C 4,0 C 9,7 km/h (2 Bft) 98,00 %
05.02.2017 02:08 4,2 C 86 % 1006,8 hPa 0,0 l/m 7,0 km/h (2 Bft) SW 228 0 min 0,000 mm 0,0 UV-I 0 W/m 2,1 C 3,7 C 9,7 km/h (2 Bft) 95,12 %
05.02.2017 02:10 4,2 C 85 % 1006,8 hPa 0,0 l/m 6,9 km/h (2 Bft) SW 215 0 min 0,000 mm 0,0 UV-I 0 W/m 1,9 C 3,8 C 11,3 km/h (2 Bft) 97,87 %
05.02.2017 02:12 4,2 C 85 % 1006,8 hPa 0,0 l/m 8,1 km/h (2 Bft) W-SW 243 0 min 0,000 mm 0,0 UV-I 0 W/m 1,9 C 2,7 C 11,3 km/h (2 Bft) 100,00 %
05.02.2017 02:14 4,2 C 85 % 1006,8 hPa 0,0 l/m 8,7 km/h (2 Bft) W-SW 238 0 min 0,000 mm 0,0 UV-I 0 W/m 1,9 C 2,2 C 12,9 km/h (3 Bft) 97,56 %
05.02.2017 02:16 4,2 C 85 % 1006,8 hPa 0,0 l/m 8,2 km/h (2 Bft) W-SW 244 0 min 0,000 mm 0,0 UV-I 0 W/m 1,9 C 2,6 C 14,5 km/h (3 Bft) 98,11 %
05.02.2017 02:18 4,1 C 85 % 1006,8 hPa 0,0 l/m 10,3 km/h (2 Bft) SW 227 0 min 0,000 mm 0,0 UV-I 0 W/m 1,8 C 0,9 C 14,5 km/h (3 Bft) 97,73 %
05.02.2017 02:20 4,1 C 85 % 1006,8 hPa 0,0 l/m 10,4 km/h (2 Bft) SW 214 0 min 0,000 mm 0,0 UV-I 0 W/m 1,8 C 0,8 C 16,1 km/h (3 Bft) 96,00 %
05.02.2017 02:22 4,1 C 85 % 1006,9 hPa 0,0 l/m 11,3 km/h (2 Bft) W-SW 238 0 min 0,000 mm 0,0 UV-I 0 W/m 1,8 C 0,2 C 16,1 km/h (3 Bft) 100,00 %
05.02.2017 02:24 4,2 C 84 % 1006,9 hPa 0,0 l/m 10,8 km/h (2 Bft) SW 222 0 min 0,000 mm 0,0 UV-I 0 W/m 1,7 C 0,6 C 14,5 km/h (3 Bft) 97,44 %
05.02.2017 02:26 4,2 C 84 % 1006,9 hPa 0,0 l/m 11,0 km/h (2 Bft) SW 227 0 min 0,000 mm 0,0 UV-I 0 W/m 1,7 C 0,5 C 16,1 km/h (3 Bft) 100,00 %
05.02.2017 02:28 4,2 C 84 % 1006,9 hPa 0,0 l/m 12,4 km/h (3 Bft) W-SW 238 0 min 0,000 mm 0,0 UV-I 0 W/m 1,7 C -0,4 C 17,7 km/h (3 Bft) 98,31 %
05.02.2017 02:30 4,2 C 84 % 1006,9 hPa 0,0 l/m 11,7 km/h (2 Bft) SW 215 0 min 0,000 mm 0,0 UV-I 0 W/m 1,7 C 0,0 C 19,3 km/h (3 Bft) 97,56 %
05.02.2017 02:32 4,3 C 84 % 1006,9 hPa 0,0 l/m 9,7 km/h (2 Bft) W-SW 240 0 min 0,000 mm 0,0 UV-I 0 W/m 1,8 C 1,5 C 12,9 km/h (3 Bft) 98,11 %
05.02.2017 02:34 4,3 C 83 % 1006,9 hPa 0,0 l/m 10,9 km/h (2 Bft) SW 215 0 min 0,000 mm 0,0 UV-I 0 W/m 1,7 C 0,7 C 16,1 km/h (3 Bft) 98,00 %
05.02.2017 02:36 4,3 C 83 % 1006,9 hPa 0,0 l/m 10,7 km/h (2 Bft) SW 233 0 min 0,000 mm 0,0 UV-I 0 W/m 1,7 C 0,8 C 16,1 km/h (3 Bft) 94,74 %
05.02.2017 02:38 4,3 C 82 % 1006,9 hPa 0,0 l/m 12,2 km/h (2 Bft) S 188 0 min 0,000 mm 0,0 UV-I 0 W/m 1,5 C -0,2 C 20,9 km/h (4 Bft) 100,00 %
05.02.2017 02:40 4,3 C 82 % 1006,9 hPa 0,0 l/m 14,8 km/h (3 Bft) SW 229 0 min 0,000 mm 0,0 UV-I 0 W/m 1,5 C -1,7 C 20,9 km/h (4 Bft) 98,00 %
05.02.2017 02:42 4,4 C 82 % 1006,9 hPa 0,0 l/m 10,0 km/h (2 Bft) W-SW 253 0 min 0,000 mm 0,0 UV-I 0 W/m 1,6 C 1,4 C 14,5 km/h (3 Bft) 98,11 %
05.02.2017 02:44 4,4 C 82 % 1006,9 hPa 0,0 l/m 10,2 km/h (2 Bft) W-SW 245 0 min 0,000 mm 0,0 UV-I 0 W/m 1,6 C 1,3 C 17,7 km/h (3 Bft) 100,00 %
05.02.2017 02:46 4,4 C 81 % 1007,0 hPa 0,0 l/m 9,7 km/h (2 Bft) W-SW 243 0 min 0,000 mm 0,0 UV-I 0 W/m 1,4 C 1,6 C 14,5 km/h (3 Bft) 97,56 %
05.02.2017 02:48 4,5 C 81 % 1007,0 hPa 0,0 l/m 8,1 km/h (2 Bft) S-SW 207 0 min 0,000 mm 0,0 UV-I 0 W/m 1,5 C 3,0 C 12,9 km/h (3 Bft) 100,00 %
05.02.2017 02:50 4,5 C 81 % 1007,0 hPa 0,0 l/m 6,2 km/h (2 Bft) S-SW 203 0 min 0,000 mm 0,0 UV-I 0 W/m 1,5 C 4,5 C 12,9 km/h (3 Bft) 95,74 %
05.02.2017 02:52 4,5 C 81 % 1006,9 hPa 0,0 l/m 9,2 km/h (2 Bft) S-SW 207 0 min 0,000 mm 0,0 UV-I 0 W/m 1,5 C 2,1 C 14,5 km/h (3 Bft) 100,00 %
05.02.2017 02:54 4,5 C 81 % 1007,0 hPa 0,0 l/m 8,0 km/h (2 Bft) SW 234 0 min 0,000 mm 0,0 UV-I 0 W/m 1,5 C 3,1 C 11,3 km/h (2 Bft) 97,44 %
05.02.2017 02:56 4,5 C 81 % 1007,0 hPa 0,0 l/m 7,6 km/h (2 Bft) S-SW 210 0 min 0,000 mm 0,0 UV-I 0 W/m 1,5 C 3,4 C 11,3 km/h (2 Bft) 98,51 %
05.02.2017 02:58 4,6 C 81 % 1007,0 hPa 0,0 l/m 7,5 km/h (2 Bft) SW 216 0 min 0,000 mm 0,0 UV-I 0 W/m 1,6 C 3,6 C 12,9 km/h (3 Bft) 100,00 %
05.02.2017 03:00 4,5 C 81 % 1007,0 hPa 0,0 l/m 6,0 km/h (2 Bft) S-SW 211 0 min 0,025 mm 0,0 UV-I 0 W/m 1,5 C 4,5 C 8,0 km/h (2 Bft) 100,00 %
05.02.2017 03:02 4,4 C 81 % 1007,0 hPa 0,0 l/m 7,5 km/h (2 Bft) S-SW 202 0 min 0,000 mm 0,0 UV-I 0 W/m 1,4 C 3,4 C 12,9 km/h (3 Bft) 100,00 %
05.02.2017 03:04 4,4 C 81 % 1007,0 hPa 0,0 l/m 7,5 km/h (2 Bft) S-SW 200 0 min 0,000 mm 0,0 UV-I 0 W/m 1,4 C 3,4 C 11,3 km/h (2 Bft) 100,00 %
05.02.2017 03:06 4,4 C 81 % 1007,0 hPa 0,0 l/m 7,5 km/h (2 Bft) S-SW 203 0 min 0,000 mm 0,0 UV-I 0 W/m 1,4 C 3,4 C 12,9 km/h (3 Bft) 100,00 %
05.02.2017 03:08 4,4 C 81 % 1007,0 hPa 0,0 l/m 7,6 km/h (2 Bft) S-SW 193 0 min 0,000 mm 0,0 UV-I 0 W/m 1,4 C 3,3 C 12,9 km/h (3 Bft) 97,44 %
05.02.2017 03:10 4,3 C 81 % 1007,0 hPa 0,0 l/m 8,0 km/h (2 Bft) S-SW 205 0 min 0,000 mm 0,0 UV-I 0 W/m 1,3 C 2,9 C 12,9 km/h (3 Bft) 98,00 %
05.02.2017 03:12 4,3 C 81 % 1006,9 hPa 0,0 l/m 8,8 km/h (2 Bft) SW 221 0 min 0,000 mm 0,0 UV-I 0 W/m 1,3 C 2,2 C 12,9 km/h (3 Bft) 98,04 %
05.02.2017 03:14 4,4 C 81 % 1007,0 hPa 0,0 l/m 8,9 km/h (2 Bft) SW 219 0 min 0,000 mm 0,0 UV-I 0 W/m 1,4 C 2,2 C 14,5 km/h (3 Bft) 100,00 %
05.02.2017 03:16 4,4 C 81 % 1007,0 hPa 0,0 l/m 10,3 km/h (2 Bft) S-SW 211 0 min 0,000 mm 0,0 UV-I 0 W/m 1,4 C 1,2 C 14,5 km/h (3 Bft) 95,12 %
05.02.2017 03:18 4,5 C 81 % 1007,0 hPa 0,0 l/m 9,0 km/h (2 Bft) S-SW 207 0 min 0,000 mm 0,0 UV-I 0 W/m 1,5 C 2,3 C 12,9 km/h (3 Bft) 100,00 %
05.02.2017 03:20 4,6 C 80 % 1007,0 hPa 0,0 l/m 13,0 km/h (3 Bft) W-SW 240 0 min 0,000 mm 0,0 UV-I 0 W/m 1,5 C -0,3 C 19,3 km/h (3 Bft) 96,00 %
05.02.2017 03:22 4,6 C 80 % 1007,0 hPa 0,0 l/m 11,5 km/h (2 Bft) S 188 0 min 0,000 mm 0,0 UV-I 0 W/m 1,5 C 0,6 C 17,7 km/h (3 Bft) 92,11 %
05.02.2017 03:24 4,6 C 80 % 1006,9 hPa 0,0 l/m 15,9 km/h (3 Bft) SW 232 0 min 0,000 mm 0,0 UV-I 0 W/m 1,5 C -1,9 C 25,7 km/h (4 Bft) 100,00 %
05.02.2017 03:26 4,6 C 79 % 1006,9 hPa 0,0 l/m 17,9 km/h (3 Bft) W 266 0 min 0,000 mm 0,0 UV-I 0 W/m 1,3 C -2,8 C 29,0 km/h (5 Bft) 97,37 %
05.02.2017 03:28 4,7 C 78 % 1006,9 hPa 0,0 l/m 16,0 km/h (3 Bft) W-SW 257 0 min 0,000 mm 0,0 UV-I 0 W/m 1,2 C -1,8 C 22,5 km/h (4 Bft) 100,00 %
05.02.2017 03:30 4,8 C 77 % 1006,8 hPa 0,0 l/m 17,5 km/h (3 Bft) W-SW 255 0 min 0,000 mm 0,0 UV-I 0 W/m 1,1 C -2,4 C 29,0 km/h (5 Bft) 97,73 %
05.02.2017 03:32 5,0 C 76 % 1006,8 hPa 0,0 l/m 16,3 km/h (3 Bft) W-SW 241 0 min 0,000 mm 0,0 UV-I 0 W/m 1,1 C -1,6 C 25,7 km/h (4 Bft) 98,00 %
05.02.2017 03:34 5,1 C 76 % 1006,8 hPa 0,0 l/m 17,6 km/h (3 Bft) W 263 0 min 0,000 mm 0,0 UV-I 0 W/m 1,2 C -2,0 C 24,1 km/h (4 Bft) 97,87 %
05.02.2017 03:36 5,2 C 76 % 1006,8 hPa 0,0 l/m 18,0 km/h (3 Bft) W-SW 252 0 min 0,000 mm 0,0 UV-I 0 W/m 1,3 C -2,1 C 24,1 km/h (4 Bft) 98,00 %
05.02.2017 03:38 5,2 C 75 % 1006,8 hPa 0,0 l/m 14,4 km/h (3 Bft) W-SW 239 0 min 0,000 mm 0,0 UV-I 0 W/m 1,1 C -0,4 C 19,3 km/h (3 Bft) 100,00 %
05.02.2017 03:40 5,2 C 75 % 1006,8 hPa 0,0 l/m 11,8 km/h (2 Bft) W-SW 254 0 min 0,000 mm 0,0 UV-I 0 W/m 1,1 C 1,1 C 22,5 km/h (4 Bft) 98,11 %
05.02.2017 03:42 5,1 C 75 % 1006,8 hPa 0,0 l/m 13,1 km/h (3 Bft) W-SW 246 0 min 0,000 mm 0,0 UV-I 0 W/m 1,0 C 0,2 C 19,3 km/h (3 Bft) 95,12 %
05.02.2017 03:44 5,1 C 75 % 1006,8 hPa 0,0 l/m 11,7 km/h (2 Bft) W-SW 250 0 min 0,000 mm 0,0 UV-I 0 W/m 1,0 C 1,1 C 16,1 km/h (3 Bft) 100,00 %
05.02.2017 03:46 5,1 C 75 % 1006,8 hPa 0,0 l/m 12,6 km/h (3 Bft) SW 233 0 min 0,000 mm 0,0 UV-I 0 W/m 1,0 C 0,5 C 16,1 km/h (3 Bft) 97,87 %
05.02.2017 03:48 5,1 C 76 % 1006,8 hPa 0,0 l/m 10,5 km/h (2 Bft) SW 228 0 min 0,000 mm 0,0 UV-I 0 W/m 1,2 C 1,8 C 16,1 km/h (3 Bft) 98,00 %
05.02.2017 03:50 4,9 C 76 % 1006,8 hPa 0,0 l/m 8,9 km/h (2 Bft) SW 232 0 min 0,000 mm 0,0 UV-I 0 W/m 1,0 C 2,8 C 12,9 km/h (3 Bft) 97,37 %
05.02.2017 03:52 4,8 C 76 % 1006,8 hPa 0,0 l/m 11,0 km/h (2 Bft) W 269 0 min 0,000 mm 0,0 UV-I 0 W/m 0,9 C 1,2 C 16,1 km/h (3 Bft) 96,00 %
05.02.2017 03:54 4,8 C 76 % 1006,7 hPa 0,0 l/m 12,1 km/h (2 Bft) W 273 0 min 0,000 mm 0,0 UV-I 0 W/m 0,9 C 0,5 C 17,7 km/h (3 Bft) 97,73 %
05.02.2017 03:56 4,8 C 76 % 1006,8 hPa 0,0 l/m 13,6 km/h (3 Bft) W-SW 240 0 min 0,000 mm 0,0 UV-I 0 W/m 0,9 C -0,4 C 17,7 km/h (3 Bft) 98,21 %
05.02.2017 03:58 4,7 C 77 % 1006,8 hPa 0,0 l/m 10,9 km/h (2 Bft) W-SW 242 0 min 0,000 mm 0,0 UV-I 0 W/m 1,0 C 1,1 C 17,7 km/h (3 Bft) 97,73 %
05.02.2017 04:00 4,7 C 77 % 1006,8 hPa 0,0 l/m 11,3 km/h (2 Bft) W-SW 246 0 min 0,026 mm 0,0 UV-I 0 W/m 1,0 C 0,9 C 16,1 km/h (3 Bft) 98,11 %
05.02.2017 04:02 4,7 C 77 % 1006,8 hPa 0,0 l/m 11,2 km/h (2 Bft) SW 225 0 min 0,000 mm 0,0 UV-I 0 W/m 1,0 C 0,9 C 19,3 km/h (3 Bft) 100,00 %
05.02.2017 04:04 4,7 C 77 % 1006,8 hPa 0,0 l/m 11,6 km/h (2 Bft) SW 227 0 min 0,000 mm 0,0 UV-I 0 W/m 1,0 C 0,7 C 16,1 km/h (3 Bft) 96,43 %
05.02.2017 04:06 4,6 C 77 % 1006,9 hPa 0,0 l/m 12,2 km/h (2 Bft) SW 233 0 min 0,000 mm 0,0 UV-I 0 W/m 0,9 C 0,2 C 19,3 km/h (3 Bft) 95,12 %
05.02.2017 04:08 4,6 C 77 % 1006,9 hPa 0,0 l/m 10,8 km/h (2 Bft) SW 236 0 min 0,000 mm 0,0 UV-I 0 W/m 0,9 C 1,1 C 16,1 km/h (3 Bft) 97,73 %
05.02.2017 04:10 4,4 C 78 % 1006,8 hPa 0,0 l/m 9,9 km/h (2 Bft) SW 232 0 min 0,000 mm 0,0 UV-I 0 W/m 0,9 C 1,5 C 16,1 km/h (3 Bft) 98,11 %
05.02.2017 04:12 4,3 C 78 % 1006,9 hPa 0,0 l/m 7,6 km/h (2 Bft) SW 229 0 min 0,000 mm 0,0 UV-I 0 W/m 0,8 C 3,2 C 12,9 km/h (3 Bft) 95,12 %
05.02.2017 04:14 4,3 C 78 % 1006,9 hPa 0,0 l/m 11,1 km/h (2 Bft) W-SW 240 0 min 0,000 mm 0,0 UV-I 0 W/m 0,8 C 0,5 C 16,1 km/h (3 Bft) 97,73 %
05.02.2017 04:16 4,3 C 78 % 1006,9 hPa 0,0 l/m 9,4 km/h (2 Bft) W-SW 242 0 min 0,000 mm 0,0 UV-I 0 W/m 0,8 C 1,7 C 14,5 km/h (3 Bft) 96,00 %
05.02.2017 04:18 4,3 C 79 % 1006,8 hPa 0,0 l/m 8,3 km/h (2 Bft) SW 232 0 min 0,000 mm 0,0 UV-I 0 W/m 1,0 C 2,6 C 12,9 km/h (3 Bft) 94,00 %
05.02.2017 04:20 4,3 C 79 % 1006,9 hPa 0,0 l/m 8,9 km/h (2 Bft) SW 218 0 min 0,000 mm 0,0 UV-I 0 W/m 1,0 C 2,1 C 14,5 km/h (3 Bft) 97,62 %
05.02.2017 04:22 4,3 C 79 % 1006,9 hPa 0,0 l/m 7,9 km/h (2 Bft) SW 228 0 min 0,000 mm 0,0 UV-I 0 W/m 1,0 C 3,0 C 12,9 km/h (3 Bft) 94,23 %
05.02.2017 04:24 4,3 C 79 % 1006,9 hPa 0,0 l/m 8,1 km/h (2 Bft) W-SW 240 0 min 0,000 mm 0,0 UV-I 0 W/m 1,0 C 2,8 C 12,9 km/h (3 Bft) 98,00 %
05.02.2017 04:26 4,3 C 78 % 1006,8 hPa 0,0 l/m 7,2 km/h (2 Bft) SW 234 0 min 0,000 mm 0,0 UV-I 0 W/m 0,8 C 3,6 C 9,7 km/h (2 Bft) 94,87 %
05.02.2017 04:28 4,3 C 78 % 1006,9 hPa 0,0 l/m 7,8 km/h (2 Bft) SW 229 0 min 0,000 mm 0,0 UV-I 0 W/m 0,8 C 3,0 C 14,5 km/h (3 Bft) 98,00 %
05.02.2017 04:30 4,3 C 78 % 1006,9 hPa 0,0 l/m 9,7 km/h (2 Bft) W-SW 248 0 min 0,000 mm 0,0 UV-I 0 W/m 0,8 C 1,5 C 16,1 km/h (3 Bft) 100,00 %
05.02.2017 04:32 4,3 C 78 % 1006,9 hPa 0,0 l/m 10,3 km/h (2 Bft) SW 217 0 min 0,000 mm 0,0 UV-I 0 W/m 0,8 C 1,1 C 17,7 km/h (3 Bft) 95,74 %
05.02.2017 04:34 4,3 C 78 % 1006,9 hPa 0,0 l/m 9,3 km/h (2 Bft) SW 232 0 min 0,000 mm 0,0 UV-I 0 W/m 0,8 C 1,8 C 14,5 km/h (3 Bft) 97,87 %
05.02.2017 04:36 4,4 C 78 % 1006,9 hPa 0,0 l/m 8,6 km/h (2 Bft) SW 215 0 min 0,000 mm 0,0 UV-I 0 W/m 0,9 C 2,5 C 12,9 km/h (3 Bft) 100,00 %
05.02.2017 04:38 4,4 C 78 % 1006,9 hPa 0,0 l/m 8,7 km/h (2 Bft) SW 229 0 min 0,000 mm 0,0 UV-I 0 W/m 0,9 C 2,4 C 12,9 km/h (3 Bft) 98,00 %
05.02.2017 04:40 4,4 C 78 % 1007,0 hPa 0,0 l/m 7,3 km/h (2 Bft) W-SW 242 0 min 0,000 mm 0,0 UV-I 0 W/m 0,9 C 3,6 C 9,7 km/h (2 Bft) 100,00 %
05.02.2017 04:42 4,4 C 78 % 1006,9 hPa 0,0 l/m 7,1 km/h (2 Bft) SW 225 0 min 0,000 mm 0,0 UV-I 0 W/m 0,9 C 3,8 C 9,7 km/h (2 Bft) 96,00 %
05.02.2017 04:44 4,4 C 78 % 1007,0 hPa 0,0 l/m 6,7 km/h (2 Bft) W-SW 238 0 min 0,000 mm 0,0 UV-I 0 W/m 0,9 C 4,1 C 9,7 km/h (2 Bft) 98,11 %
05.02.2017 04:46 4,4 C 78 % 1007,0 hPa 0,0 l/m 9,3 km/h (2 Bft) W-SW 248 0 min 0,000 mm 0,0 UV-I 0 W/m 0,9 C 1,9 C 12,9 km/h (3 Bft) 100,00 %
05.02.2017 04:48 4,4 C 78 % 1007,0 hPa 0,0 l/m 9,4 km/h (2 Bft) S-SW 212 0 min 0,000 mm 0,0 UV-I 0 W/m 0,9 C 1,9 C 16,1 km/h (3 Bft) 98,00 %
05.02.2017 04:50 4,3 C 78 % 1007,0 hPa 0,0 l/m 8,9 km/h (2 Bft) SW 217 0 min 0,000 mm 0,0 UV-I 0 W/m 0,8 C 2,1 C 12,9 km/h (3 Bft) 100,00 %
05.02.2017 04:52 4,3 C 79 % 1007,0 hPa 0,0 l/m 7,6 km/h (2 Bft) W-SW 246 0 min 0,000 mm 0,0 UV-I 0 W/m 1,0 C 3,2 C 11,3 km/h (2 Bft) 97,56 %
05.02.2017 04:54 4,3 C 79 % 1007,0 hPa 0,0 l/m 8,4 km/h (2 Bft) SW 228 0 min 0,000 mm 0,0 UV-I 0 W/m 1,0 C 2,5 C 12,9 km/h (3 Bft) 100,00 %
05.02.2017 04:56 4,2 C 79 % 1007,0 hPa 0,0 l/m 8,2 km/h (2 Bft) W-SW 241 0 min 0,000 mm 0,0 UV-I 0 W/m 0,9 C 2,6 C 12,9 km/h (3 Bft) 96,43 %
05.02.2017 04:58 4,2 C 79 % 1007,1 hPa 0,0 l/m 8,7 km/h (2 Bft) SW 236 0 min 0,000 mm 0,0 UV-I 0 W/m 0,9 C 2,2 C 12,9 km/h (3 Bft) 98,00 %
05.02.2017 05:00 4,1 C 80 % 1007,0 hPa 0,0 l/m 8,5 km/h (2 Bft) W-SW 250 0 min 0,025 mm 0,0 UV-I 0 W/m 1,0 C 2,2 C 12,9 km/h (3 Bft) 97,44 %
05.02.2017 05:02 4,1 C 80 % 1007,1 hPa 0,0 l/m 11,5 km/h (2 Bft) SW 217 0 min 0,000 mm 0,0 UV-I 0 W/m 1,0 C 0,0 C 16,1 km/h (3 Bft) 95,74 %
05.02.2017 05:04 4,1 C 80 % 1007,1 hPa 0,0 l/m 13,1 km/h (3 Bft) W-SW 255 0 min 0,000 mm 0,0 UV-I 0 W/m 1,0 C -1,0 C 17,7 km/h (3 Bft) 100,00 %
05.02.2017 05:06 4,1 C 80 % 1007,1 hPa 0,0 l/m 11,6 km/h (2 Bft) W-SW 252 0 min 0,000 mm 0,0 UV-I 0 W/m 1,0 C -0,0 C 17,7 km/h (3 Bft) 98,00 %
05.02.2017 05:08 4,1 C 80 % 1007,0 hPa 0,0 l/m 12,6 km/h (3 Bft) W-SW 242 0 min 0,000 mm 0,0 UV-I 0 W/m 1,0 C -0,7 C 19,3 km/h (3 Bft) 100,00 %
05.02.2017 05:10 4,1 C 80 % 1007,1 hPa 0,0 l/m 11,7 km/h (2 Bft) S-SW 209 0 min 0,000 mm 0,0 UV-I 0 W/m 1,0 C -0,1 C 19,3 km/h (3 Bft) 98,11 %
05.02.2017 05:12 4,1 C 80 % 1007,0 hPa 0,0 l/m 10,9 km/h (2 Bft) W-SW 242 0 min 0,000 mm 0,0 UV-I 0 W/m 1,0 C 0,4 C 16,1 km/h (3 Bft) 100,00 %
05.02.2017 05:14 4,1 C 79 % 1007,0 hPa 0,0 l/m 13,0 km/h (3 Bft) SW 235 0 min 0,000 mm 0,0 UV-I 0 W/m 0,8 C -0,9 C 19,3 km/h (3 Bft) 97,56 %
05.02.2017 05:16 4,1 C 79 % 1007,0 hPa 0,0 l/m 12,5 km/h (3 Bft) SW 228 0 min 0,000 mm 0,0 UV-I 0 W/m 0,8 C -0,6 C 16,1 km/h (3 Bft) 100,00 %
05.02.2017 05:18 4,1 C 79 % 1007,0 hPa 0,0 l/m 13,4 km/h (3 Bft) W-SW 243 0 min 0,000 mm 0,0 UV-I 0 W/m 0,8 C -1,1 C 20,9 km/h (4 Bft) 96,23 %
05.02.2017 05:20 4,1 C 79 % 1007,1 hPa 0,0 l/m 11,7 km/h (2 Bft) W-SW 258 0 min 0,000 mm 0,0 UV-I 0 W/m 0,8 C -0,1 C 16,1 km/h (3 Bft) 100,00 %
05.02.2017 05:22 4,1 C 79 % 1007,1 hPa 0,0 l/m 8,3 km/h (2 Bft) SW 236 0 min 0,000 mm 0,0 UV-I 0 W/m 0,8 C 2,4 C 11,3 km/h (2 Bft) 98,00 %
05.02.2017 05:24 4,2 C 78 % 1007,1 hPa 0,0 l/m 10,0 km/h (2 Bft) SW 227 0 min 0,000 mm 0,0 UV-I 0 W/m 0,7 C 1,2 C 16,1 km/h (3 Bft) 97,56 %
05.02.2017 05:26 4,3 C 78 % 1007,1 hPa 0,0 l/m 10,6 km/h (2 Bft) SW 232 0 min 0,000 mm 0,0 UV-I 0 W/m 0,8 C 0,9 C 19,3 km/h (3 Bft) 100,00 %
05.02.2017 05:28 4,3 C 78 % 1007,1 hPa 0,0 l/m 9,7 km/h (2 Bft) SW 231 0 min 0,000 mm 0,0 UV-I 0 W/m 0,8 C 1,5 C 19,3 km/h (3 Bft) 96,15 %
05.02.2017 05:30 4,4 C 77 % 1007,1 hPa 0,0 l/m 10,5 km/h (2 Bft) W-SW 237 0 min 0,000 mm 0,0 UV-I 0 W/m 0,7 C 1,1 C 17,7 km/h (3 Bft) 98,53 %
05.02.2017 05:32 4,4 C 77 % 1007,1 hPa 0,0 l/m 10,7 km/h (2 Bft) SW 221 0 min 0,000 mm 0,0 UV-I 0 W/m 0,7 C 0,9 C 17,7 km/h (3 Bft) 97,87 %
05.02.2017 05:34 4,5 C 76 % 1007,1 hPa 0,0 l/m 9,7 km/h (2 Bft) SW 227 0 min 0,000 mm 0,0 UV-I 0 W/m 0,6 C 1,7 C 14,5 km/h (3 Bft) 94,29 %
05.02.2017 05:36 4,5 C 76 % 1007,1 hPa 0,0 l/m 9,9 km/h (2 Bft) W-SW 244 0 min 0,000 mm 0,0 UV-I 0 W/m 0,6 C 1,6 C 19,3 km/h (3 Bft) 100,00 %
05.02.2017 05:38 4,5 C 76 % 1007,1 hPa 0,0 l/m 9,6 km/h (2 Bft) S 188 0 min 0,000 mm 0,0 UV-I 0 W/m 0,6 C 1,8 C 14,5 km/h (3 Bft) 97,62 %
05.02.2017 05:40 4,5 C 76 % 1007,1 hPa 0,0 l/m 9,6 km/h (2 Bft) S-SW 212 0 min 0,000 mm 0,0 UV-I 0 W/m 0,6 C 1,8 C 14,5 km/h (3 Bft) 98,18 %
05.02.2017 05:42 4,5 C 76 % 1007,1 hPa 0,0 l/m 11,3 km/h (2 Bft) SW 223 0 min 0,000 mm 0,0 UV-I 0 W/m 0,6 C 0,6 C 16,1 km/h (3 Bft) 95,24 %
05.02.2017 05:44 4,4 C 76 % 1007,0 hPa 0,0 l/m 9,1 km/h (2 Bft) SW 221 0 min 0,000 mm 0,0 UV-I 0 W/m 0,5 C 2,1 C 12,9 km/h (3 Bft) 98,08 %
05.02.2017 05:46 4,4 C 76 % 1006,9 hPa 0,0 l/m 8,5 km/h (2 Bft) SW 236 0 min 0,000 mm 0,0 UV-I 0 W/m 0,5 C 2,6 C 16,1 km/h (3 Bft) 100,00 %
05.02.2017 05:48 4,3 C 76 % 1006,9 hPa 0,0 l/m 8,0 km/h (2 Bft) SW 221 0 min 0,000 mm 0,0 UV-I 0 W/m 0,5 C 2,9 C 14,5 km/h (3 Bft) 97,37 %
05.02.2017 05:50 4,3 C 76 % 1007,0 hPa 0,0 l/m 7,8 km/h (2 Bft) SW 225 0 min 0,000 mm 0,0 UV-I 0 W/m 0,5 C 3,0 C 12,9 km/h (3 Bft) 100,00 %
05.02.2017 05:52 4,3 C 76 % 1006,9 hPa 0,0 l/m 6,9 km/h (2 Bft) SW 221 0 min 0,000 mm 0,0 UV-I 0 W/m 0,5 C 3,9 C 12,9 km/h (3 Bft) 90,24 %
05.02.2017 05:54 4,3 C 76 % 1006,9 hPa 0,0 l/m 9,2 km/h (2 Bft) S-SW 205 0 min 0,000 mm 0,0 UV-I 0 W/m 0,5 C 1,9 C 12,9 km/h (3 Bft) 97,56 %
05.02.2017 05:56 4,3 C 76 % 1006,9 hPa 0,0 l/m 8,0 km/h (2 Bft) S-SW 212 0 min 0,000 mm 0,0 UV-I 0 W/m 0,5 C 2,9 C 11,3 km/h (2 Bft) 97,56 %
05.02.2017 05:58 4,2 C 76 % 1006,9 hPa 0,0 l/m 8,8 km/h (2 Bft) W 271 0 min 0,000 mm 0,0 UV-I 0 W/m 0,4 C 2,1 C 14,5 km/h (3 Bft) 100,00 %
05.02.2017 06:00 4,2 C 76 % 1006,9 hPa 0,0 l/m 7,1 km/h (2 Bft) SW 219 0 min 0,025 mm 0,0 UV-I 0 W/m 0,4 C 3,6 C 12,9 km/h (3 Bft) 100,00 %
05.02.2017 06:02 4,2 C 77 % 1006,9 hPa 0,0 l/m 10,0 km/h (2 Bft) SW 214 0 min 0,000 mm 0,0 UV-I 0 W/m 0,5 C 1,2 C 12,9 km/h (3 Bft) 97,56 %
05.02.2017 06:04 4,2 C 77 % 1006,9 hPa 0,0 l/m 8,0 km/h (2 Bft) S-SW 207 0 min 0,000 mm 0,0 UV-I 0 W/m 0,5 C 2,8 C 11,3 km/h (2 Bft) 100,00 %
05.02.2017 06:06 4,2 C 77 % 1006,9 hPa 0,0 l/m 7,8 km/h (2 Bft) S-SW 213 0 min 0,000 mm 0,0 UV-I 0 W/m 0,5 C 2,9 C 11,3 km/h (2 Bft) 100,00 %
05.02.2017 06:08 4,1 C 77 % 1006,9 hPa 0,0 l/m 6,3 km/h (2 Bft) S-SW 213 0 min 0,000 mm 0,0 UV-I 0 W/m 0,4 C 4,1 C 11,3 km/h (2 Bft) 100,00 %
05.02.2017 06:10 3,9 C 77 % 1006,9 hPa 0,0 l/m 8,2 km/h (2 Bft) S-SW 211 0 min 0,000 mm 0,0 UV-I 0 W/m 0,2 C 2,3 C 12,9 km/h (3 Bft) 96,23 %
05.02.2017 06:12 3,9 C 77 % 1006,9 hPa 0,0 l/m 6,3 km/h (2 Bft) S-SW 207 0 min 0,000 mm 0,0 UV-I 0 W/m 0,2 C 3,9 C 11,3 km/h (2 Bft) 97,56 %
05.02.2017 06:14 3,9 C 77 % 1006,8 hPa 0,0 l/m 6,2 km/h (2 Bft) SW 218 0 min 0,000 mm 0,0 UV-I 0 W/m 0,2 C 3,9 C 9,7 km/h (2 Bft) 96,23 %
05.02.2017 06:16 3,9 C 77 % 1006,8 hPa 0,0 l/m 5,6 km/h (1 Bft) S-SW 211 0 min 0,000 mm 0,0 UV-I 0 W/m 0,2 C 3,9 C 8,0 km/h (2 Bft) 97,87 %
05.02.2017 06:18 3,8 C 77 % 1006,8 hPa 0,0 l/m 6,8 km/h (2 Bft) SW 222 0 min 0,000 mm 0,0 UV-I 0 W/m 0,1 C 3,4 C 9,7 km/h (2 Bft) 93,18 %
05.02.2017 06:20 3,8 C 77 % 1006,8 hPa 0,0 l/m 5,7 km/h (1 Bft) W-SW 243 0 min 0,000 mm 0,0 UV-I 0 W/m 0,1 C 3,8 C 9,7 km/h (2 Bft) 96,00 %
05.02.2017 06:22 3,7 C 78 % 1006,9 hPa 0,0 l/m 5,6 km/h (1 Bft) SW 222 0 min 0,000 mm 0,0 UV-I 0 W/m 0,2 C 3,7 C 8,0 km/h (2 Bft) 96,00 %
05.02.2017 06:24 3,7 C 78 % 1006,8 hPa 0,0 l/m 6,1 km/h (2 Bft) SW 235 0 min 0,000 mm 0,0 UV-I 0 W/m 0,2 C 3,7 C 9,7 km/h (2 Bft) 97,44 %
05.02.2017 06:26 3,6 C 78 % 1006,9 hPa 0,0 l/m 6,4 km/h (2 Bft) S-SW 204 0 min 0,000 mm 0,0 UV-I 0 W/m 0,1 C 3,6 C 11,3 km/h (2 Bft) 94,34 %
05.02.2017 06:28 3,5 C 79 % 1006,9 hPa 0,0 l/m 7,3 km/h (2 Bft) S-SW 207 0 min 0,000 mm 0,0 UV-I 0 W/m 0,2 C 2,7 C 9,7 km/h (2 Bft) 95,00 %
05.02.2017 06:30 3,4 C 79 % 1006,9 hPa 0,0 l/m 6,0 km/h (2 Bft) S-SW 213 0 min 0,000 mm 0,0 UV-I 0 W/m 0,1 C 3,4 C 8,0 km/h (2 Bft) 96,00 %
05.02.2017 06:32 3,4 C 79 % 1006,9 hPa 0,0 l/m 6,1 km/h (2 Bft) SW 217 0 min 0,000 mm 0,0 UV-I 0 W/m 0,1 C 3,4 C 11,3 km/h (2 Bft) 96,00 %
05.02.2017 06:34 3,3 C 79 % 1006,9 hPa 0,0 l/m 8,5 km/h (2 Bft) SW 223 0 min 0,000 mm 0,0 UV-I 0 W/m 0,0 C 1,4 C 11,3 km/h (2 Bft) 97,37 %
05.02.2017 06:36 3,3 C 79 % 1007,0 hPa 0,0 l/m 4,0 km/h (1 Bft) SW 215 0 min 0,000 mm 0,0 UV-I 0 W/m 0,0 C 3,3 C 8,0 km/h (2 Bft) 96,08 %
05.02.2017 06:38 3,3 C 79 % 1007,0 hPa 0,0 l/m 6,4 km/h (2 Bft) SW 215 0 min 0,000 mm 0,0 UV-I 0 W/m 0,0 C 3,3 C 9,7 km/h (2 Bft) 95,45 %
05.02.2017 06:40 3,2 C 80 % 1007,0 hPa 0,0 l/m 5,5 km/h (1 Bft) S-SW 209 0 min 0,000 mm 0,0 UV-I 0 W/m 0,1 C 3,2 C 9,7 km/h (2 Bft) 98,00 %
05.02.2017 06:42 3,1 C 80 % 1007,0 hPa 0,0 l/m 5,2 km/h (1 Bft) S-SW 202 0 min 0,000 mm 0,0 UV-I 0 W/m -0,0 C 3,1 C 8,0 km/h (2 Bft) 94,00 %
05.02.2017 06:44 3,0 C 81 % 1007,0 hPa 0,0 l/m 7,1 km/h (2 Bft) SW 225 0 min 0,000 mm 0,0 UV-I 0 W/m 0,1 C 2,3 C 9,7 km/h (2 Bft) 97,56 %
05.02.2017 06:46 3,1 C 80 % 1007,0 hPa 0,0 l/m 7,7 km/h (2 Bft) SW 215 0 min 0,000 mm 0,0 UV-I 0 W/m -0,0 C 1,9 C 12,9 km/h (3 Bft) 95,74 %
05.02.2017 06:48 3,1 C 80 % 1007,0 hPa 0,0 l/m 6,9 km/h (2 Bft) SW 215 0 min 0,000 mm 0,0 UV-I 0 W/m -0,0 C 2,6 C 9,7 km/h (2 Bft) 95,74 %
05.02.2017 06:50 3,1 C 80 % 1007,0 hPa 0,0 l/m 6,7 km/h (2 Bft) SW 214 0 min 0,000 mm 0,0 UV-I 0 W/m -0,0 C 2,8 C 11,3 km/h (2 Bft) 96,00 %
05.02.2017 06:52 3,0 C 80 % 1007,0 hPa 0,0 l/m 8,4 km/h (2 Bft) S-SW 209 0 min 0,000 mm 0,0 UV-I 0 W/m -0,1 C 1,2 C 12,9 km/h (3 Bft) 94,74 %
05.02.2017 06:54 2,9 C 80 % 1007,1 hPa 0,0 l/m 6,5 km/h (2 Bft) SW 215 0 min 0,000 mm 0,0 UV-I 0 W/m -0,2 C 2,8 C 9,7 km/h (2 Bft) 100,00 %
05.02.2017 06:56 2,9 C 81 % 1007,0 hPa 0,0 l/m 5,5 km/h (1 Bft) SW 219 0 min 0,000 mm 0,0 UV-I 0 W/m -0,0 C 2,9 C 9,7 km/h (2 Bft) 97,78 %
05.02.2017 06:58 2,8 C 81 % 1007,0 hPa 0,0 l/m 7,6 km/h (2 Bft) S-SW 209 0 min 0,000 mm 0,0 UV-I 0 W/m -0,1 C 1,7 C 11,3 km/h (2 Bft) 98,08 %
05.02.2017 07:00 2,8 C 81 % 1007,0 hPa 0,0 l/m 9,0 km/h (2 Bft) S-SW 205 0 min 0,026 mm 0,0 UV-I 0 W/m -0,1 C 0,4 C 14,5 km/h (3 Bft) 95,74 %
05.02.2017 07:02 3,0 C 80 % 1007,0 hPa 0,0 l/m 11,3 km/h (2 Bft) SW 233 0 min 0,000 mm 0,0 UV-I 0 W/m -0,1 C -1,1 C 16,1 km/h (3 Bft) 95,83 %
05.02.2017 07:04 3,1 C 80 % 1007,0 hPa 0,0 l/m 9,2 km/h (2 Bft) SW 232 0 min 0,000 mm 0,0 UV-I 0 W/m -0,0 C 0,6 C 11,3 km/h (2 Bft) 93,62 %
05.02.2017 07:06 3,1 C 79 % 1007,0 hPa 0,0 l/m 8,8 km/h (2 Bft) S-SW 207 0 min 0,000 mm 0,0 UV-I 0 W/m -0,2 C 0,9 C 14,5 km/h (3 Bft) 97,73 %
05.02.2017 07:08 3,2 C 78 % 1007,0 hPa 0,0 l/m 7,3 km/h (2 Bft) SW 220 0 min 0,000 mm 0,0 UV-I 0 W/m -0,3 C 2,4 C 11,3 km/h (2 Bft) 100,00 %
05.02.2017 07:10 3,2 C 78 % 1007,0 hPa 0,0 l/m 8,7 km/h (2 Bft) S-SW 209 0 min 0,000 mm 0,0 UV-I 0 W/m -0,3 C 1,1 C 12,9 km/h (3 Bft) 90,24 %
05.02.2017 07:12 3,2 C 78 % 1007,0 hPa 0,0 l/m 9,3 km/h (2 Bft) SW 221 0 min 0,000 mm 0,0 UV-I 1 W/m -0,3 C 0,6 C 16,1 km/h (3 Bft) 100,00 %
05.02.2017 07:14 3,2 C 78 % 1007,0 hPa 0,0 l/m 10,6 km/h (2 Bft) SW 215 0 min 0,000 mm 0,0 UV-I 5 W/m -0,3 C -0,4 C 14,5 km/h (3 Bft) 97,56 %
05.02.2017 07:16 3,2 C 77 % 1007,0 hPa 0,0 l/m 12,8 km/h (3 Bft) S 189 0 min 0,000 mm 0,0 UV-I 5 W/m -0,4 C -1,8 C 17,7 km/h (3 Bft) 87,23 %
05.02.2017 07:18 3,3 C 77 % 1007,1 hPa 0,0 l/m 12,3 km/h (3 Bft) S-SW 205 0 min 0,000 mm 0,0 UV-I 5 W/m -0,3 C -1,4 C 19,3 km/h (3 Bft) 95,74 %
05.02.2017 07:20 3,3 C 76 % 1007,0 hPa 0,0 l/m 13,4 km/h (3 Bft) S-SW 199 0 min 0,000 mm 0,0 UV-I 7 W/m -0,5 C -2,1 C 20,9 km/h (4 Bft) 92,45 %
05.02.2017 07:22 3,4 C 76 % 1007,1 hPa 0,0 l/m 13,5 km/h (3 Bft) SW 221 0 min 0,000 mm 0,0 UV-I 7 W/m -0,4 C -2,0 C 20,9 km/h (4 Bft) 92,68 %
05.02.2017 07:24 3,4 C 76 % 1007,1 hPa 0,0 l/m 12,7 km/h (3 Bft) SW 220 0 min 0,000 mm 0,0 UV-I 7 W/m -0,4 C -1,5 C 17,7 km/h (3 Bft) 96,00 %
05.02.2017 07:26 3,6 C 75 % 1007,1 hPa 0,0 l/m 13,8 km/h (3 Bft) S-SW 202 0 min 0,000 mm 0,0 UV-I 9 W/m -0,4 C -2,0 C 19,3 km/h (3 Bft) 100,00 %
05.02.2017 07:28 3,6 C 75 % 1007,1 hPa 0,0 l/m 11,5 km/h (2 Bft) S-SW 211 0 min 0,000 mm 0,0 UV-I 9 W/m -0,4 C -0,5 C 16,1 km/h (3 Bft) 96,00 %
05.02.2017 07:30 3,6 C 74 % 1007,1 hPa 0,0 l/m 11,6 km/h (2 Bft) S-SW 199 0 min 0,000 mm 0,0 UV-I 11 W/m -0,6 C -0,6 C 14,5 km/h (3 Bft) 100,00 %
05.02.2017 07:32 3,6 C 74 % 1007,1 hPa 0,0 l/m 10,4 km/h (2 Bft) S-SW 206 0 min 0,000 mm 0,0 UV-I 11 W/m -0,6 C 0,2 C 16,1 km/h (3 Bft) 97,87 %
05.02.2017 07:34 3,6 C 74 % 1007,1 hPa 0,0 l/m 8,4 km/h (2 Bft) SW 221 0 min 0,000 mm 0,0 UV-I 12 W/m -0,6 C 1,8 C 12,9 km/h (3 Bft) 97,22 %
05.02.2017 07:36 3,5 C 74 % 1007,1 hPa 0,0 l/m 10,5 km/h (2 Bft) SW 223 0 min 0,000 mm 0,0 UV-I 13 W/m -0,7 C 0,1 C 16,1 km/h (3 Bft) 98,21 %
05.02.2017 07:38 3,6 C 74 % 1007,1 hPa 0,0 l/m 11,1 km/h (2 Bft) S-SW 209 2 min 0,000 mm 0,0 UV-I 14 W/m -0,6 C -0,3 C 17,7 km/h (3 Bft) 100,00 %
05.02.2017 07:40 3,7 C 74 % 1007,2 hPa 0,0 l/m 13,5 km/h (3 Bft) S-SW 192 2 min 0,000 mm 0,0 UV-I 14 W/m -0,5 C -1,7 C 19,3 km/h (3 Bft) 92,86 %
05.02.2017 07:42 3,7 C 73 % 1007,2 hPa 0,0 l/m 11,0 km/h (2 Bft) W-SW 251 2 min 0,000 mm 0,0 UV-I 16 W/m -0,7 C -0,1 C 16,1 km/h (3 Bft) 96,00 %
05.02.2017 07:44 3,8 C 73 % 1007,2 hPa 0,0 l/m 10,4 km/h (2 Bft) SW 227 0 min 0,000 mm 0,0 UV-I 16 W/m -0,6 C 0,5 C 19,3 km/h (3 Bft) 98,00 %
05.02.2017 07:46 3,7 C 73 % 1007,2 hPa 0,0 l/m 12,5 km/h (3 Bft) W-SW 238 0 min 0,000 mm 0,0 UV-I 18 W/m -0,7 C -1,1 C 16,1 km/h (3 Bft) 95,74 %
05.02.2017 07:48 3,6 C 73 % 1007,2 hPa 0,0 l/m 12,1 km/h (2 Bft) SW 236 0 min 0,000 mm 0,0 UV-I 18 W/m -0,8 C -0,9 C 17,7 km/h (3 Bft) 93,62 %
05.02.2017 07:50 3,5 C 74 % 1007,2 hPa 0,0 l/m 10,5 km/h (2 Bft) SW 223 0 min 0,000 mm 0,0 UV-I 19 W/m -0,7 C 0,1 C 16,1 km/h (3 Bft) 100,00 %
05.02.2017 07:52 3,4 C 74 % 1007,2 hPa 0,0 l/m 7,4 km/h (2 Bft) SW 227 0 min 0,000 mm 0,0 UV-I 19 W/m -0,8 C 2,5 C 11,3 km/h (2 Bft) 100,00 %
05.02.2017 07:54 3,4 C 74 % 1007,2 hPa 0,0 l/m 7,4 km/h (2 Bft) SW 218 0 min 0,000 mm 0,0 UV-I 25 W/m -0,8 C 2,5 C 12,9 km/h (3 Bft) 93,18 %
05.02.2017 07:56 3,4 C 74 % 1007,1 hPa 0,0 l/m 7,5 km/h (2 Bft) SW 219 2 min 0,000 mm 0,0 UV-I 45 W/m -0,8 C 2,4 C 11,3 km/h (2 Bft) 92,68 %
05.02.2017 07:58 3,3 C 75 % 1007,1 hPa 0,0 l/m 8,7 km/h (2 Bft) W-SW 241 2 min 0,000 mm 0,0 UV-I 64 W/m -0,7 C 1,2 C 12,9 km/h (3 Bft) 96,00 %
05.02.2017 08:00 3,3 C 75 % 1007,1 hPa 0,0 l/m 9,4 km/h (2 Bft) SW 218 2 min 0,025 mm 0,0 UV-I 70 W/m -0,7 C 0,7 C 16,1 km/h (3 Bft) 95,12 %
05.02.2017 08:02 3,3 C 75 % 1007,1 hPa 0,0 l/m 8,6 km/h (2 Bft) SW 232 2 min 0,000 mm 0,0 UV-I 74 W/m -0,7 C 1,3 C 14,5 km/h (3 Bft) 98,21 %
05.02.2017 08:04 3,3 C 74 % 1007,1 hPa 0,0 l/m 7,2 km/h (2 Bft) S-SW 208 2 min 0,000 mm 0,0 UV-I 79 W/m -0,9 C 2,5 C 9,7 km/h (2 Bft) 93,10 %
05.02.2017 08:06 3,3 C 74 % 1007,1 hPa 0,0 l/m 9,4 km/h (2 Bft) S-SW 206 2 min 0,000 mm 0,0 UV-I 84 W/m -0,9 C 0,7 C 12,9 km/h (3 Bft) 97,06 %
05.02.2017 08:08 3,5 C 74 % 1007,1 hPa 0,0 l/m 9,1 km/h (2 Bft) S-SW 202 2 min 0,000 mm 0,0 UV-I 89 W/m -0,7 C 1,1 C 12,9 km/h (3 Bft) 100,00 %
05.02.2017 08:10 3,5 C 74 % 1007,2 hPa 0,0 l/m 7,1 km/h (2 Bft) SW 226 2 min 0,000 mm 0,0 UV-I 93 W/m -0,7 C 2,8 C 9,7 km/h (2 Bft) 100,00 %
05.02.2017 08:12 3,5 C 74 % 1007,1 hPa 0,0 l/m 7,0 km/h (2 Bft) S-SW 202 2 min 0,000 mm 0,0 UV-I 97 W/m -0,7 C 2,9 C 9,7 km/h (2 Bft) 100,00 %
05.02.2017 08:14 3,4 C 74 % 1007,2 hPa 0,0 l/m 4,2 km/h (1 Bft) SW 223 2 min 0,000 mm 0,0 UV-I 101 W/m -0,8 C 3,4 C 6,4 km/h (2 Bft) 91,43 %
05.02.2017 08:16 3,4 C 74 % 1007,2 hPa 0,0 l/m 4,7 km/h (1 Bft) W 262 2 min 0,000 mm 0,0 UV-I 107 W/m -0,8 C 3,4 C 8,0 km/h (2 Bft) 98,21 %
05.02.2017 08:18 3,3 C 75 % 1007,2 hPa 0,0 l/m 2,8 km/h (1 Bft) W 263 2 min 0,000 mm 0,0 UV-I 111 W/m -0,7 C 3,3 C 4,8 km/h (1 Bft) 95,45 %
05.02.2017 08:20 3,3 C 75 % 1007,3 hPa 0,0 l/m 4,8 km/h (1 Bft) W 270 2 min 0,000 mm 0,0 UV-I 115 W/m -0,7 C 3,3 C 9,7 km/h (2 Bft) 100,00 %
05.02.2017 08:22 3,3 C 75 % 1007,3 hPa 0,0 l/m 5,5 km/h (1 Bft) W-SW 248 2 min 0,000 mm 0,0 UV-I 120 W/m -0,7 C 3,3 C 8,0 km/h (2 Bft) 97,62 %
05.02.2017 08:24 3,3 C 75 % 1007,3 hPa 0,0 l/m 5,1 km/h (1 Bft) S-SW 209 2 min 0,000 mm 0,0 UV-I 125 W/m -0,7 C 3,3 C 8,0 km/h (2 Bft) 100,00 %
05.02.2017 08:26 3,3 C 75 % 1007,2 hPa 0,0 l/m 7,2 km/h (2 Bft) SW 215 2 min 0,000 mm 0,0 UV-I 129 W/m -0,7 C 2,5 C 12,9 km/h (3 Bft) 100,00 %
05.02.2017 08:28 3,3 C 75 % 1007,2 hPa 0,0 l/m 4,0 km/h (1 Bft) SW 227 2 min 0,000 mm 0,0 UV-I 134 W/m -0,7 C 3,3 C 6,4 km/h (2 Bft) 97,37 %
05.02.2017 08:30 3,3 C 75 % 1007,3 hPa 0,0 l/m 5,5 km/h (1 Bft) SW 222 2 min 0,000 mm 0,0 UV-I 139 W/m -0,7 C 3,3 C 8,0 km/h (2 Bft) 96,00 %
05.02.2017 08:32 3,5 C 74 % 1007,3 hPa 0,0 l/m 5,6 km/h (1 Bft) S-SW 203 2 min 0,000 mm 0,0 UV-I 144 W/m -0,7 C 3,5 C 9,7 km/h (2 Bft) 100,00 %
05.02.2017 08:34 3,6 C 74 % 1007,2 hPa 0,0 l/m 6,7 km/h (2 Bft) S-SW 209 2 min 0,000 mm 0,0 UV-I 148 W/m -0,6 C 3,3 C 11,3 km/h (2 Bft) 100,00 %
05.02.2017 08:36 3,5 C 73 % 1007,3 hPa 0,0 l/m 5,7 km/h (1 Bft) S-SW 210 2 min 0,000 mm 0,0 UV-I 153 W/m -0,9 C 3,5 C 8,0 km/h (2 Bft) 97,73 %
05.02.2017 08:38 3,4 C 74 % 1007,3 hPa 0,0 l/m 5,9 km/h (2 Bft) SW 226 2 min 0,000 mm 0,0 UV-I 157 W/m -0,8 C 3,4 C 9,7 km/h (2 Bft) 98,00 %
05.02.2017 08:40 3,4 C 74 % 1007,3 hPa 0,0 l/m 3,6 km/h (1 Bft) SW 226 2 min 0,000 mm 0,0 UV-I 162 W/m -0,8 C 3,4 C 4,8 km/h (1 Bft) 98,00 %
05.02.2017 08:42 3,5 C 74 % 1007,2 hPa 0,0 l/m 3,3 km/h (1 Bft) SW 215 2 min 0,000 mm 0,0 UV-I 167 W/m -0,7 C 3,5 C 4,8 km/h (1 Bft) 94,74 %
05.02.2017 08:44 3,6 C 74 % 1007,2 hPa 0,0 l/m 4,3 km/h (1 Bft) SW 215 2 min 0,000 mm 0,0 UV-I 171 W/m -0,6 C 3,6 C 6,4 km/h (2 Bft) 96,23 %
05.02.2017 08:46 3,8 C 73 % 1007,2 hPa 0,0 l/m 3,7 km/h (1 Bft) S-SW 213 2 min 0,000 mm 0,0 UV-I 177 W/m -0,6 C 3,8 C 6,4 km/h (2 Bft) 96,00 %
05.02.2017 08:48 3,8 C 73 % 1007,2 hPa 0,0 l/m 4,0 km/h (1 Bft) S-SW 211 2 min 0,000 mm 0,0 UV-I 182 W/m -0,6 C 3,8 C 8,0 km/h (2 Bft) 98,00 %
05.02.2017 08:50 3,7 C 73 % 1007,1 hPa 0,0 l/m 3,5 km/h (1 Bft) S-SW 211 2 min 0,000 mm 0,0 UV-I 186 W/m -0,7 C 3,7 C 6,4 km/h (2 Bft) 97,37 %
05.02.2017 08:52 3,8 C 73 % 1007,2 hPa 0,0 l/m 3,3 km/h (1 Bft) S-SW 211 2 min 0,000 mm 0,0 UV-I 192 W/m -0,6 C 3,8 C 6,4 km/h (2 Bft) 97,56 %
05.02.2017 08:54 3,8 C 73 % 1007,1 hPa 0,0 l/m 2,9 km/h (1 Bft) S-SW 211 2 min 0,000 mm 0,0 UV-I 195 W/m -0,6 C 3,8 C 4,8 km/h (1 Bft) 98,00 %
05.02.2017 08:56 3,9 C 72 % 1007,1 hPa 0,0 l/m 3,0 km/h (1 Bft) S-SW 211 2 min 0,000 mm 0,0 UV-I 200 W/m -0,7 C 3,9 C 4,8 km/h (1 Bft) 94,00 %
05.02.2017 08:58 4,1 C 72 % 1007,0 hPa 0,0 l/m 4,2 km/h (1 Bft) S-SW 210 2 min 0,000 mm 0,0 UV-I 206 W/m -0,5 C 4,1 C 6,4 km/h (2 Bft) 95,74 %
05.02.2017 09:00 4,1 C 72 % 1007,0 hPa 0,0 l/m 3,5 km/h (1 Bft) S-SW 209 2 min 0,076 mm 0,0 UV-I 210 W/m -0,5 C 4,1 C 4,8 km/h (1 Bft) 93,62 %
05.02.2017 09:02 4,1 C 71 % 1007,0 hPa 0,0 l/m 4,4 km/h (1 Bft) S 178 2 min 0,000 mm 0,0 UV-I 215 W/m -0,7 C 4,1 C 6,4 km/h (2 Bft) 97,22 %
05.02.2017 09:04 4,2 C 71 % 1007,0 hPa 0,0 l/m 6,8 km/h (2 Bft) SW 220 2 min 0,000 mm 0,0 UV-I 219 W/m -0,6 C 3,8 C 9,7 km/h (2 Bft) 98,11 %
05.02.2017 09:06 4,4 C 70 % 1006,9 hPa 0,0 l/m 6,2 km/h (2 Bft) S-SW 205 2 min 0,000 mm 0,0 UV-I 225 W/m -0,6 C 4,4 C 9,7 km/h (2 Bft) 98,11 %
05.02.2017 09:08 4,4 C 70 % 1006,9 hPa 0,0 l/m 6,1 km/h (2 Bft) S 191 2 min 0,000 mm 0,0 UV-I 230 W/m -0,6 C 4,4 C 8,0 km/h (2 Bft) 95,45 %
05.02.2017 09:10 4,5 C 69 % 1006,9 hPa 0,0 l/m 5,9 km/h (2 Bft) S 190 2 min 0,000 mm 0,0 UV-I 235 W/m -0,7 C 4,5 C 9,7 km/h (2 Bft) 100,00 %
05.02.2017 09:12 4,6 C 69 % 1006,9 hPa 0,0 l/m 5,8 km/h (2 Bft) S-SW 199 2 min 0,000 mm 0,0 UV-I 240 W/m -0,6 C 4,6 C 9,7 km/h (2 Bft) 100,00 %
05.02.2017 09:14 4,7 C 69 % 1006,9 hPa 0,0 l/m 6,6 km/h (2 Bft) S-SW 205 2 min 0,000 mm 0,0 UV-I 244 W/m -0,5 C 4,5 C 8,0 km/h (2 Bft) 97,87 %
05.02.2017 09:16 4,7 C 69 % 1006,9 hPa 0,0 l/m 6,6 km/h (2 Bft) SW 215 2 min 0,000 mm 0,0 UV-I 250 W/m -0,5 C 4,5 C 11,3 km/h (2 Bft) 100,00 %
05.02.2017 09:18 4,8 C 69 % 1006,8 hPa 0,0 l/m 6,1 km/h (2 Bft) SW 225 2 min 0,000 mm 0,0 UV-I 253 W/m -0,4 C 4,8 C 8,0 km/h (2 Bft) 94,00 %
05.02.2017 09:20 4,9 C 68 % 1006,8 hPa 0,0 l/m 5,6 km/h (1 Bft) S-SW 213 2 min 0,000 mm 0,0 UV-I 258 W/m -0,5 C 4,9 C 8,0 km/h (2 Bft) 96,00 %
05.02.2017 09:22 5,0 C 68 % 1006,9 hPa 0,0 l/m 6,9 km/h (2 Bft) SW 215 2 min 0,000 mm 0,0 UV-I 262 W/m -0,4 C 4,6 C 12,9 km/h (3 Bft) 97,73 %
05.02.2017 09:24 5,1 C 67 % 1006,8 hPa 0,0 l/m 5,2 km/h (1 Bft) SW 218 2 min 0,000 mm 0,0 UV-I 266 W/m -0,5 C 5,1 C 9,7 km/h (2 Bft) 95,45 %
05.02.2017 09:26 5,3 C 67 % 1006,9 hPa 0,0 l/m 6,6 km/h (2 Bft) SW 214 2 min 0,000 mm 0,0 UV-I 271 W/m -0,3 C 5,1 C 9,7 km/h (2 Bft) 98,00 %
05.02.2017 09:28 5,4 C 66 % 1006,9 hPa 0,0 l/m 5,8 km/h (2 Bft) S-SW 208 2 min 0,000 mm 0,0 UV-I 276 W/m -0,4 C 5,4 C 8,0 km/h (2 Bft) 100,00 %
05.02.2017 09:30 5,4 C 66 % 1006,9 hPa 0,0 l/m 5,4 km/h (1 Bft) SW 226 2 min 0,000 mm 0,0 UV-I 280 W/m -0,4 C 5,4 C 8,0 km/h (2 Bft) 97,37 %
05.02.2017 09:32 5,4 C 65 % 1006,9 hPa 0,0 l/m 5,2 km/h (1 Bft) W-SW 243 2 min 0,000 mm 0,5 UV-I 284 W/m -0,6 C 5,4 C 8,0 km/h (2 Bft) 100,00 %
05.02.2017 09:34 5,5 C 65 % 1007,0 hPa 0,0 l/m 6,7 km/h (2 Bft) W-SW 246 2 min 0,000 mm 0,5 UV-I 288 W/m -0,5 C 5,3 C 11,3 km/h (2 Bft) 96,23 %
05.02.2017 09:36 5,5 C 65 % 1007,0 hPa 0,0 l/m 6,7 km/h (2 Bft) S-SW 204 2 min 0,000 mm 0,5 UV-I 293 W/m -0,5 C 5,3 C 9,7 km/h (2 Bft) 100,00 %
05.02.2017 09:38 5,6 C 65 % 1007,0 hPa 0,0 l/m 7,0 km/h (2 Bft) SW 215 2 min 0,000 mm 0,5 UV-I 298 W/m -0,4 C 5,1 C 9,7 km/h (2 Bft) 95,12 %
05.02.2017 09:40 5,7 C 65 % 1007,0 hPa 0,0 l/m 4,9 km/h (1 Bft) SW 225 2 min 0,000 mm 0,5 UV-I 303 W/m -0,4 C 5,7 C 8,0 km/h (2 Bft) 98,11 %
05.02.2017 09:42 5,8 C 64 % 1007,0 hPa 0,0 l/m 5,3 km/h (1 Bft) S-SW 213 2 min 0,000 mm 0,5 UV-I 307 W/m -0,5 C 5,8 C 9,7 km/h (2 Bft) 97,22 %
05.02.2017 09:44 5,9 C 64 % 1006,9 hPa 0,0 l/m 7,2 km/h (2 Bft) S-SW 200 2 min 0,000 mm 0,5 UV-I 310 W/m -0,4 C 5,2 C 11,3 km/h (2 Bft) 100,00 %
05.02.2017 09:46 5,9 C 63 % 1006,9 hPa 0,0 l/m 6,8 km/h (2 Bft) S-SW 205 2 min 0,000 mm 0,6 UV-I 314 W/m -0,6 C 5,6 C 9,7 km/h (2 Bft) 100,00 %
05.02.2017 09:49 6,1 C 63 % 1007,0 hPa 0,0 l/m 6,9 km/h (2 Bft) SW 224 3 min 0,000 mm 0,6 UV-I 320 W/m -0,4 C 5,7 C 11,3 km/h (2 Bft) 98,68 %
05.02.2017 09:50 6,0 C 63 % 1006,9 hPa 0,0 l/m 8,1 km/h (2 Bft) SW 235 1 min 0,000 mm 0,6 UV-I 323 W/m -0,5 C 4,6 C 9,7 km/h (2 Bft) 100,00 %
05.02.2017 09:52 6,0 C 63 % 1006,8 hPa 0,0 l/m 7,2 km/h (2 Bft) SW 234 2 min 0,000 mm 0,6 UV-I 327 W/m -0,5 C 5,3 C 11,3 km/h (2 Bft) 95,45 %
05.02.2017 09:54 6,0 C 63 % 1006,8 hPa 0,0 l/m 4,8 km/h (1 Bft) SW 232 2 min 0,000 mm 0,6 UV-I 330 W/m -0,5 C 6,0 C 6,4 km/h (2 Bft) 94,00 %
05.02.2017 09:56 6,1 C 63 % 1006,8 hPa 0,0 l/m 4,4 km/h (1 Bft) W-SW 240 2 min 0,000 mm 0,6 UV-I 334 W/m -0,4 C 6,1 C 6,4 km/h (2 Bft) 96,00 %
05.02.2017 09:58 6,2 C 62 % 1006,8 hPa 0,0 l/m 5,6 km/h (1 Bft) W 265 2 min 0,000 mm 0,6 UV-I 338 W/m -0,5 C 6,2 C 11,3 km/h (2 Bft) 97,87 %
05.02.2017 10:00 6,3 C 62 % 1006,7 hPa 0,0 l/m 5,0 km/h (1 Bft) W 281 2 min 0,127 mm 0,7 UV-I 342 W/m -0,4 C 6,3 C 9,7 km/h (2 Bft) 98,11 %
05.02.2017 10:02 6,3 C 62 % 1006,7 hPa 0,0 l/m 4,6 km/h (1 Bft) S-SW 209 2 min 0,000 mm 0,7 UV-I 345 W/m -0,4 C 6,3 C 6,4 km/h (2 Bft) 94,74 %
05.02.2017 10:04 6,4 C 62 % 1006,7 hPa 0,0 l/m 5,0 km/h (1 Bft) W-SW 242 2 min 0,000 mm 0,7 UV-I 347 W/m -0,3 C 6,4 C 6,4 km/h (2 Bft) 94,34 %
05.02.2017 10:06 6,4 C 61 % 1006,7 hPa 0,0 l/m 3,6 km/h (1 Bft) SW 221 2 min 0,000 mm 0,7 UV-I 352 W/m -0,6 C 6,4 C 6,4 km/h (2 Bft) 97,37 %
05.02.2017 10:08 6,4 C 61 % 1006,6 hPa 0,0 l/m 5,2 km/h (1 Bft) W-SW 244 2 min 0,000 mm 0,7 UV-I 357 W/m -0,6 C 6,4 C 8,0 km/h (2 Bft) 98,00 %
05.02.2017 10:10 6,5 C 61 % 1006,6 hPa 0,0 l/m 4,3 km/h (1 Bft) SW 217 2 min 0,000 mm 0,7 UV-I 360 W/m -0,5 C 6,5 C 6,4 km/h (2 Bft) 94,00 %
05.02.2017 10:12 6,5 C 61 % 1006,6 hPa 0,0 l/m 4,1 km/h (1 Bft) W-SW 252 2 min 0,000 mm 0,7 UV-I 364 W/m -0,5 C 6,5 C 6,4 km/h (2 Bft) 93,62 %
05.02.2017 10:14 6,6 C 60 % 1006,5 hPa 0,0 l/m 2,4 km/h (1 Bft) W-SW 252 2 min 0,000 mm 0,8 UV-I 367 W/m -0,6 C 6,6 C 6,4 km/h (2 Bft) 98,00 %
05.02.2017 10:16 6,5 C 61 % 1006,5 hPa 0,0 l/m 3,2 km/h (1 Bft) W-SW 248 2 min 0,000 mm 0,8 UV-I 371 W/m -0,5 C 6,5 C 4,8 km/h (1 Bft) 97,44 %
05.02.2017 10:18 6,6 C 61 % 1006,4 hPa 0,0 l/m 3,4 km/h (1 Bft) W-SW 240 2 min 0,000 mm 0,8 UV-I 374 W/m -0,4 C 6,6 C 4,8 km/h (1 Bft) 94,23 %
05.02.2017 10:20 6,4 C 60 % 1006,4 hPa 0,0 l/m 3,2 km/h (1 Bft) SW 229 2 min 0,000 mm 0,8 UV-I 379 W/m -0,8 C 6,4 C 4,8 km/h (1 Bft) 100,00 %
05.02.2017 10:22 6,5 C 60 % 1006,4 hPa 0,0 l/m 4,0 km/h (1 Bft) SW 219 2 min 0,000 mm 0,8 UV-I 382 W/m -0,7 C 6,5 C 6,4 km/h (2 Bft) 98,11 %
05.02.2017 10:24 6,5 C 60 % 1006,3 hPa 0,0 l/m 5,0 km/h (1 Bft) S-SW 205 2 min 0,000 mm 0,8 UV-I 385 W/m -0,7 C 6,5 C 6,4 km/h (2 Bft) 100,00 %
05.02.2017 10:26 6,6 C 60 % 1006,3 hPa 0,0 l/m 4,2 km/h (1 Bft) SW 232 2 min 0,000 mm 0,8 UV-I 388 W/m -0,6 C 6,6 C 6,4 km/h (2 Bft) 97,87 %
05.02.2017 10:28 6,6 C 61 % 1006,3 hPa 0,0 l/m 3,8 km/h (1 Bft) SW 215 2 min 0,000 mm 0,9 UV-I 391 W/m -0,4 C 6,6 C 6,4 km/h (2 Bft) 91,49 %
05.02.2017 10:30 6,6 C 61 % 1006,2 hPa 0,0 l/m 4,3 km/h (1 Bft) SW 215 2 min 0,000 mm 0,9 UV-I 395 W/m -0,4 C 6,6 C 6,4 km/h (2 Bft) 94,29 %
05.02.2017 10:32 6,7 C 61 % 1006,2 hPa 0,0 l/m 4,2 km/h (1 Bft) W 271 2 min 0,000 mm 0,9 UV-I 397 W/m -0,3 C 6,7 C 6,4 km/h (2 Bft) 96,23 %
05.02.2017 10:34 6,6 C 62 % 1006,2 hPa 0,0 l/m 2,0 km/h (1 Bft) W 271 2 min 0,000 mm 0,9 UV-I 401 W/m -0,1 C 6,6 C 3,2 km/h (1 Bft) 100,00 %
05.02.2017 10:36 6,6 C 61 % 1006,2 hPa 0,0 l/m 1,9 km/h (1 Bft) W 271 2 min 0,000 mm 0,9 UV-I 404 W/m -0,4 C 6,6 C 4,8 km/h (1 Bft) 97,37 %
05.02.2017 10:38 6,6 C 62 % 1006,2 hPa 0,0 l/m 1,6 km/h (1 Bft) W 271 2 min 0,000 mm 0,9 UV-I 406 W/m -0,1 C 6,6 C 3,2 km/h (1 Bft) 98,00 %
05.02.2017 10:40 6,7 C 61 % 1006,2 hPa 0,0 l/m 2,3 km/h (1 Bft) W 271 2 min 0,000 mm 0,9 UV-I 410 W/m -0,3 C 6,7 C 4,8 km/h (1 Bft) 100,00 %
05.02.2017 10:42 6,7 C 61 % 1006,2 hPa 0,0 l/m 2,5 km/h (1 Bft) W 267 2 min 0,000 mm 1,0 UV-I 412 W/m -0,3 C 6,7 C 4,8 km/h (1 Bft) 100,00 %
05.02.2017 10:44 6,8 C 61 % 1006,1 hPa 0,0 l/m 3,8 km/h (1 Bft) W-SW 255 2 min 0,000 mm 1,0 UV-I 415 W/m -0,2 C 6,8 C 6,4 km/h (2 Bft) 100,00 %
05.02.2017 10:46 7,0 C 60 % 1006,1 hPa 0,0 l/m 3,5 km/h (1 Bft) W-SW 239 2 min 0,000 mm 1,0 UV-I 417 W/m -0,2 C 7,0 C 6,4 km/h (2 Bft) 100,00 %
05.02.2017 10:48 7,1 C 59 % 1006,0 hPa 0,0 l/m 3,1 km/h (1 Bft) SW 236 2 min 0,000 mm 1,0 UV-I 420 W/m -0,4 C 7,1 C 4,8 km/h (1 Bft) 98,00 %
05.02.2017 10:50 7,2 C 58 % 1006,0 hPa 0,0 l/m 2,8 km/h (1 Bft) SW 236 2 min 0,000 mm 1,0 UV-I 423 W/m -0,5 C 7,2 C 4,8 km/h (1 Bft) 100,00 %
05.02.2017 10:52 7,3 C 58 % 1005,9 hPa 0,0 l/m 4,2 km/h (1 Bft) SW 236 2 min 0,000 mm 1,0 UV-I 425 W/m -0,4 C 7,3 C 6,4 km/h (2 Bft) 98,00 %
05.02.2017 10:54 7,3 C 59 % 1005,9 hPa 0,0 l/m 1,4 km/h (1 Bft) SW 236 2 min 0,000 mm 1,0 UV-I 428 W/m -0,2 C 7,3 C 3,2 km/h (1 Bft) 100,00 %
05.02.2017 10:56 7,3 C 59 % 1005,9 hPa 0,0 l/m 1,6 km/h (1 Bft) SW 236 2 min 0,000 mm 1,1 UV-I 430 W/m -0,2 C 7,3 C 3,2 km/h (1 Bft) 100,00 %
05.02.2017 10:58 7,3 C 59 % 1005,9 hPa 0,0 l/m 1,3 km/h (1 Bft) SW 236 2 min 0,000 mm 1,1 UV-I 432 W/m -0,2 C 7,3 C 3,2 km/h (1 Bft) 100,00 %
05.02.2017 11:00 7,5 C 58 % 1005,9 hPa 0,0 l/m 2,6 km/h (1 Bft) SW 236 2 min 0,000 mm 1,1 UV-I 435 W/m -0,2 C 7,5 C 4,8 km/h (1 Bft) 100,00 %
05.02.2017 11:02 7,6 C 57 % 1005,7 hPa 0,0 l/m 2,7 km/h (1 Bft) SW 236 2 min 0,178 mm 1,1 UV-I 437 W/m -0,4 C 7,6 C 4,8 km/h (1 Bft) 100,00 %
05.02.2017 11:04 7,5 C 55 % 1005,7 hPa 0,0 l/m 2,9 km/h (1 Bft) SW 236 2 min 0,000 mm 1,1 UV-I 439 W/m -0,9 C 7,5 C 4,8 km/h (1 Bft) 98,00 %
05.02.2017 11:06 7,6 C 55 % 1005,6 hPa 0,0 l/m 2,3 km/h (1 Bft) SW 236 2 min 0,000 mm 1,1 UV-I 442 W/m -0,9 C 7,6 C 3,2 km/h (1 Bft) 94,00 %
05.02.2017 11:09 7,6 C 56 % 1005,6 hPa 0,0 l/m 1,9 km/h (1 Bft) SW 236 3 min 0,000 mm 1,1 UV-I 445 W/m -0,6 C 7,6 C 4,8 km/h (1 Bft) 98,44 %
05.02.2017 11:10 7,6 C 54 % 1005,6 hPa 0,0 l/m 0,6 km/h (0 Bft) SW 236 1 min 0,000 mm 1,1 UV-I 448 W/m -1,1 C 7,6 C 1,6 km/h (1 Bft) 95,83 %
05.02.2017 11:12 7,7 C 54 % 1005,5 hPa 0,0 l/m 0,6 km/h (0 Bft) SW 236 2 min 0,000 mm 1,1 UV-I 448 W/m -1,0 C 7,7 C 1,6 km/h (1 Bft) 97,56 %
05.02.2017 11:14 7,5 C 54 % 1005,5 hPa 0,0 l/m 0,4 km/h (0 Bft) SW 236 2 min 0,000 mm 1,2 UV-I 451 W/m -1,2 C 7,5 C 1,6 km/h (1 Bft) 98,00 %
05.02.2017 11:16 7,4 C 57 % 1005,4 hPa 0,0 l/m 5,6 km/h (1 Bft) NO 41 2 min 0,000 mm 1,2 UV-I 450 W/m -0,5 C 7,4 C 14,5 km/h (3 Bft) 96,23 %
05.02.2017 11:18 7,0 C 59 % 1005,4 hPa 0,0 l/m 9,7 km/h (2 Bft) NO 46 2 min 0,000 mm 1,2 UV-I 455 W/m -0,5 C 4,5 C 11,3 km/h (2 Bft) 95,12 %
05.02.2017 11:20 6,8 C 60 % 1005,4 hPa 0,0 l/m 7,9 km/h (2 Bft) NO 35 2 min 0,000 mm 1,2 UV-I 458 W/m -0,4 C 5,6 C 11,3 km/h (2 Bft) 96,23 %
05.02.2017 11:22 6,7 C 61 % 1005,4 hPa 0,0 l/m 7,6 km/h (2 Bft) N-NO 33 2 min 0,000 mm 1,2 UV-I 461 W/m -0,3 C 5,7 C 9,7 km/h (2 Bft) 97,87 %
05.02.2017 11:24 6,7 C 61 % 1005,3 hPa 0,0 l/m 4,8 km/h (1 Bft) N-NO 32 2 min 0,000 mm 1,2 UV-I 458 W/m -0,3 C 6,7 C 6,4 km/h (2 Bft) 97,87 %
05.02.2017 11:26 6,7 C 60 % 1005,2 hPa 0,0 l/m 4,8 km/h (1 Bft) N-NO 28 2 min 0,000 mm 1,2 UV-I 449 W/m -0,5 C 6,7 C 6,4 km/h (2 Bft) 100,00 %
05.02.2017 11:29 6,7 C 61 % 1005,2 hPa 0,0 l/m 4,6 km/h (1 Bft) N-NO 24 3 min 0,000 mm 1,2 UV-I 453 W/m -0,3 C 6,7 C 8,0 km/h (2 Bft) 98,53 %
05.02.2017 11:30 6,7 C 61 % 1005,1 hPa 0,0 l/m 6,1 km/h (2 Bft) N-NO 22 1 min 0,000 mm 1,2 UV-I 428 W/m -0,3 C 6,7 C 8,0 km/h (2 Bft) 100,00 %
05.02.2017 11:32 6,6 C 62 % 1005,1 hPa 0,0 l/m 6,2 km/h (2 Bft) NO 42 2 min 0,000 mm 1,2 UV-I 425 W/m -0,1 C 6,6 C 8,0 km/h (2 Bft) 100,00 %
05.02.2017 11:34 6,6 C 62 % 1005,1 hPa 0,0 l/m 7,5 km/h (2 Bft) NO 41 2 min 0,000 mm 1,2 UV-I 441 W/m -0,1 C 5,7 C 11,3 km/h (2 Bft) 100,00 %
05.02.2017 11:36 6,6 C 62 % 1005,0 hPa 0,0 l/m 7,0 km/h (2 Bft) NO 51 2 min 0,000 mm 1,2 UV-I 456 W/m -0,1 C 6,1 C 9,7 km/h (2 Bft) 100,00 %
05.02.2017 11:38 6,5 C 62 % 1005,0 hPa 0,0 l/m 6,7 km/h (2 Bft) NO 40 2 min 0,000 mm 1,2 UV-I 467 W/m -0,2 C 6,3 C 9,7 km/h (2 Bft) 100,00 %
05.02.2017 11:40 6,5 C 62 % 1005,0 hPa 0,0 l/m 5,4 km/h (1 Bft) NO 40 2 min 0,000 mm 1,2 UV-I 473 W/m -0,2 C 6,5 C 8,0 km/h (2 Bft) 100,00 %
05.02.2017 11:42 6,6 C 62 % 1005,0 hPa 0,0 l/m 4,5 km/h (1 Bft) NO 34 2 min 0,000 mm 1,3 UV-I 480 W/m -0,1 C 6,6 C 6,4 km/h (2 Bft) 100,00 %
05.02.2017 11:44 6,7 C 61 % 1004,9 hPa 0,0 l/m 3,9 km/h (1 Bft) NO 34 2 min 0,000 mm 1,3 UV-I 485 W/m -0,3 C 6,7 C 6,4 km/h (2 Bft) 100,00 %
05.02.2017 11:46 6,7 C 61 % 1004,9 hPa 0,0 l/m 4,1 km/h (1 Bft) NO 34 2 min 0,000 mm 1,3 UV-I 490 W/m -0,3 C 6,7 C 6,4 km/h (2 Bft) 100,00 %
05.02.2017 11:49 6,8 C 60 % 1004,9 hPa 0,0 l/m 4,9 km/h (1 Bft) NO 42 3 min 0,000 mm 1,3 UV-I 490 W/m -0,4 C 6,8 C 6,4 km/h (2 Bft) 98,68 %
05.02.2017 11:50 6,9 C 59 % 1004,9 hPa 0,0 l/m 5,7 km/h (1 Bft) NO 42 1 min 0,000 mm 1,3 UV-I 489 W/m -0,5 C 6,9 C 8,0 km/h (2 Bft) 100,00 %
05.02.2017 11:52 6,9 C 59 % 1004,8 hPa 0,0 l/m 6,6 km/h (2 Bft) NO 40 2 min 0,000 mm 1,3 UV-I 486 W/m -0,5 C 6,8 C 8,0 km/h (2 Bft) 100,00 %
05.02.2017 11:54 6,9 C 60 % 1004,8 hPa 0,0 l/m 5,9 km/h (2 Bft) NO 42 2 min 0,000 mm 1,3 UV-I 483 W/m -0,3 C 6,9 C 8,0 km/h (2 Bft) 100,00 %
05.02.2017 11:56 6,8 C 60 % 1004,7 hPa 0,0 l/m 5,8 km/h (2 Bft) N-NO 16 2 min 0,000 mm 1,3 UV-I 482 W/m -0,4 C 6,8 C 8,0 km/h (2 Bft) 100,00 %
05.02.2017 11:58 6,8 C 60 % 1004,7 hPa 0,0 l/m 7,8 km/h (2 Bft) N-NO 19 2 min 0,000 mm 1,3 UV-I 482 W/m -0,4 C 5,6 C 9,7 km/h (2 Bft) 100,00 %
05.02.2017 12:00 6,8 C 61 % 1004,6 hPa 0,0 l/m 6,6 km/h (2 Bft) NO 34 2 min 0,000 mm 1,3 UV-I 483 W/m -0,2 C 6,7 C 8,0 km/h (2 Bft) 100,00 %
05.02.2017 12:02 6,8 C 61 % 1004,5 hPa 0,0 l/m 7,3 km/h (2 Bft) N-NO 24 2 min 0,229 mm 1,3 UV-I 485 W/m -0,2 C 6,1 C 9,7 km/h (2 Bft) 97,56 %
05.02.2017 12:04 6,8 C 61 % 1004,5 hPa 0,0 l/m 7,9 km/h (2 Bft) N-NO 19 2 min 0,000 mm 1,3 UV-I 487 W/m -0,2 C 5,6 C 11,3 km/h (2 Bft) 100,00 %
05.02.2017 12:06 6,7 C 61 % 1004,4 hPa 0,0 l/m 8,0 km/h (2 Bft) N-NO 23 2 min 0,000 mm 1,3 UV-I 489 W/m -0,3 C 5,4 C 9,7 km/h (2 Bft) 100,00 %
05.02.2017 12:08 6,7 C 60 % 1004,4 hPa 0,0 l/m 7,5 km/h (2 Bft) N-NO 19 2 min 0,000 mm 1,3 UV-I 485 W/m -0,5 C 5,8 C 11,3 km/h (2 Bft) 100,00 %
05.02.2017 12:10 6,7 C 59 % 1004,4 hPa 0,0 l/m 7,3 km/h (2 Bft) NO 44 2 min 0,000 mm 1,3 UV-I 477 W/m -0,7 C 6,0 C 9,7 km/h (2 Bft) 100,00 %
05.02.2017 12:12 6,8 C 59 % 1004,4 hPa 0,0 l/m 7,7 km/h (2 Bft) N-NO 22 2 min 0,000 mm 1,3 UV-I 449 W/m -0,6 C 5,7 C 11,3 km/h (2 Bft) 100,00 %
05.02.2017 12:14 6,7 C 60 % 1004,4 hPa 0,0 l/m 5,9 km/h (2 Bft) N-NO 17 2 min 0,000 mm 1,2 UV-I 427 W/m -0,5 C 6,7 C 11,3 km/h (2 Bft) 100,00 %
05.02.2017 12:16 6,6 C 60 % 1004,3 hPa 0,0 l/m 6,5 km/h (2 Bft) NO 36 2 min 0,000 mm 1,2 UV-I 416 W/m -0,6 C 6,5 C 14,5 km/h (3 Bft) 98,21 %
05.02.2017 12:18 6,7 C 60 % 1004,3 hPa 0,0 l/m 4,8 km/h (1 Bft) NO 38 2 min 0,000 mm 1,2 UV-I 419 W/m -0,5 C 6,7 C 8,0 km/h (2 Bft) 100,00 %
05.02.2017 12:20 6,8 C 59 % 1004,3 hPa 0,0 l/m 5,5 km/h (1 Bft) NO 37 2 min 0,000 mm 1,2 UV-I 418 W/m -0,6 C 6,8 C 8,0 km/h (2 Bft) 98,00 %
05.02.2017 12:22 6,7 C 60 % 1004,3 hPa 0,0 l/m 6,3 km/h (2 Bft) N-NO 32 2 min 0,000 mm 1,2 UV-I 379 W/m -0,5 C 6,7 C 8,0 km/h (2 Bft) 100,00 %
05.02.2017 12:24 6,7 C 60 % 1004,4 hPa 0,0 l/m 6,1 km/h (2 Bft) NO 44 2 min 0,000 mm 1,2 UV-I 433 W/m -0,5 C 6,7 C 8,0 km/h (2 Bft) 95,74 %
05.02.2017 12:26 6,7 C 60 % 1004,4 hPa 0,0 l/m 7,1 km/h (2 Bft) NO 41 2 min 0,000 mm 1,2 UV-I 500 W/m -0,5 C 6,1 C 8,0 km/h (2 Bft) 95,74 %
05.02.2017 12:28 6,7 C 60 % 1004,4 hPa 0,0 l/m 6,4 km/h (2 Bft) NO 48 2 min 0,000 mm 1,2 UV-I 449 W/m -0,5 C 6,7 C 11,3 km/h (2 Bft) 95,12 %
05.02.2017 12:30 6,8 C 60 % 1004,5 hPa 0,0 l/m 6,1 km/h (2 Bft) NO 48 2 min 0,000 mm 1,3 UV-I 494 W/m -0,4 C 6,8 C 8,0 km/h (2 Bft) 96,00 %
05.02.2017 12:32 6,9 C 59 % 1004,5 hPa 0,0 l/m 5,5 km/h (1 Bft) NO 51 2 min 0,000 mm 1,3 UV-I 500 W/m -0,5 C 6,9 C 8,0 km/h (2 Bft) 97,73 %
05.02.2017 12:34 7,0 C 59 % 1004,5 hPa 0,0 l/m 6,7 km/h (2 Bft) NO 47 2 min 0,000 mm 1,2 UV-I 393 W/m -0,5 C 6,8 C 8,0 km/h (2 Bft) 97,73 %
05.02.2017 12:36 6,9 C 59 % 1004,5 hPa 0,0 l/m 7,3 km/h (2 Bft) NO 44 2 min 0,000 mm 1,2 UV-I 369 W/m -0,5 C 6,2 C 8,0 km/h (2 Bft) 98,00 %
05.02.2017 12:38 6,8 C 59 % 1004,5 hPa 0,0 l/m 7,4 km/h (2 Bft) NO 46 2 min 0,000 mm 1,2 UV-I 323 W/m -0,6 C 6,0 C 8,0 km/h (2 Bft) 98,00 %
05.02.2017 12:40 6,8 C 59 % 1004,5 hPa 0,0 l/m 6,0 km/h (2 Bft) N-NO 31 2 min 0,000 mm 1,2 UV-I 358 W/m -0,6 C 6,8 C 8,0 km/h (2 Bft) 98,00 %
05.02.2017 12:42 6,9 C 59 % 1004,5 hPa 0,0 l/m 4,5 km/h (1 Bft) NO 34 2 min 0,000 mm 1,3 UV-I 489 W/m -0,5 C 6,9 C 4,8 km/h (1 Bft) 97,37 %
05.02.2017 12:44 6,9 C 58 % 1004,5 hPa 0,0 l/m 4,8 km/h (1 Bft) NO 43 2 min 0,000 mm 1,3 UV-I 487 W/m -0,8 C 6,9 C 6,4 km/h (2 Bft) 95,74 %
05.02.2017 12:46 7,0 C 59 % 1004,5 hPa 0,0 l/m 5,9 km/h (2 Bft) NO 52 2 min 0,000 mm 1,3 UV-I 464 W/m -0,5 C 7,0 C 8,0 km/h (2 Bft) 98,21 %
05.02.2017 12:48 7,0 C 59 % 1004,5 hPa 0,0 l/m 5,1 km/h (1 Bft) N-NO 25 2 min 0,000 mm 1,3 UV-I 488 W/m -0,5 C 7,0 C 8,0 km/h (2 Bft) 100,00 %
05.02.2017 12:50 7,0 C 58 % 1004,5 hPa 0,0 l/m 4,5 km/h (1 Bft) N-NO 32 2 min 0,000 mm 1,4 UV-I 528 W/m -0,7 C 7,0 C 4,8 km/h (1 Bft) 100,00 %
05.02.2017 12:52 7,0 C 59 % 1004,4 hPa 0,0 l/m 4,7 km/h (1 Bft) N-NO 27 2 min 0,000 mm 1,4 UV-I 550 W/m -0,5 C 7,0 C 8,0 km/h (2 Bft) 100,00 %
05.02.2017 12:54 7,1 C 60 % 1004,4 hPa 0,0 l/m 5,3 km/h (1 Bft) NO 49 2 min 0,000 mm 1,3 UV-I 508 W/m -0,1 C 7,1 C 8,0 km/h (2 Bft) 98,18 %
05.02.2017 12:56 6,9 C 61 % 1004,3 hPa 0,0 l/m 6,3 km/h (2 Bft) N-NO 33 2 min 0,000 mm 1,3 UV-I 486 W/m -0,1 C 6,9 C 8,0 km/h (2 Bft) 100,00 %
05.02.2017 12:58 6,8 C 60 % 1004,3 hPa 0,0 l/m 7,6 km/h (2 Bft) NO 44 2 min 0,000 mm 1,3 UV-I 458 W/m -0,4 C 5,8 C 11,3 km/h (2 Bft) 97,56 %
05.02.2017 13:00 6,7 C 61 % 1004,3 hPa 0,0 l/m 8,1 km/h (2 Bft) N-NO 25 2 min 0,000 mm 1,1 UV-I 398 W/m -0,3 C 5,3 C 12,9 km/h (3 Bft) 100,00 %
05.02.2017 13:02 6,7 C 61 % 1004,3 hPa 0,0 l/m 8,6 km/h (2 Bft) NO 39 2 min 0,228 mm 1,0 UV-I 305 W/m -0,3 C 4,9 C 12,9 km/h (3 Bft) 100,00 %
05.02.2017 13:04 6,6 C 61 % 1004,3 hPa 0,0 l/m 12,1 km/h (2 Bft) NO 37 2 min 0,000 mm 1,0 UV-I 296 W/m -0,4 C 2,5 C 16,1 km/h (3 Bft) 98,21 %
05.02.2017 13:06 6,4 C 61 % 1004,3 hPa 0,0 l/m 10,9 km/h (2 Bft) N-NO 13 2 min 0,000 mm 1,0 UV-I 306 W/m -0,6 C 3,0 C 14,5 km/h (3 Bft) 96,00 %
05.02.2017 13:08 6,4 C 62 % 1004,2 hPa 0,0 l/m 8,0 km/h (2 Bft) NO 44 2 min 0,000 mm 1,0 UV-I 285 W/m -0,3 C 5,1 C 14,5 km/h (3 Bft) 100,00 %
05.02.2017 13:10 6,4 C 63 % 1004,1 hPa 0,0 l/m 8,3 km/h (2 Bft) NO 49 2 min 0,000 mm 1,0 UV-I 320 W/m -0,1 C 4,8 C 11,3 km/h (2 Bft) 100,00 %
05.02.2017 13:12 6,3 C 63 % 1004,0 hPa 0,0 l/m 7,8 km/h (2 Bft) N-NO 24 2 min 0,000 mm 1,0 UV-I 240 W/m -0,2 C 5,1 C 12,9 km/h (3 Bft) 100,00 %
05.02.2017 13:14 6,3 C 63 % 1003,9 hPa 0,0 l/m 12,2 km/h (2 Bft) N-NO 19 2 min 0,000 mm 1,0 UV-I 310 W/m -0,2 C 2,1 C 17,7 km/h (3 Bft) 100,00 %
05.02.2017 13:16 6,3 C 63 % 1003,9 hPa 0,0 l/m 12,7 km/h (3 Bft) N-NO 21 2 min 0,000 mm 1,1 UV-I 440 W/m -0,2 C 1,9 C 16,1 km/h (3 Bft) 100,00 %
05.02.2017 13:18 6,5 C 62 % 1004,0 hPa 0,0 l/m 13,1 km/h (3 Bft) N-NO 19 2 min 0,000 mm 1,1 UV-I 479 W/m -0,2 C 1,9 C 16,1 km/h (3 Bft) 100,00 %
05.02.2017 13:20 6,6 C 62 % 1004,0 hPa 0,0 l/m 12,5 km/h (3 Bft) N-NO 26 2 min 0,000 mm 1,1 UV-I 422 W/m -0,1 C 2,3 C 16,1 km/h (3 Bft) 94,74 %
05.02.2017 13:22 6,5 C 62 % 1004,0 hPa 0,0 l/m 13,2 km/h (3 Bft) N-NO 27 2 min 0,000 mm 1,0 UV-I 324 W/m -0,2 C 1,8 C 16,1 km/h (3 Bft) 100,00 %
05.02.2017 13:24 6,4 C 62 % 1004,0 hPa 0,0 l/m 11,1 km/h (2 Bft) N-NO 18 0 min 0,000 mm 0,9 UV-I 211 W/m -0,3 C 2,9 C 16,1 km/h (3 Bft) 100,00 %
05.02.2017 13:26 6,3 C 62 % 1004,0 hPa 0,0 l/m 9,1 km/h (2 Bft) N-NO 33 0 min 0,000 mm 0,9 UV-I 206 W/m -0,4 C 4,1 C 12,9 km/h (3 Bft) 100,00 %
05.02.2017 13:28 6,3 C 62 % 1003,9 hPa 0,0 l/m 9,8 km/h (2 Bft) N 10 2 min 0,000 mm 0,9 UV-I 230 W/m -0,4 C 3,6 C 14,5 km/h (3 Bft) 98,11 %
05.02.2017 13:30 6,3 C 63 % 1004,0 hPa 0,0 l/m 8,9 km/h (2 Bft) NO 39 2 min 0,000 mm 0,9 UV-I 230 W/m -0,2 C 4,3 C 11,3 km/h (2 Bft) 100,00 %
05.02.2017 13:33 6,4 C 63 % 1003,9 hPa 0,0 l/m 6,6 km/h (2 Bft) NO 51 3 min 0,000 mm 0,9 UV-I 264 W/m -0,1 C 6,3 C 11,3 km/h (2 Bft) 100,00 %
05.02.2017 13:34 6,5 C 62 % 1003,9 hPa 0,0 l/m 8,7 km/h (2 Bft) NO 51 1 min 0,000 mm 0,9 UV-I 253 W/m -0,2 C 4,6 C 12,9 km/h (3 Bft) 100,00 %
05.02.2017 13:36 6,5 C 62 % 1003,9 hPa 0,0 l/m 9,1 km/h (2 Bft) O-NO 57 0 min 0,000 mm 0,8 UV-I 201 W/m -0,2 C 4,4 C 11,3 km/h (2 Bft) 98,18 %
05.02.2017 13:38 6,4 C 63 % 1003,8 hPa 0,0 l/m 11,4 km/h (2 Bft) NO 46 0 min 0,000 mm 0,8 UV-I 181 W/m -0,1 C 2,7 C 16,1 km/h (3 Bft) 100,00 %
05.02.2017 13:40 6,4 C 63 % 1003,8 hPa 0,0 l/m 10,6 km/h (2 Bft) NO 53 0 min 0,000 mm 0,8 UV-I 178 W/m -0,1 C 3,2 C 16,1 km/h (3 Bft) 96,23 %
05.02.2017 13:42 6,4 C 63 % 1003,8 hPa 0,0 l/m 13,4 km/h (3 Bft) NO 53 0 min 0,000 mm 0,7 UV-I 181 W/m -0,1 C 1,6 C 17,7 km/h (3 Bft) 100,00 %
05.02.2017 13:44 6,3 C 63 % 1003,7 hPa 0,0 l/m 13,4 km/h (3 Bft) O-NO 58 0 min 0,000 mm 0,8 UV-I 196 W/m -0,2 C 1,5 C 17,7 km/h (3 Bft) 100,00 %
05.02.2017 13:46 6,2 C 64 % 1003,7 hPa 0,0 l/m 13,1 km/h (3 Bft) NO 53 0 min 0,000 mm 0,8 UV-I 192 W/m -0,1 C 1,5 C 16,1 km/h (3 Bft) 97,73 %
05.02.2017 13:48 6,2 C 64 % 1003,7 hPa 0,0 l/m 13,1 km/h (3 Bft) O-NO 62 0 min 0,000 mm 0,7 UV-I 189 W/m -0,1 C 1,5 C 16,1 km/h (3 Bft) 98,21 %
05.02.2017 13:50 6,3 C 63 % 1003,6 hPa 0,0 l/m 11,1 km/h (2 Bft) NO 52 2 min 0,000 mm 0,8 UV-I 226 W/m -0,2 C 2,8 C 16,1 km/h (3 Bft) 98,00 %
05.02.2017 13:52 6,3 C 64 % 1003,6 hPa 0,0 l/m 10,1 km/h (2 Bft) O-NO 68 2 min 0,000 mm 0,8 UV-I 266 W/m 0,0 C 3,4 C 12,9 km/h (3 Bft) 97,37 %
05.02.2017 13:54 6,2 C 64 % 1003,6 hPa 0,0 l/m 9,9 km/h (2 Bft) NO 44 2 min 0,000 mm 0,8 UV-I 245 W/m -0,1 C 3,5 C 14,5 km/h (3 Bft) 96,23 %
05.02.2017 13:56 6,2 C 65 % 1003,6 hPa 0,0 l/m 9,7 km/h (2 Bft) O-NO 78 2 min 0,000 mm 0,7 UV-I 225 W/m 0,1 C 3,6 C 14,5 km/h (3 Bft) 96,00 %
05.02.2017 13:58 6,2 C 64 % 1003,5 hPa 0,0 l/m 10,3 km/h (2 Bft) O 79 0 min 0,000 mm 0,7 UV-I 195 W/m -0,1 C 3,2 C 14,5 km/h (3 Bft) 95,12 %
05.02.2017 14:00 6,1 C 64 % 1003,5 hPa 0,0 l/m 11,8 km/h (2 Bft) O-NO 57 0 min 0,153 mm 0,7 UV-I 161 W/m -0,2 C 2,1 C 17,7 km/h (3 Bft) 98,11 %
05.02.2017 14:02 6,1 C 65 % 1003,4 hPa 0,0 l/m 10,6 km/h (2 Bft) NO 54 0 min 0,000 mm 0,7 UV-I 149 W/m 0,0 C 2,9 C 14,5 km/h (3 Bft) 97,56 %
05.02.2017 14:04 6,1 C 65 % 1003,4 hPa 0,0 l/m 10,9 km/h (2 Bft) O-NO 59 0 min 0,000 mm 0,6 UV-I 150 W/m 0,0 C 2,7 C 14,5 km/h (3 Bft) 97,87 %
05.02.2017 14:06 6,1 C 65 % 1003,3 hPa 0,0 l/m 9,1 km/h (2 Bft) NO 43 0 min 0,000 mm 0,6 UV-I 146 W/m 0,0 C 3,9 C 12,9 km/h (3 Bft) 97,44 %
05.02.2017 14:09 6,0 C 66 % 1003,2 hPa 0,0 l/m 7,5 km/h (2 Bft) NO 45 0 min 0,000 mm 0,6 UV-I 148 W/m 0,1 C 5,1 C 12,9 km/h (3 Bft) 97,44 %
05.02.2017 14:10 6,0 C 65 % 1003,2 hPa 0,0 l/m 10,0 km/h (2 Bft) N-NO 32 0 min 0,000 mm 0,6 UV-I 146 W/m -0,1 C 3,2 C 14,5 km/h (3 Bft) 100,00 %
05.02.2017 14:12 5,9 C 65 % 1003,0 hPa 0,0 l/m 13,4 km/h (3 Bft) NO 42 0 min 0,000 mm 0,6 UV-I 145 W/m -0,2 C 1,0 C 17,7 km/h (3 Bft) 96,00 %
05.02.2017 14:14 5,9 C 65 % 1003,0 hPa 0,0 l/m 9,7 km/h (2 Bft) NO 54 0 min 0,000 mm 0,6 UV-I 141 W/m -0,2 C 3,3 C 14,5 km/h (3 Bft) 97,62 %
05.02.2017 14:16 5,9 C 65 % 1003,1 hPa 0,0 l/m 9,6 km/h (2 Bft) O-NO 70 0 min 0,000 mm 0,6 UV-I 134 W/m -0,2 C 3,3 C 14,5 km/h (3 Bft) 98,00 %
05.02.2017 14:18 5,9 C 65 % 1003,1 hPa 0,0 l/m 9,5 km/h (2 Bft) O-NO 58 0 min 0,000 mm 0,6 UV-I 132 W/m -0,2 C 3,4 C 14,5 km/h (3 Bft) 97,87 %
05.02.2017 14:20 5,9 C 65 % 1003,1 hPa 0,0 l/m 9,1 km/h (2 Bft) O-NO 64 0 min 0,000 mm 0,6 UV-I 133 W/m -0,2 C 3,7 C 12,9 km/h (3 Bft) 100,00 %
05.02.2017 14:22 5,8 C 66 % 1003,1 hPa 0,0 l/m 7,5 km/h (2 Bft) O-NO 71 0 min 0,000 mm 0,6 UV-I 139 W/m -0,0 C 4,9 C 11,3 km/h (2 Bft) 97,73 %
05.02.2017 14:24 5,7 C 67 % 1003,2 hPa 0,0 l/m 8,4 km/h (2 Bft) O-NO 69 0 min 0,000 mm 0,5 UV-I 142 W/m 0,1 C 4,0 C 14,5 km/h (3 Bft) 98,00 %
05.02.2017 14:26 5,7 C 67 % 1003,1 hPa 0,0 l/m 8,7 km/h (2 Bft) O-NO 68 0 min 0,000 mm 0,5 UV-I 143 W/m 0,1 C 3,8 C 12,9 km/h (3 Bft) 100,00 %
05.02.2017 14:28 5,7 C 67 % 1003,1 hPa 0,0 l/m 10,8 km/h (2 Bft) NO 47 0 min 0,000 mm 0,5 UV-I 145 W/m 0,1 C 2,3 C 14,5 km/h (3 Bft) 100,00 %
05.02.2017 14:30 5,7 C 67 % 1003,0 hPa 0,0 l/m 10,1 km/h (2 Bft) O-NO 57 0 min 0,000 mm 0,5 UV-I 150 W/m 0,1 C 2,8 C 16,1 km/h (3 Bft) 100,00 %
05.02.2017 14:32 5,6 C 67 % 1003,0 hPa 0,0 l/m 10,9 km/h (2 Bft) O-NO 65 0 min 0,000 mm 0,5 UV-I 156 W/m -0,0 C 2,1 C 14,5 km/h (3 Bft) 100,00 %
05.02.2017 14:34 5,7 C 67 % 1003,0 hPa 0,0 l/m 9,4 km/h (2 Bft) O-NO 59 0 min 0,000 mm 0,5 UV-I 160 W/m 0,1 C 3,3 C 16,1 km/h (3 Bft) 100,00 %
05.02.2017 14:36 5,7 C 67 % 1003,0 hPa 0,0 l/m 8,0 km/h (2 Bft) O 80 0 min 0,000 mm 0,5 UV-I 160 W/m 0,1 C 4,3 C 12,9 km/h (3 Bft) 100,00 %
05.02.2017 14:38 5,6 C 68 % 1003,1 hPa 0,0 l/m 7,6 km/h (2 Bft) O 79 0 min 0,000 mm 0,5 UV-I 160 W/m 0,2 C 4,6 C 12,9 km/h (3 Bft) 95,12 %
05.02.2017 14:40 5,4 C 68 % 1003,0 hPa 0,0 l/m 6,8 km/h (2 Bft) NO 55 0 min 0,000 mm 0,5 UV-I 162 W/m -0,0 C 5,1 C 11,3 km/h (2 Bft) 100,00 %
05.02.2017 14:42 5,5 C 68 % 1003,0 hPa 0,0 l/m 6,8 km/h (2 Bft) O-NO 63 0 min 0,000 mm 0,5 UV-I 162 W/m 0,1 C 5,2 C 9,7 km/h (2 Bft) 100,00 %
05.02.2017 14:44 5,6 C 68 % 1003,0 hPa 0,0 l/m 6,2 km/h (2 Bft) NO 38 0 min 0,000 mm 0,5 UV-I 163 W/m 0,2 C 5,6 C 9,7 km/h (2 Bft) 100,00 %
05.02.2017 14:46 5,3 C 69 % 1003,0 hPa 0,0 l/m 7,1 km/h (2 Bft) NO 45 0 min 0,000 mm 0,5 UV-I 163 W/m 0,1 C 4,7 C 12,9 km/h (3 Bft) 100,00 %
05.02.2017 14:48 5,3 C 69 % 1003,0 hPa 0,0 l/m 6,5 km/h (2 Bft) N-NO 30 0 min 0,000 mm 0,5 UV-I 161 W/m 0,1 C 5,2 C 8,0 km/h (2 Bft) 100,00 %
05.02.2017 14:50 5,2 C 70 % 1003,0 hPa 0,0 l/m 8,1 km/h (2 Bft) NO 46 0 min 0,000 mm 0,0 UV-I 158 W/m 0,2 C 3,7 C 9,7 km/h (2 Bft) 100,00 %
05.02.2017 14:52 5,2 C 70 % 1002,9 hPa 0,0 l/m 7,7 km/h (2 Bft) NO 41 0 min 0,000 mm 0,0 UV-I 156 W/m 0,2 C 4,1 C 9,7 km/h (2 Bft) 100,00 %
05.02.2017 14:54 5,2 C 70 % 1002,8 hPa 0,0 l/m 7,6 km/h (2 Bft) N-NO 16 0 min 0,000 mm 0,0 UV-I 156 W/m 0,2 C 4,1 C 11,3 km/h (2 Bft) 98,11 %
05.02.2017 14:56 5,2 C 70 % 1002,8 hPa 0,0 l/m 8,5 km/h (2 Bft) NO 41 0 min 0,000 mm 0,0 UV-I 158 W/m 0,2 C 3,4 C 14,5 km/h (3 Bft) 100,00 %
05.02.2017 14:58 5,2 C 70 % 1002,9 hPa 0,0 l/m 7,5 km/h (2 Bft) NO 43 0 min 0,000 mm 0,0 UV-I 160 W/m 0,2 C 4,2 C 14,5 km/h (3 Bft) 100,00 %
05.02.2017 15:00 5,2 C 70 % 1002,8 hPa 0,0 l/m 8,8 km/h (2 Bft) O-NO 65 2 min 0,101 mm 0,0 UV-I 163 W/m 0,2 C 3,2 C 12,9 km/h (3 Bft) 98,11 %
05.02.2017 15:02 5,3 C 69 % 1002,8 hPa 0,0 l/m 8,1 km/h (2 Bft) NO 42 2 min 0,000 mm 0,0 UV-I 172 W/m 0,1 C 3,8 C 14,5 km/h (3 Bft) 100,00 %
05.02.2017 15:04 5,4 C 69 % 1002,7 hPa 0,0 l/m 7,9 km/h (2 Bft) N-NO 32 2 min 0,000 mm 0,0 UV-I 181 W/m 0,2 C 4,1 C 12,9 km/h (3 Bft) 100,00 %
05.02.2017 15:06 5,6 C 68 % 1002,7 hPa 0,0 l/m 8,0 km/h (2 Bft) O-NO 65 2 min 0,000 mm 0,0 UV-I 189 W/m 0,2 C 4,2 C 11,3 km/h (2 Bft) 97,87 %
05.02.2017 15:08 5,7 C 68 % 1002,7 hPa 0,0 l/m 8,6 km/h (2 Bft) NO 49 2 min 0,000 mm 0,0 UV-I 199 W/m 0,3 C 3,9 C 11,3 km/h (2 Bft) 100,00 %
05.02.2017 15:10 5,7 C 68 % 1002,7 hPa 0,0 l/m 9,4 km/h (2 Bft) O-NO 76 2 min 0,000 mm 0,0 UV-I 210 W/m 0,3 C 3,3 C 14,5 km/h (3 Bft) 100,00 %
05.02.2017 15:12 5,7 C 68 % 1002,7 hPa 0,0 l/m 9,7 km/h (2 Bft) NO 53 2 min 0,000 mm 0,0 UV-I 208 W/m 0,3 C 3,1 C 14,5 km/h (3 Bft) 100,00 %
05.02.2017 15:14 5,7 C 67 % 1002,7 hPa 0,0 l/m 10,1 km/h (2 Bft) NO 49 2 min 0,000 mm 0,0 UV-I 223 W/m 0,1 C 2,8 C 14,5 km/h (3 Bft) 100,00 %
05.02.2017 15:16 5,7 C 68 % 1002,7 hPa 0,0 l/m 9,7 km/h (2 Bft) O-NO 57 2 min 0,000 mm 0,0 UV-I 242 W/m 0,3 C 3,1 C 14,5 km/h (3 Bft) 100,00 %
05.02.2017 15:18 5,7 C 68 % 1002,6 hPa 0,0 l/m 9,2 km/h (2 Bft) O-NO 69 2 min 0,000 mm 0,0 UV-I 212 W/m 0,3 C 3,4 C 14,5 km/h (3 Bft) 100,00 %
05.02.2017 15:20 5,7 C 68 % 1002,6 hPa 0,0 l/m 9,5 km/h (2 Bft) O-NO 63 2 min 0,000 mm 0,0 UV-I 246 W/m 0,3 C 3,2 C 16,1 km/h (3 Bft) 98,11 %
05.02.2017 15:22 5,7 C 67 % 1002,6 hPa 0,0 l/m 10,9 km/h (2 Bft) NO 55 2 min 0,000 mm 0,0 UV-I 280 W/m 0,1 C 2,2 C 16,1 km/h (3 Bft) 100,00 %
05.02.2017 15:24 5,8 C 67 % 1002,5 hPa 0,0 l/m 9,2 km/h (2 Bft) O 80 2 min 0,000 mm 0,0 UV-I 282 W/m 0,2 C 3,5 C 12,9 km/h (3 Bft) 97,56 %
05.02.2017 15:26 5,8 C 67 % 1002,4 hPa 0,0 l/m 11,6 km/h (2 Bft) NO 49 2 min 0,000 mm 0,0 UV-I 237 W/m 0,2 C 1,9 C 17,7 km/h (3 Bft) 100,00 %
05.02.2017 15:28 5,8 C 67 % 1002,4 hPa 0,0 l/m 9,5 km/h (2 Bft) NO 55 2 min 0,000 mm 0,0 UV-I 193 W/m 0,2 C 3,3 C 14,5 km/h (3 Bft) 100,00 %
05.02.2017 15:30 5,8 C 67 % 1002,5 hPa 0,0 l/m 8,1 km/h (2 Bft) O-NO 78 2 min 0,000 mm 0,0 UV-I 157 W/m 0,2 C 4,4 C 11,3 km/h (2 Bft) 100,00 %
05.02.2017 15:32 5,8 C 67 % 1002,4 hPa 0,0 l/m 8,8 km/h (2 Bft) NO 42 2 min 0,000 mm 0,0 UV-I 145 W/m 0,2 C 3,8 C 11,3 km/h (2 Bft) 100,00 %
05.02.2017 15:34 5,8 C 67 % 1002,4 hPa 0,0 l/m 9,3 km/h (2 Bft) O-NO 65 2 min 0,000 mm 0,0 UV-I 133 W/m 0,2 C 3,4 C 12,9 km/h (3 Bft) 100,00 %
05.02.2017 15:36 5,8 C 67 % 1002,5 hPa 0,0 l/m 8,8 km/h (2 Bft) O-NO 57 2 min 0,000 mm 0,0 UV-I 146 W/m 0,2 C 3,8 C 12,9 km/h (3 Bft) 98,00 %
05.02.2017 15:38 5,8 C 67 % 1002,5 hPa 0,0 l/m 9,1 km/h (2 Bft) O-NO 57 2 min 0,000 mm 0,0 UV-I 124 W/m 0,2 C 3,6 C 12,9 km/h (3 Bft) 100,00 %
05.02.2017 15:40 5,8 C 67 % 1002,4 hPa 0,0 l/m 9,2 km/h (2 Bft) O-NO 66 0 min 0,000 mm 0,0 UV-I 111 W/m 0,2 C 3,5 C 12,9 km/h (3 Bft) 97,73 %
05.02.2017 15:42 5,7 C 67 % 1002,5 hPa 0,0 l/m 8,1 km/h (2 Bft) NO 56 0 min 0,000 mm 0,0 UV-I 108 W/m 0,1 C 4,3 C 12,9 km/h (3 Bft) 100,00 %
05.02.2017 15:44 5,7 C 67 % 1002,5 hPa 0,0 l/m 6,8 km/h (2 Bft) NO 53 2 min 0,000 mm 0,0 UV-I 127 W/m 0,1 C 5,4 C 9,7 km/h (2 Bft) 100,00 %
05.02.2017 15:46 5,7 C 67 % 1002,5 hPa 0,0 l/m 5,8 km/h (2 Bft) NO 54 2 min 0,000 mm 0,0 UV-I 125 W/m 0,1 C 5,7 C 8,0 km/h (2 Bft) 100,00 %
05.02.2017 15:48 5,6 C 68 % 1002,4 hPa 0,0 l/m 6,3 km/h (2 Bft) O-NO 64 2 min 0,000 mm 0,0 UV-I 108 W/m 0,2 C 5,6 C 11,3 km/h (2 Bft) 100,00 %
05.02.2017 15:50 5,6 C 67 % 1002,4 hPa 0,0 l/m 6,6 km/h (2 Bft) O-NO 57 2 min 0,000 mm 0,0 UV-I 120 W/m -0,0 C 5,4 C 8,0 km/h (2 Bft) 97,87 %
05.02.2017 15:52 5,6 C 67 % 1002,4 hPa 0,0 l/m 4,1 km/h (1 Bft) O-NO 62 2 min 0,000 mm 0,0 UV-I 121 W/m -0,0 C 5,6 C 6,4 km/h (2 Bft) 95,12 %
05.02.2017 15:54 5,4 C 68 % 1002,4 hPa 0,0 l/m 5,8 km/h (2 Bft) NO 52 2 min 0,000 mm 0,0 UV-I 120 W/m -0,0 C 5,4 C 9,7 km/h (2 Bft) 94,34 %
05.02.2017 15:56 5,4 C 67 % 1002,3 hPa 0,0 l/m 6,6 km/h (2 Bft) NO 44 2 min 0,000 mm 0,0 UV-I 111 W/m -0,2 C 5,2 C 9,7 km/h (2 Bft) 95,12 %
05.02.2017 15:58 5,5 C 67 % 1002,3 hPa 0,0 l/m 6,8 km/h (2 Bft) O-NO 62 2 min 0,000 mm 0,0 UV-I 107 W/m -0,1 C 5,2 C 8,0 km/h (2 Bft) 94,64 %
05.02.2017 16:00 5,6 C 67 % 1002,3 hPa 0,0 l/m 8,9 km/h (2 Bft) O-NO 69 2 min 0,102 mm 0,0 UV-I 98 W/m -0,0 C 3,5 C 12,9 km/h (3 Bft) 97,14 %
05.02.2017 16:02 5,6 C 67 % 1002,2 hPa 0,0 l/m 7,9 km/h (2 Bft) O-NO 65 2 min 0,000 mm 0,0 UV-I 88 W/m -0,0 C 4,3 C 12,9 km/h (3 Bft) 96,23 %
05.02.2017 16:04 5,6 C 66 % 1002,2 hPa 0,0 l/m 8,5 km/h (2 Bft) O-NO 59 0 min 0,000 mm 0,0 UV-I 80 W/m -0,2 C 3,8 C 12,9 km/h (3 Bft) 97,56 %
05.02.2017 16:06 5,6 C 66 % 1002,1 hPa 0,0 l/m 7,4 km/h (2 Bft) NO 53 0 min 0,000 mm 0,0 UV-I 76 W/m -0,2 C 4,7 C 9,7 km/h (2 Bft) 96,23 %
05.02.2017 16:08 5,6 C 66 % 1002,1 hPa 0,0 l/m 7,8 km/h (2 Bft) NO 50 0 min 0,000 mm 0,0 UV-I 72 W/m -0,2 C 4,4 C 11,3 km/h (2 Bft) 94,87 %
05.02.2017 16:10 5,6 C 66 % 1002,1 hPa 0,0 l/m 7,3 km/h (2 Bft) NO 40 0 min 0,000 mm 0,0 UV-I 70 W/m -0,2 C 4,8 C 11,3 km/h (2 Bft) 95,24 %
05.02.2017 16:12 5,5 C 67 % 1002,1 hPa 0,0 l/m 8,0 km/h (2 Bft) O-NO 63 0 min 0,000 mm 0,0 UV-I 68 W/m -0,1 C 4,1 C 11,3 km/h (2 Bft) 96,88 %
05.02.2017 16:14 5,4 C 67 % 1002,1 hPa 0,0 l/m 7,1 km/h (2 Bft) O-NO 65 0 min 0,000 mm 0,0 UV-I 65 W/m -0,2 C 4,8 C 11,3 km/h (2 Bft) 97,62 %
05.02.2017 16:16 5,4 C 67 % 1002,1 hPa 0,0 l/m 6,8 km/h (2 Bft) NO 54 0 min 0,000 mm 0,0 UV-I 61 W/m -0,2 C 5,1 C 9,7 km/h (2 Bft) 96,00 %
05.02.2017 16:18 5,3 C 67 % 1002,1 hPa 0,0 l/m 6,2 km/h (2 Bft) O-NO 57 0 min 0,000 mm 0,0 UV-I 56 W/m -0,3 C 5,3 C 8,0 km/h (2 Bft) 98,00 %
05.02.2017 16:20 5,3 C 68 % 1002,1 hPa 0,0 l/m 5,8 km/h (2 Bft) O-NO 66 0 min 0,000 mm 0,0 UV-I 54 W/m -0,1 C 5,3 C 8,0 km/h (2 Bft) 97,56 %
05.02.2017 16:22 5,1 C 68 % 1002,1 hPa 0,0 l/m 4,8 km/h (1 Bft) O-NO 60 0 min 0,000 mm 0,0 UV-I 50 W/m -0,3 C 5,1 C 6,4 km/h (2 Bft) 98,00 %
05.02.2017 16:24 5,0 C 69 % 1002,2 hPa 0,0 l/m 4,6 km/h (1 Bft) O-NO 63 0 min 0,000 mm 0,0 UV-I 47 W/m -0,2 C 5,0 C 6,4 km/h (2 Bft) 97,37 %
05.02.2017 16:26 5,0 C 69 % 1002,1 hPa 0,0 l/m 4,2 km/h (1 Bft) O-NO 61 0 min 0,000 mm 0,0 UV-I 44 W/m -0,2 C 5,0 C 6,4 km/h (2 Bft) 96,23 %
05.02.2017 16:28 4,9 C 69 % 1002,1 hPa 0,0 l/m 3,8 km/h (1 Bft) O-NO 61 0 min 0,000 mm 0,0 UV-I 43 W/m -0,3 C 4,9 C 4,8 km/h (1 Bft) 97,56 %
05.02.2017 16:30 4,9 C 70 % 1002,1 hPa 0,0 l/m 3,3 km/h (1 Bft) O-NO 61 0 min 0,000 mm 0,0 UV-I 41 W/m -0,1 C 4,9 C 4,8 km/h (1 Bft) 97,87 %
05.02.2017 16:32 4,8 C 70 % 1002,1 hPa 0,0 l/m 3,3 km/h (1 Bft) NO 54 0 min 0,000 mm 0,0 UV-I 39 W/m -0,2 C 4,8 C 4,8 km/h (1 Bft) 100,00 %
05.02.2017 16:34 4,8 C 70 % 1002,1 hPa 0,0 l/m 4,0 km/h (1 Bft) O-NO 60 0 min 0,000 mm 0,0 UV-I 37 W/m -0,2 C 4,8 C 6,4 km/h (2 Bft) 100,00 %
05.02.2017 16:36 4,9 C 69 % 1002,1 hPa 0,0 l/m 4,6 km/h (1 Bft) O-NO 61 0 min 0,000 mm 0,0 UV-I 34 W/m -0,3 C 4,9 C 8,0 km/h (2 Bft) 100,00 %
05.02.2017 16:38 4,9 C 69 % 1002,1 hPa 0,0 l/m 4,6 km/h (1 Bft) NO 55 0 min 0,000 mm 0,0 UV-I 31 W/m -0,3 C 4,9 C 6,4 km/h (2 Bft) 97,56 %
05.02.2017 16:40 4,8 C 70 % 1002,2 hPa 0,0 l/m 5,4 km/h (1 Bft) O-NO 66 0 min 0,000 mm 0,0 UV-I 29 W/m -0,2 C 4,8 C 8,0 km/h (2 Bft) 100,00 %
05.02.2017 16:42 4,8 C 70 % 1002,2 hPa 0,0 l/m 5,8 km/h (2 Bft) O-NO 70 0 min 0,000 mm 0,0 UV-I 27 W/m -0,2 C 4,8 C 8,0 km/h (2 Bft) 100,00 %
05.02.2017 16:44 4,7 C 70 % 1002,2 hPa 0,0 l/m 4,5 km/h (1 Bft) O-NO 67 0 min 0,000 mm 0,0 UV-I 26 W/m -0,3 C 4,7 C 8,0 km/h (2 Bft) 98,00 %
05.02.2017 16:46 4,7 C 71 % 1002,2 hPa 0,0 l/m 5,0 km/h (1 Bft) O-NO 58 0 min 0,000 mm 0,0 UV-I 25 W/m -0,1 C 4,7 C 6,4 km/h (2 Bft) 100,00 %
05.02.2017 16:48 4,7 C 70 % 1002,2 hPa 0,0 l/m 5,0 km/h (1 Bft) O-NO 65 0 min 0,000 mm 0,0 UV-I 22 W/m -0,3 C 4,7 C 8,0 km/h (2 Bft) 100,00 %
05.02.2017 16:50 4,6 C 71 % 1002,2 hPa 0,0 l/m 4,8 km/h (1 Bft) O-NO 73 0 min 0,000 mm 0,0 UV-I 21 W/m -0,2 C 4,6 C 8,0 km/h (2 Bft) 100,00 %
05.02.2017 16:52 4,6 C 71 % 1002,2 hPa 0,0 l/m 5,5 km/h (1 Bft) O 82 2 min 0,000 mm 0,0 UV-I 19 W/m -0,2 C 4,6 C 8,0 km/h (2 Bft) 98,21 %
05.02.2017 16:54 4,3 C 72 % 1002,2 hPa 0,0 l/m 3,9 km/h (1 Bft) O-NO 74 2 min 0,000 mm 0,0 UV-I 17 W/m -0,3 C 4,3 C 6,4 km/h (2 Bft) 100,00 %
05.02.2017 16:56 4,2 C 73 % 1002,2 hPa 0,0 l/m 3,3 km/h (1 Bft) O-NO 71 2 min 0,000 mm 0,0 UV-I 14 W/m -0,2 C 4,2 C 4,8 km/h (1 Bft) 98,11 %
05.02.2017 16:58 4,3 C 73 % 1002,1 hPa 0,0 l/m 3,6 km/h (1 Bft) O-NO 71 2 min 0,000 mm 0,0 UV-I 12 W/m -0,1 C 4,3 C 4,8 km/h (1 Bft) 100,00 %
05.02.2017 17:00 4,4 C 72 % 1002,1 hPa 0,0 l/m 3,5 km/h (1 Bft) O-NO 71 0 min 0,025 mm 0,0 UV-I 10 W/m -0,2 C 4,4 C 4,8 km/h (1 Bft) 100,00 %
05.02.2017 17:02 4,4 C 72 % 1002,1 hPa 0,0 l/m 3,0 km/h (1 Bft) O-NO 71 0 min 0,000 mm 0,0 UV-I 9 W/m -0,2 C 4,4 C 4,8 km/h (1 Bft) 100,00 %
05.02.2017 17:04 4,4 C 71 % 1002,1 hPa 0,0 l/m 4,6 km/h (1 Bft) O-NO 70 0 min 0,000 mm 0,0 UV-I 7 W/m -0,4 C 4,4 C 6,4 km/h (2 Bft) 100,00 %
05.02.2017 17:06 4,3 C 72 % 1002,1 hPa 0,0 l/m 5,1 km/h (1 Bft) O-NO 76 0 min 0,000 mm 0,0 UV-I 7 W/m -0,3 C 4,3 C 8,0 km/h (2 Bft) 100,00 %
05.02.2017 17:08 4,3 C 72 % 1002,2 hPa 0,0 l/m 3,8 km/h (1 Bft) NO 48 0 min 0,000 mm 0,0 UV-I 6 W/m -0,3 C 4,3 C 6,4 km/h (2 Bft) 97,50 %
05.02.2017 17:10 4,4 C 71 % 1002,1 hPa 0,0 l/m 3,2 km/h (1 Bft) NO 55 0 min 0,000 mm 0,0 UV-I 5 W/m -0,4 C 4,4 C 4,8 km/h (1 Bft) 100,00 %
05.02.2017 17:12 4,3 C 72 % 1002,1 hPa 0,0 l/m 2,8 km/h (1 Bft) NO 55 0 min 0,000 mm 0,0 UV-I 5 W/m -0,3 C 4,3 C 4,8 km/h (1 Bft) 100,00 %
05.02.2017 17:14 4,4 C 71 % 1002,1 hPa 0,0 l/m 3,4 km/h (1 Bft) NO 55 0 min 0,000 mm 0,0 UV-I 5 W/m -0,4 C 4,4 C 6,4 km/h (2 Bft) 100,00 %
05.02.2017 17:16 4,4 C 71 % 1002,1 hPa 0,0 l/m 5,0 km/h (1 Bft) O-NO 58 0 min 0,000 mm 0,0 UV-I 5 W/m -0,4 C 4,4 C 8,0 km/h (2 Bft) 100,00 %
05.02.2017 17:18 4,4 C 71 % 1002,1 hPa 0,0 l/m 5,3 km/h (1 Bft) NO 55 0 min 0,000 mm 0,0 UV-I 5 W/m -0,4 C 4,4 C 8,0 km/h (2 Bft) 100,00 %
05.02.2017 17:20 4,4 C 71 % 1002,1 hPa 0,0 l/m 5,5 km/h (1 Bft) O-NO 60 0 min 0,000 mm 0,0 UV-I 0 W/m -0,4 C 4,4 C 8,0 km/h (2 Bft) 100,00 %
05.02.2017 17:22 4,3 C 72 % 1002,1 hPa 0,0 l/m 3,9 km/h (1 Bft) O-NO 71 0 min 0,000 mm 0,0 UV-I 0 W/m -0,3 C 4,3 C 4,8 km/h (1 Bft) 98,11 %
05.02.2017 17:24 4,1 C 73 % 1002,1 hPa 0,0 l/m 4,8 km/h (1 Bft) O-NO 62 0 min 0,000 mm 0,0 UV-I 0 W/m -0,3 C 4,1 C 6,4 km/h (2 Bft) 100,00 %
05.02.2017 17:26 4,1 C 73 % 1002,0 hPa 0,0 l/m 5,0 km/h (1 Bft) NO 52 0 min 0,000 mm 0,0 UV-I 0 W/m -0,3 C 4,1 C 6,4 km/h (2 Bft) 100,00 %
05.02.2017 17:28 4,2 C 72 % 1002,0 hPa 0,0 l/m 3,3 km/h (1 Bft) O-NO 61 0 min 0,000 mm 0,0 UV-I 0 W/m -0,4 C 4,2 C 4,8 km/h (1 Bft) 97,44 %
05.02.2017 17:30 4,3 C 72 % 1002,0 hPa 0,0 l/m 3,8 km/h (1 Bft) O-NO 67 0 min 0,000 mm 0,0 UV-I 0 W/m -0,3 C 4,3 C 4,8 km/h (1 Bft) 100,00 %
05.02.2017 17:32 4,2 C 72 % 1002,0 hPa 0,0 l/m 5,2 km/h (1 Bft) NO 44 0 min 0,000 mm 0,0 UV-I 0 W/m -0,4 C 4,2 C 6,4 km/h (2 Bft) 98,00 %
05.02.2017 17:34 4,2 C 72 % 1002,1 hPa 0,0 l/m 5,1 km/h (1 Bft) NO 53 0 min 0,000 mm 0,0 UV-I 0 W/m -0,4 C 4,2 C 8,0 km/h (2 Bft) 100,00 %
05.02.2017 17:36 4,2 C 71 % 1002,1 hPa 0,0 l/m 2,8 km/h (1 Bft) NO 48 0 min 0,000 mm 0,0 UV-I 0 W/m -0,6 C 4,2 C 3,2 km/h (1 Bft) 100,00 %
05.02.2017 17:38 4,2 C 72 % 1002,1 hPa 0,0 l/m 3,0 km/h (1 Bft) O-NO 69 0 min 0,000 mm 0,0 UV-I 0 W/m -0,4 C 4,2 C 4,8 km/h (1 Bft) 100,00 %
05.02.2017 17:40 4,0 C 73 % 1002,1 hPa 0,0 l/m 3,4 km/h (1 Bft) O-NO 61 0 min 0,000 mm 0,0 UV-I 0 W/m -0,4 C 4,0 C 4,8 km/h (1 Bft) 100,00 %
05.02.2017 17:42 3,8 C 73 % 1002,1 hPa 0,0 l/m 3,3 km/h (1 Bft) O-NO 63 0 min 0,000 mm 0,0 UV-I 0 W/m -0,6 C 3,8 C 4,8 km/h (1 Bft) 98,00 %
05.02.2017 17:44 3,8 C 74 % 1002,1 hPa 0,0 l/m 3,9 km/h (1 Bft) O-NO 63 0 min 0,000 mm 0,0 UV-I 0 W/m -0,4 C 3,8 C 6,4 km/h (2 Bft) 96,00 %
05.02.2017 17:46 3,8 C 74 % 1002,1 hPa 0,0 l/m 3,0 km/h (1 Bft) O-NO 63 0 min 0,000 mm 0,0 UV-I 0 W/m -0,4 C 3,8 C 4,8 km/h (1 Bft) 100,00 %
05.02.2017 17:48 3,8 C 73 % 1002,2 hPa 0,0 l/m 2,8 km/h (1 Bft) O-NO 63 0 min 0,000 mm 0,0 UV-I 0 W/m -0,6 C 3,8 C 4,8 km/h (1 Bft) 100,00 %
05.02.2017 17:50 3,9 C 73 % 1002,1 hPa 0,0 l/m 3,3 km/h (1 Bft) O-NO 63 0 min 0,000 mm 0,0 UV-I 0 W/m -0,5 C 3,9 C 4,8 km/h (1 Bft) 100,00 %
05.02.2017 17:52 3,9 C 73 % 1002,1 hPa 0,0 l/m 3,5 km/h (1 Bft) O-NO 57 0 min 0,000 mm 0,0 UV-I 0 W/m -0,5 C 3,9 C 4,8 km/h (1 Bft) 100,00 %
05.02.2017 17:54 3,9 C 73 % 1002,2 hPa 0,0 l/m 3,3 km/h (1 Bft) NO 53 0 min 0,000 mm 0,0 UV-I 0 W/m -0,5 C 3,9 C 6,4 km/h (2 Bft) 100,00 %
05.02.2017 17:56 4,0 C 72 % 1002,2 hPa 0,0 l/m 3,1 km/h (1 Bft) NO 50 0 min 0,000 mm 0,0 UV-I 0 W/m -0,6 C 4,0 C 6,4 km/h (2 Bft) 98,11 %
05.02.2017 17:58 4,1 C 71 % 1002,2 hPa 0,0 l/m 3,3 km/h (1 Bft) NO 50 0 min 0,000 mm 0,0 UV-I 0 W/m -0,7 C 4,1 C 4,8 km/h (1 Bft) 100,00 %
05.02.2017 18:00 4,1 C 71 % 1002,2 hPa 0,0 l/m 3,5 km/h (1 Bft) NO 50 0 min 0,026 mm 0,0 UV-I 0 W/m -0,7 C 4,1 C 6,4 km/h (2 Bft) 98,00 %
05.02.2017 18:02 4,1 C 72 % 1002,2 hPa 0,0 l/m 3,3 km/h (1 Bft) NO 50 0 min 0,000 mm 0,0 UV-I 0 W/m -0,5 C 4,1 C 4,8 km/h (1 Bft) 100,00 %
05.02.2017 18:04 4,0 C 72 % 1002,2 hPa 0,0 l/m 2,8 km/h (1 Bft) NO 50 0 min 0,000 mm 0,0 UV-I 0 W/m -0,6 C 4,0 C 4,8 km/h (1 Bft) 98,21 %
05.02.2017 18:06 4,0 C 72 % 1002,2 hPa 0,0 l/m 2,9 km/h (1 Bft) NO 50 0 min 0,000 mm 0,0 UV-I 0 W/m -0,6 C 4,0 C 4,8 km/h (1 Bft) 97,87 %
05.02.2017 18:08 4,0 C 72 % 1002,2 hPa 0,0 l/m 3,8 km/h (1 Bft) NO 50 0 min 0,000 mm 0,0 UV-I 0 W/m -0,6 C 4,0 C 6,4 km/h (2 Bft) 100,00 %
05.02.2017 18:10 4,0 C 72 % 1002,1 hPa 0,0 l/m 3,9 km/h (1 Bft) NO 50 0 min 0,000 mm 0,0 UV-I 0 W/m -0,6 C 4,0 C 4,8 km/h (1 Bft) 97,73 %
05.02.2017 18:12 3,9 C 72 % 1002,2 hPa 0,0 l/m 3,9 km/h (1 Bft) NO 50 0 min 0,000 mm 0,0 UV-I 0 W/m -0,7 C 3,9 C 4,8 km/h (1 Bft) 98,11 %
05.02.2017 18:14 3,9 C 72 % 1002,2 hPa 0,0 l/m 4,4 km/h (1 Bft) O-NO 57 0 min 0,000 mm 0,0 UV-I 0 W/m -0,7 C 3,9 C 6,4 km/h (2 Bft) 93,62 %
05.02.2017 18:16 3,9 C 72 % 1002,2 hPa 0,0 l/m 4,9 km/h (1 Bft) O-NO 60 0 min 0,000 mm 0,0 UV-I 0 W/m -0,7 C 3,9 C 6,4 km/h (2 Bft) 98,00 %
05.02.2017 18:19 3,8 C 72 % 1002,1 hPa 0,0 l/m 4,8 km/h (1 Bft) O-NO 60 0 min 0,000 mm 0,0 UV-I 0 W/m -0,8 C 3,8 C 9,7 km/h (2 Bft) 98,44 %
05.02.2017 18:20 3,8 C 73 % 1002,1 hPa 0,0 l/m 6,2 km/h (2 Bft) O-NO 60 0 min 0,000 mm 0,0 UV-I 0 W/m -0,6 C 3,8 C 8,0 km/h (2 Bft) 96,67 %
05.02.2017 18:22 3,8 C 72 % 1002,2 hPa 0,0 l/m 6,9 km/h (2 Bft) NO 49 0 min 0,000 mm 0,0 UV-I 0 W/m -0,8 C 3,3 C 9,7 km/h (2 Bft) 97,56 %
05.02.2017 18:24 3,9 C 72 % 1002,2 hPa 0,0 l/m 6,9 km/h (2 Bft) NO 53 0 min 0,000 mm 0,0 UV-I 0 W/m -0,7 C 3,4 C 9,7 km/h (2 Bft) 96,23 %
05.02.2017 18:26 4,0 C 72 % 1002,3 hPa 0,0 l/m 7,9 km/h (2 Bft) NO 52 0 min 0,000 mm 0,0 UV-I 0 W/m -0,6 C 2,6 C 12,9 km/h (3 Bft) 97,37 %
05.02.2017 18:28 4,1 C 71 % 1002,2 hPa 0,0 l/m 9,0 km/h (2 Bft) NO 47 0 min 0,000 mm 0,0 UV-I 0 W/m -0,7 C 1,8 C 14,5 km/h (3 Bft) 97,87 %
05.02.2017 18:30 4,2 C 70 % 1002,2 hPa 0,0 l/m 9,9 km/h (2 Bft) NO 53 0 min 0,000 mm 0,0 UV-I 0 W/m -0,8 C 1,3 C 12,9 km/h (3 Bft) 96,23 %
05.02.2017 18:32 4,2 C 70 % 1002,3 hPa 0,0 l/m 8,8 km/h (2 Bft) O-NO 57 0 min 0,000 mm 0,0 UV-I 0 W/m -0,8 C 2,1 C 12,9 km/h (3 Bft) 97,56 %
05.02.2017 18:34 4,2 C 70 % 1002,3 hPa 0,0 l/m 10,1 km/h (2 Bft) O-NO 74 0 min 0,000 mm 0,0 UV-I 0 W/m -0,8 C 1,1 C 14,5 km/h (3 Bft) 96,23 %
05.02.2017 18:36 4,3 C 70 % 1002,3 hPa 0,0 l/m 10,8 km/h (2 Bft) O-NO 59 0 min 0,000 mm 0,0 UV-I 0 W/m -0,7 C 0,7 C 16,1 km/h (3 Bft) 97,56 %
05.02.2017 18:38 4,3 C 70 % 1002,3 hPa 0,0 l/m 11,5 km/h (2 Bft) NO 44 0 min 0,000 mm 0,0 UV-I 0 W/m -0,7 C 0,3 C 16,1 km/h (3 Bft) 98,11 %
05.02.2017 18:40 4,3 C 69 % 1002,3 hPa 0,0 l/m 11,0 km/h (2 Bft) O 84 0 min 0,000 mm 0,0 UV-I 0 W/m -0,9 C 0,6 C 17,7 km/h (3 Bft) 97,56 %
05.02.2017 18:42 4,3 C 69 % 1002,3 hPa 0,0 l/m 10,4 km/h (2 Bft) O 79 0 min 0,000 mm 0,0 UV-I 0 W/m -0,9 C 1,0 C 16,1 km/h (3 Bft) 92,00 %
05.02.2017 18:44 4,3 C 69 % 1002,2 hPa 0,0 l/m 12,3 km/h (3 Bft) O-NO 64 0 min 0,000 mm 0,0 UV-I 0 W/m -0,9 C -0,2 C 17,7 km/h (3 Bft) 91,67 %
05.02.2017 18:46 4,4 C 69 % 1002,3 hPa 0,0 l/m 11,2 km/h (2 Bft) O-NO 63 0 min 0,000 mm 0,0 UV-I 0 W/m -0,8 C 0,6 C 17,7 km/h (3 Bft) 97,01 %
05.02.2017 18:48 4,4 C 69 % 1002,3 hPa 0,0 l/m 12,4 km/h (3 Bft) NO 56 0 min 0,000 mm 0,0 UV-I 0 W/m -0,8 C -0,2 C 17,7 km/h (3 Bft) 96,23 %
05.02.2017 18:50 4,4 C 69 % 1002,3 hPa 0,0 l/m 10,6 km/h (2 Bft) O-NO 60 0 min 0,000 mm 0,0 UV-I 0 W/m -0,8 C 1,0 C 16,1 km/h (3 Bft) 100,00 %
05.02.2017 18:52 4,5 C 68 % 1002,3 hPa 0,0 l/m 11,7 km/h (2 Bft) NO 47 0 min 0,000 mm 0,0 UV-I 0 W/m -0,9 C 0,4 C 16,1 km/h (3 Bft) 98,21 %
05.02.2017 18:54 4,5 C 68 % 1002,3 hPa 0,0 l/m 12,2 km/h (2 Bft) O-NO 64 0 min 0,000 mm 0,0 UV-I 0 W/m -0,9 C 0,1 C 17,7 km/h (3 Bft) 100,00 %
05.02.2017 18:56 4,4 C 69 % 1002,3 hPa 0,0 l/m 9,1 km/h (2 Bft) O-NO 60 0 min 0,000 mm 0,0 UV-I 0 W/m -0,8 C 2,1 C 16,1 km/h (3 Bft) 100,00 %
05.02.2017 18:58 4,4 C 69 % 1002,2 hPa 0,0 l/m 12,4 km/h (3 Bft) O-NO 57 0 min 0,000 mm 0,0 UV-I 0 W/m -0,8 C -0,2 C 16,1 km/h (3 Bft) 97,56 %
05.02.2017 19:00 4,4 C 69 % 1002,3 hPa 0,0 l/m 11,4 km/h (2 Bft) O-NO 71 0 min 0,025 mm 0,0 UV-I 0 W/m -0,8 C 0,4 C 22,5 km/h (4 Bft) 98,11 %
05.02.2017 19:02 4,4 C 69 % 1002,2 hPa 0,0 l/m 14,8 km/h (3 Bft) NO 56 0 min 0,000 mm 0,0 UV-I 0 W/m -0,8 C -1,5 C 20,9 km/h (4 Bft) 92,11 %
05.02.2017 19:04 4,4 C 69 % 1002,2 hPa 0,0 l/m 13,3 km/h (3 Bft) O-NO 61 0 min 0,000 mm 0,0 UV-I 0 W/m -0,8 C -0,7 C 17,7 km/h (3 Bft) 100,00 %
05.02.2017 19:06 4,4 C 69 % 1002,2 hPa 0,0 l/m 13,2 km/h (3 Bft) O-NO 67 0 min 0,000 mm 0,0 UV-I 0 W/m -0,8 C -0,7 C 19,3 km/h (3 Bft) 100,00 %
05.02.2017 19:08 4,5 C 69 % 1002,2 hPa 0,0 l/m 14,7 km/h (3 Bft) NO 55 0 min 0,000 mm 0,0 UV-I 0 W/m -0,7 C -1,4 C 22,5 km/h (4 Bft) 98,11 %
05.02.2017 19:10 4,5 C 69 % 1002,2 hPa 0,0 l/m 12,7 km/h (3 Bft) O-NO 59 0 min 0,000 mm 0,0 UV-I 0 W/m -0,7 C -0,2 C 17,7 km/h (3 Bft) 97,56 %
05.02.2017 19:12 4,6 C 69 % 1002,3 hPa 0,0 l/m 13,5 km/h (3 Bft) NO 45 0 min 0,000 mm 0,0 UV-I 0 W/m -0,6 C -0,6 C 17,7 km/h (3 Bft) 100,00 %
05.02.2017 19:14 4,6 C 69 % 1002,3 hPa 0,0 l/m 13,2 km/h (3 Bft) O-NO 64 0 min 0,000 mm 0,0 UV-I 0 W/m -0,6 C -0,4 C 17,7 km/h (3 Bft) 100,00 %
05.02.2017 19:16 4,6 C 69 % 1002,2 hPa 0,0 l/m 13,6 km/h (3 Bft) NO 34 0 min 0,000 mm 0,0 UV-I 0 W/m -0,6 C -0,7 C 19,3 km/h (3 Bft) 97,73 %
05.02.2017 19:18 4,6 C 69 % 1002,2 hPa 0,0 l/m 16,2 km/h (3 Bft) O 81 0 min 0,000 mm 0,0 UV-I 0 W/m -0,6 C -2,0 C 20,9 km/h (4 Bft) 100,00 %
05.02.2017 19:20 4,7 C 69 % 1002,2 hPa 0,0 l/m 16,9 km/h (3 Bft) O-NO 69 0 min 0,000 mm 0,0 UV-I 0 W/m -0,5 C -2,2 C 25,7 km/h (4 Bft) 100,00 %
05.02.2017 19:22 4,7 C 69 % 1002,2 hPa 0,0 l/m 13,4 km/h (3 Bft) NO 46 0 min 0,000 mm 0,0 UV-I 0 W/m -0,5 C -0,4 C 19,3 km/h (3 Bft) 97,73 %
05.02.2017 19:24 4,7 C 69 % 1002,2 hPa 0,0 l/m 15,6 km/h (3 Bft) O 86 0 min 0,000 mm 0,0 UV-I 0 W/m -0,5 C -1,6 C 22,5 km/h (4 Bft) 100,00 %
05.02.2017 19:26 4,7 C 69 % 1002,2 hPa 0,0 l/m 17,5 km/h (3 Bft) O 79 0 min 0,000 mm 0,0 UV-I 0 W/m -0,5 C -2,5 C 25,7 km/h (4 Bft) 100,00 %
05.02.2017 19:28 4,7 C 69 % 1002,2 hPa 0,0 l/m 15,1 km/h (3 Bft) NO 54 0 min 0,000 mm 0,0 UV-I 0 W/m -0,5 C -1,3 C 20,9 km/h (4 Bft) 100,00 %
05.02.2017 19:30 4,7 C 69 % 1002,2 hPa 0,0 l/m 16,0 km/h (3 Bft) O-NO 67 0 min 0,000 mm 0,0 UV-I 0 W/m -0,5 C -1,8 C 24,1 km/h (4 Bft) 100,00 %
05.02.2017 19:32 4,7 C 69 % 1002,3 hPa 0,0 l/m 12,5 km/h (3 Bft) O-NO 74 0 min 0,000 mm 0,0 UV-I 0 W/m -0,5 C 0,1 C 22,5 km/h (4 Bft) 97,44 %
05.02.2017 19:34 4,7 C 70 % 1002,3 hPa 0,0 l/m 15,2 km/h (3 Bft) O 92 0 min 0,000 mm 0,0 UV-I 0 W/m -0,3 C -1,4 C 24,1 km/h (4 Bft) 98,11 %
05.02.2017 19:36 4,7 C 70 % 1002,3 hPa 0,0 l/m 16,9 km/h (3 Bft) O-NO 69 0 min 0,000 mm 0,0 UV-I 0 W/m -0,3 C -2,2 C 22,5 km/h (4 Bft) 97,56 %
05.02.2017 19:38 4,7 C 70 % 1002,3 hPa 0,0 l/m 16,0 km/h (3 Bft) NO 44 0 min 0,000 mm 0,0 UV-I 0 W/m -0,3 C -1,8 C 25,7 km/h (4 Bft) 98,00 %
05.02.2017 19:40 4,7 C 70 % 1002,4 hPa 0,0 l/m 16,7 km/h (3 Bft) O-NO 57 0 min 0,000 mm 0,0 UV-I 0 W/m -0,3 C -2,1 C 24,1 km/h (4 Bft) 97,87 %
05.02.2017 19:42 4,7 C 70 % 1002,4 hPa 0,0 l/m 16,7 km/h (3 Bft) NO 43 0 min 0,000 mm 0,0 UV-I 0 W/m -0,3 C -2,1 C 20,9 km/h (4 Bft) 100,00 %
05.02.2017 19:44 4,7 C 70 % 1002,4 hPa 0,0 l/m 14,4 km/h (3 Bft) O-NO 57 0 min 0,000 mm 0,0 UV-I 0 W/m -0,3 C -1,0 C 22,5 km/h (4 Bft) 100,00 %
05.02.2017 19:46 4,7 C 70 % 1002,4 hPa 0,0 l/m 10,5 km/h (2 Bft) NO 55 0 min 0,000 mm 0,0 UV-I 0 W/m -0,3 C 1,4 C 16,1 km/h (3 Bft) 96,00 %
05.02.2017 19:48 4,6 C 70 % 1002,5 hPa 0,0 l/m 11,1 km/h (2 Bft) O-NO 69 0 min 0,000 mm 0,0 UV-I 0 W/m -0,4 C 0,9 C 17,7 km/h (3 Bft) 100,00 %
05.02.2017 19:50 4,5 C 71 % 1002,4 hPa 0,0 l/m 9,4 km/h (2 Bft) O-NO 65 0 min 0,000 mm 0,0 UV-I 0 W/m -0,3 C 2,0 C 17,7 km/h (3 Bft) 100,00 %
05.02.2017 19:52 4,4 C 71 % 1002,4 hPa 0,0 l/m 10,9 km/h (2 Bft) O-NO 57 0 min 0,000 mm 0,0 UV-I 0 W/m -0,4 C 0,8 C 14,5 km/h (3 Bft) 100,00 %
05.02.2017 19:54 4,4 C 71 % 1002,4 hPa 0,0 l/m 13,5 km/h (3 Bft) O-NO 59 0 min 0,000 mm 0,0 UV-I 0 W/m -0,4 C -0,8 C 17,7 km/h (3 Bft) 92,31 %
05.02.2017 19:56 4,4 C 72 % 1002,4 hPa 0,0 l/m 14,0 km/h (3 Bft) O-NO 72 0 min 0,000 mm 0,0 UV-I 0 W/m -0,2 C -1,1 C 20,9 km/h (4 Bft) 100,00 %
05.02.2017 19:58 4,4 C 72 % 1002,4 hPa 0,0 l/m 11,2 km/h (2 Bft) NO 48 0 min 0,000 mm 0,0 UV-I 0 W/m -0,2 C 0,6 C 16,1 km/h (3 Bft) 100,00 %
05.02.2017 20:00 4,3 C 72 % 1002,4 hPa 0,0 l/m 11,1 km/h (2 Bft) NO 44 0 min 0,051 mm 0,0 UV-I 0 W/m -0,3 C 0,5 C 16,1 km/h (3 Bft) 100,00 %
05.02.2017 20:02 4,3 C 72 % 1002,4 hPa 0,0 l/m 11,3 km/h (2 Bft) NO 51 0 min 0,000 mm 0,0 UV-I 0 W/m -0,3 C 0,4 C 17,7 km/h (3 Bft) 100,00 %
05.02.2017 20:04 4,3 C 72 % 1002,3 hPa 0,0 l/m 7,2 km/h (2 Bft) O-NO 69 0 min 0,000 mm 0,0 UV-I 0 W/m -0,3 C 3,6 C 14,5 km/h (3 Bft) 100,00 %
05.02.2017 20:06 4,3 C 72 % 1002,3 hPa 0,0 l/m 9,9 km/h (2 Bft) NO 52 0 min 0,000 mm 0,0 UV-I 0 W/m -0,3 C 1,4 C 19,3 km/h (3 Bft) 100,00 %
05.02.2017 20:08 4,2 C 73 % 1002,4 hPa 0,0 l/m 12,0 km/h (2 Bft) O-NO 58 0 min 0,000 mm 0,0 UV-I 0 W/m -0,2 C -0,2 C 16,1 km/h (3 Bft) 100,00 %
05.02.2017 20:10 4,2 C 73 % 1002,4 hPa 0,0 l/m 12,6 km/h (3 Bft) NO 55 0 min 0,000 mm 0,0 UV-I 0 W/m -0,2 C -0,5 C 20,9 km/h (4 Bft) 100,00 %
05.02.2017 20:12 4,2 C 73 % 1002,4 hPa 0,0 l/m 14,2 km/h (3 Bft) NO 51 0 min 0,000 mm 0,0 UV-I 0 W/m -0,2 C -1,5 C 19,3 km/h (3 Bft) 98,11 %
05.02.2017 20:14 4,2 C 73 % 1002,4 hPa 0,0 l/m 12,4 km/h (3 Bft) NO 51 0 min 0,000 mm 0,0 UV-I 0 W/m -0,2 C -0,4 C 20,9 km/h (4 Bft) 100,00 %
05.02.2017 20:16 4,2 C 73 % 1002,4 hPa 0,0 l/m 12,6 km/h (3 Bft) NO 55 0 min 0,000 mm 0,0 UV-I 0 W/m -0,2 C -0,5 C 17,7 km/h (3 Bft) 98,11 %
05.02.2017 20:18 4,2 C 74 % 1002,5 hPa 0,0 l/m 11,5 km/h (2 Bft) O-NO 65 0 min 0,000 mm 0,0 UV-I 0 W/m -0,0 C 0,2 C 16,1 km/h (3 Bft) 100,00 %
05.02.2017 20:20 4,2 C 74 % 1002,5 hPa 0,0 l/m 9,8 km/h (2 Bft) O-NO 60 0 min 0,000 mm 0,0 UV-I 0 W/m -0,0 C 1,3 C 16,1 km/h (3 Bft) 95,12 %
05.02.2017 20:22 4,1 C 74 % 1002,5 hPa 0,0 l/m 9,9 km/h (2 Bft) O-NO 61 0 min 0,000 mm 0,0 UV-I 0 W/m -0,1 C 1,2 C 14,5 km/h (3 Bft) 97,56 %
05.02.2017 20:24 4,1 C 74 % 1002,6 hPa 0,0 l/m 7,8 km/h (2 Bft) O 79 0 min 0,000 mm 0,0 UV-I 0 W/m -0,1 C 2,8 C 11,3 km/h (2 Bft) 98,21 %
05.02.2017 20:26 4,1 C 74 % 1002,5 hPa 0,0 l/m 7,7 km/h (2 Bft) NO 53 0 min 0,000 mm 0,0 UV-I 0 W/m -0,1 C 2,9 C 12,9 km/h (3 Bft) 95,74 %
05.02.2017 20:28 4,0 C 75 % 1002,6 hPa 0,0 l/m 8,4 km/h (2 Bft) NO 55 0 min 0,000 mm 0,0 UV-I 0 W/m -0,0 C 2,2 C 16,1 km/h (3 Bft) 98,00 %
05.02.2017 20:30 4,0 C 75 % 1002,6 hPa 0,0 l/m 10,2 km/h (2 Bft) NO 46 0 min 0,000 mm 0,0 UV-I 0 W/m -0,0 C 0,8 C 16,1 km/h (3 Bft) 97,73 %
05.02.2017 20:32 4,0 C 75 % 1002,7 hPa 0,0 l/m 10,5 km/h (2 Bft) NO 55 0 min 0,000 mm 0,0 UV-I 0 W/m -0,0 C 0,6 C 17,7 km/h (3 Bft) 94,34 %
05.02.2017 20:34 4,0 C 75 % 1002,6 hPa 0,0 l/m 10,7 km/h (2 Bft) O-NO 73 0 min 0,000 mm 0,0 UV-I 0 W/m -0,0 C 0,5 C 16,1 km/h (3 Bft) 98,00 %
05.02.2017 20:36 4,1 C 75 % 1002,6 hPa 0,0 l/m 12,3 km/h (3 Bft) O-NO 66 0 min 0,000 mm 0,0 UV-I 0 W/m 0,1 C -0,5 C 17,7 km/h (3 Bft) 97,73 %
05.02.2017 20:38 4,0 C 75 % 1002,5 hPa 0,0 l/m 13,0 km/h (3 Bft) NO 54 0 min 0,000 mm 0,0 UV-I 0 W/m -0,0 C -1,0 C 19,3 km/h (3 Bft) 97,56 %
05.02.2017 20:40 4,1 C 75 % 1002,5 hPa 0,0 l/m 11,7 km/h (2 Bft) O-NO 57 0 min 0,000 mm 0,0 UV-I 0 W/m 0,1 C -0,1 C 19,3 km/h (3 Bft) 98,00 %
05.02.2017 20:42 4,0 C 75 % 1002,5 hPa 0,0 l/m 9,7 km/h (2 Bft) O-NO 67 0 min 0,000 mm 0,0 UV-I 0 W/m -0,0 C 1,2 C 14,5 km/h (3 Bft) 98,00 %
05.02.2017 20:44 3,9 C 75 % 1002,5 hPa 0,0 l/m 10,2 km/h (2 Bft) NO 45 0 min 0,000 mm 0,0 UV-I 0 W/m -0,1 C 0,7 C 14,5 km/h (3 Bft) 97,56 %
05.02.2017 20:46 3,9 C 76 % 1002,5 hPa 0,0 l/m 11,0 km/h (2 Bft) O-NO 60 0 min 0,000 mm 0,0 UV-I 0 W/m 0,1 C 0,1 C 19,3 km/h (3 Bft) 97,62 %
05.02.2017 20:48 3,8 C 76 % 1002,5 hPa 0,0 l/m 7,5 km/h (2 Bft) NO 35 0 min 0,000 mm 0,0 UV-I 0 W/m -0,0 C 2,8 C 9,7 km/h (2 Bft) 98,11 %
05.02.2017 20:50 3,8 C 76 % 1002,5 hPa 0,0 l/m 6,9 km/h (2 Bft) O-NO 58 0 min 0,000 mm 0,0 UV-I 0 W/m -0,0 C 3,3 C 14,5 km/h (3 Bft) 97,73 %
05.02.2017 20:52 3,7 C 76 % 1002,5 hPa 0,0 l/m 9,8 km/h (2 Bft) N-NO 17 0 min 0,000 mm 0,0 UV-I 0 W/m -0,1 C 0,8 C 16,1 km/h (3 Bft) 96,43 %
05.02.2017 20:54 3,6 C 77 % 1002,5 hPa 0,0 l/m 10,7 km/h (2 Bft) NO 55 0 min 0,000 mm 0,0 UV-I 0 W/m -0,0 C 0,0 C 16,1 km/h (3 Bft) 97,87 %
05.02.2017 20:56 3,5 C 77 % 1002,5 hPa 0,0 l/m 10,1 km/h (2 Bft) N-NO 31 0 min 0,000 mm 0,0 UV-I 0 W/m -0,1 C 0,3 C 17,7 km/h (3 Bft) 100,00 %
05.02.2017 20:58 3,6 C 78 % 1002,5 hPa 0,0 l/m 8,6 km/h (2 Bft) O-NO 63 0 min 0,000 mm 0,0 UV-I 0 W/m 0,1 C 1,6 C 12,9 km/h (3 Bft) 97,73 %
05.02.2017 21:00 3,5 C 78 % 1002,5 hPa 0,0 l/m 8,8 km/h (2 Bft) N-NO 26 0 min 0,000 mm 0,0 UV-I 0 W/m 0,0 C 1,4 C 12,9 km/h (3 Bft) 98,21 %
05.02.2017 21:02 3,4 C 78 % 1002,5 hPa 0,0 l/m 9,5 km/h (2 Bft) NO 34 0 min 0,025 mm 0,0 UV-I 0 W/m -0,1 C 0,7 C 16,1 km/h (3 Bft) 100,00 %
05.02.2017 21:04 3,4 C 78 % 1002,5 hPa 0,0 l/m 10,9 km/h (2 Bft) NO 37 0 min 0,000 mm 0,0 UV-I 0 W/m -0,1 C -0,3 C 16,1 km/h (3 Bft) 100,00 %
05.02.2017 21:06 3,4 C 78 % 1002,5 hPa 0,0 l/m 12,2 km/h (2 Bft) N-NO 28 0 min 0,000 mm 0,0 UV-I 0 W/m -0,1 C -1,2 C 16,1 km/h (3 Bft) 98,11 %
05.02.2017 21:08 3,4 C 78 % 1002,4 hPa 0,0 l/m 11,1 km/h (2 Bft) NO 37 0 min 0,000 mm 0,0 UV-I 0 W/m -0,1 C -0,5 C 17,7 km/h (3 Bft) 100,00 %
05.02.2017 21:10 3,5 C 78 % 1002,4 hPa 0,0 l/m 10,1 km/h (2 Bft) NO 43 0 min 0,000 mm 0,0 UV-I 0 W/m 0,0 C 0,3 C 16,1 km/h (3 Bft) 100,00 %
05.02.2017 21:12 3,5 C 78 % 1002,5 hPa 0,0 l/m 8,5 km/h (2 Bft) O-NO 75 0 min 0,000 mm 0,0 UV-I 0 W/m 0,0 C 1,6 C 14,5 km/h (3 Bft) 100,00 %
05.02.2017 21:14 3,6 C 78 % 1002,7 hPa 0,0 l/m 6,2 km/h (2 Bft) NO 54 0 min 0,000 mm 0,0 UV-I 0 W/m 0,1 C 3,6 C 11,3 km/h (2 Bft) 100,00 %
05.02.2017 21:16 3,6 C 78 % 1002,8 hPa 0,0 l/m 6,6 km/h (2 Bft) O-NO 66 0 min 0,000 mm 0,0 UV-I 0 W/m 0,1 C 3,4 C 8,0 km/h (2 Bft) 97,56 %
05.02.2017 21:18 3,5 C 78 % 1002,8 hPa 0,0 l/m 6,5 km/h (2 Bft) O-NO 61 0 min 0,000 mm 0,0 UV-I 0 W/m 0,0 C 3,4 C 9,7 km/h (2 Bft) 100,00 %
05.02.2017 21:20 3,5 C 78 % 1002,7 hPa 0,0 l/m 8,8 km/h (2 Bft) NO 46 0 min 0,000 mm 0,0 UV-I 0 W/m 0,0 C 1,4 C 14,5 km/h (3 Bft) 100,00 %
05.02.2017 21:22 3,6 C 78 % 1002,6 hPa 0,0 l/m 7,9 km/h (2 Bft) NO 55 0 min 0,000 mm 0,0 UV-I 0 W/m 0,1 C 2,2 C 14,5 km/h (3 Bft) 100,00 %
05.02.2017 21:24 3,6 C 78 % 1002,5 hPa 0,0 l/m 9,9 km/h (2 Bft) NO 46 0 min 0,000 mm 0,0 UV-I 0 W/m 0,1 C 0,6 C 17,7 km/h (3 Bft) 100,00 %
05.02.2017 21:26 3,6 C 78 % 1002,5 hPa 0,0 l/m 9,0 km/h (2 Bft) N-NO 32 0 min 0,000 mm 0,0 UV-I 0 W/m 0,1 C 1,3 C 16,1 km/h (3 Bft) 98,00 %
05.02.2017 21:28 3,6 C 78 % 1002,4 hPa 0,0 l/m 8,8 km/h (2 Bft) O-NO 61 0 min 0,000 mm 0,0 UV-I 0 W/m 0,1 C 1,5 C 14,5 km/h (3 Bft) 100,00 %
05.02.2017 21:30 3,6 C 78 % 1002,4 hPa 0,0 l/m 12,2 km/h (2 Bft) NO 46 0 min 0,000 mm 0,0 UV-I 0 W/m 0,1 C -1,0 C 16,1 km/h (3 Bft) 100,00 %
05.02.2017 21:32 3,7 C 78 % 1002,4 hPa 0,0 l/m 14,2 km/h (3 Bft) NO 56 0 min 0,000 mm 0,0 UV-I 0 W/m 0,2 C -2,1 C 19,3 km/h (3 Bft) 100,00 %
05.02.2017 21:34 3,7 C 78 % 1002,4 hPa 0,0 l/m 13,6 km/h (3 Bft) O-NO 57 0 min 0,000 mm 0,0 UV-I 0 W/m 0,2 C -1,7 C 17,7 km/h (3 Bft) 96,43 %
05.02.2017 21:36 3,7 C 78 % 1002,4 hPa 0,0 l/m 13,7 km/h (3 Bft) NO 37 0 min 0,000 mm 0,0 UV-I 0 W/m 0,2 C -1,8 C 17,7 km/h (3 Bft) 100,00 %
05.02.2017 21:38 3,7 C 78 % 1002,3 hPa 0,0 l/m 10,9 km/h (2 Bft) NO 44 0 min 0,000 mm 0,0 UV-I 0 W/m 0,2 C -0,0 C 16,1 km/h (3 Bft) 100,00 %
05.02.2017 21:40 3,6 C 78 % 1002,3 hPa 0,0 l/m 10,9 km/h (2 Bft) NO 51 0 min 0,000 mm 0,0 UV-I 0 W/m 0,1 C -0,1 C 16,1 km/h (3 Bft) 97,87 %
05.02.2017 21:42 3,6 C 78 % 1002,2 hPa 0,0 l/m 9,0 km/h (2 Bft) O-NO 57 0 min 0,000 mm 0,0 UV-I 0 W/m 0,1 C 1,3 C 14,5 km/h (3 Bft) 100,00 %
05.02.2017 21:44 3,5 C 78 % 1002,3 hPa 0,0 l/m 8,9 km/h (2 Bft) NO 46 0 min 0,000 mm 0,0 UV-I 0 W/m 0,0 C 1,3 C 14,5 km/h (3 Bft) 100,00 %
05.02.2017 21:46 3,4 C 79 % 1002,3 hPa 0,0 l/m 10,1 km/h (2 Bft) NO 52 0 min 0,000 mm 0,0 UV-I 0 W/m 0,1 C 0,2 C 12,9 km/h (3 Bft) 100,00 %
05.02.2017 21:48 3,4 C 79 % 1002,3 hPa 0,0 l/m 10,2 km/h (2 Bft) O-NO 69 0 min 0,000 mm 0,0 UV-I 0 W/m 0,1 C 0,2 C 14,5 km/h (3 Bft) 100,00 %
05.02.2017 21:50 3,4 C 79 % 1002,3 hPa 0,0 l/m 9,0 km/h (2 Bft) O-NO 60 0 min 0,000 mm 0,0 UV-I 0 W/m 0,1 C 1,1 C 12,9 km/h (3 Bft) 98,11 %
05.02.2017 21:52 3,3 C 79 % 1002,3 hPa 0,0 l/m 8,7 km/h (2 Bft) NO 56 0 min 0,000 mm 0,0 UV-I 0 W/m 0,0 C 1,2 C 14,5 km/h (3 Bft) 98,11 %
05.02.2017 21:54 3,3 C 79 % 1002,3 hPa 0,0 l/m 9,1 km/h (2 Bft) O-NO 60 0 min 0,000 mm 0,0 UV-I 0 W/m 0,0 C 0,9 C 14,5 km/h (3 Bft) 95,74 %
05.02.2017 21:56 3,3 C 79 % 1002,3 hPa 0,0 l/m 10,8 km/h (2 Bft) NO 52 0 min 0,000 mm 0,0 UV-I 0 W/m 0,0 C -0,4 C 14,5 km/h (3 Bft) 100,00 %
05.02.2017 21:58 3,3 C 80 % 1002,3 hPa 0,0 l/m 13,1 km/h (3 Bft) NO 50 0 min 0,000 mm 0,0 UV-I 0 W/m 0,2 C -1,9 C 17,7 km/h (3 Bft) 100,00 %
05.02.2017 22:00 3,2 C 80 % 1002,3 hPa 0,0 l/m 11,2 km/h (2 Bft) NO 50 0 min 0,026 mm 0,0 UV-I 0 W/m 0,1 C -0,8 C 16,1 km/h (3 Bft) 100,00 %
05.02.2017 22:02 3,2 C 80 % 1002,3 hPa 0,0 l/m 9,2 km/h (2 Bft) NO 45 0 min 0,000 mm 0,0 UV-I 0 W/m 0,1 C 0,7 C 14,5 km/h (3 Bft) 97,37 %
05.02.2017 22:04 3,1 C 80 % 1002,3 hPa 0,0 l/m 10,1 km/h (2 Bft) O-NO 70 0 min 0,000 mm 0,0 UV-I 0 W/m -0,0 C -0,1 C 14,5 km/h (3 Bft) 96,23 %
05.02.2017 22:06 3,1 C 81 % 1002,3 hPa 0,0 l/m 9,3 km/h (2 Bft) N-NO 25 0 min 0,000 mm 0,0 UV-I 0 W/m 0,2 C 0,5 C 14,5 km/h (3 Bft) 100,00 %
05.02.2017 22:08 3,0 C 81 % 1002,3 hPa 0,0 l/m 10,1 km/h (2 Bft) O-NO 58 0 min 0,000 mm 0,0 UV-I 0 W/m 0,1 C -0,2 C 14,5 km/h (3 Bft) 100,00 %
05.02.2017 22:10 2,9 C 81 % 1002,4 hPa 0,0 l/m 10,6 km/h (2 Bft) O-NO 58 0 min 0,000 mm 0,0 UV-I 0 W/m -0,0 C -0,7 C 14,5 km/h (3 Bft) 100,00 %
05.02.2017 22:12 2,9 C 81 % 1002,3 hPa 0,0 l/m 9,8 km/h (2 Bft) NO 42 0 min 0,000 mm 0,0 UV-I 0 W/m -0,0 C -0,1 C 16,1 km/h (3 Bft) 97,87 %
05.02.2017 22:14 3,0 C 82 % 1002,2 hPa 0,0 l/m 10,1 km/h (2 Bft) NO 39 0 min 0,000 mm 0,0 UV-I 0 W/m 0,2 C -0,2 C 16,1 km/h (3 Bft) 100,00 %
05.02.2017 22:16 3,1 C 81 % 1002,1 hPa 0,0 l/m 10,8 km/h (2 Bft) NO 42 0 min 0,000 mm 0,0 UV-I 0 W/m 0,2 C -0,6 C 19,3 km/h (3 Bft) 100,00 %
05.02.2017 22:18 3,1 C 81 % 1002,2 hPa 0,0 l/m 9,7 km/h (2 Bft) O-NO 63 0 min 0,000 mm 0,0 UV-I 0 W/m 0,2 C 0,2 C 17,7 km/h (3 Bft) 97,56 %
05.02.2017 22:20 3,1 C 81 % 1002,2 hPa 0,0 l/m 11,6 km/h (2 Bft) O-NO 59 0 min 0,000 mm 0,0 UV-I 0 W/m 0,2 C -1,2 C 17,7 km/h (3 Bft) 98,11 %
05.02.2017 22:22 3,2 C 81 % 1002,2 hPa 0,0 l/m 13,1 km/h (3 Bft) O-NO 63 0 min 0,000 mm 0,0 UV-I 0 W/m 0,3 C -2,0 C 19,3 km/h (3 Bft) 100,00 %
05.02.2017 22:24 3,2 C 81 % 1002,2 hPa 0,0 l/m 11,9 km/h (2 Bft) NO 44 0 min 0,000 mm 0,0 UV-I 0 W/m 0,3 C -1,3 C 17,7 km/h (3 Bft) 100,00 %
05.02.2017 22:26 3,2 C 81 % 1002,1 hPa 0,0 l/m 11,0 km/h (2 Bft) NO 34 0 min 0,000 mm 0,0 UV-I 0 W/m 0,3 C -0,6 C 16,1 km/h (3 Bft) 97,87 %
05.02.2017 22:28 3,2 C 82 % 1002,1 hPa 0,0 l/m 12,6 km/h (3 Bft) NO 40 0 min 0,000 mm 0,0 UV-I 0 W/m 0,4 C -1,7 C 17,7 km/h (3 Bft) 97,37 %
05.02.2017 22:30 3,2 C 82 % 1002,0 hPa 0,0 l/m 12,8 km/h (3 Bft) NO 44 0 min 0,000 mm 0,0 UV-I 0 W/m 0,4 C -1,8 C 17,7 km/h (3 Bft) 98,21 %
05.02.2017 22:32 3,2 C 82 % 1002,0 hPa 0,0 l/m 13,8 km/h (3 Bft) NO 51 0 min 0,000 mm 0,0 UV-I 0 W/m 0,4 C -2,4 C 19,3 km/h (3 Bft) 97,56 %
05.02.2017 22:34 3,2 C 82 % 1002,0 hPa 0,0 l/m 12,7 km/h (3 Bft) O-NO 61 0 min 0,000 mm 0,0 UV-I 0 W/m 0,4 C -1,8 C 17,7 km/h (3 Bft) 94,00 %
05.02.2017 22:36 3,2 C 82 % 1002,0 hPa 0,0 l/m 13,0 km/h (3 Bft) NO 48 0 min 0,000 mm 0,0 UV-I 0 W/m 0,4 C -1,9 C 17,7 km/h (3 Bft) 95,45 %
05.02.2017 22:38 3,2 C 82 % 1002,0 hPa 0,0 l/m 12,2 km/h (2 Bft) NO 54 0 min 0,000 mm 0,0 UV-I 0 W/m 0,4 C -1,4 C 19,3 km/h (3 Bft) 97,87 %
05.02.2017 22:40 3,1 C 82 % 1001,9 hPa 0,0 l/m 12,3 km/h (3 Bft) NO 52 0 min 0,000 mm 0,0 UV-I 0 W/m 0,3 C -1,6 C 16,1 km/h (3 Bft) 98,00 %
05.02.2017 22:42 3,1 C 82 % 1001,9 hPa 0,0 l/m 12,2 km/h (2 Bft) NO 56 0 min 0,000 mm 0,0 UV-I 0 W/m 0,3 C -1,6 C 17,7 km/h (3 Bft) 97,56 %
05.02.2017 22:44 3,1 C 83 % 1001,9 hPa 0,0 l/m 10,9 km/h (2 Bft) NO 37 0 min 0,000 mm 0,0 UV-I 0 W/m 0,5 C -0,7 C 16,1 km/h (3 Bft) 98,00 %
05.02.2017 22:46 3,1 C 83 % 1001,9 hPa 0,0 l/m 13,1 km/h (3 Bft) O-NO 63 0 min 0,000 mm 0,0 UV-I 0 W/m 0,5 C -2,1 C 20,9 km/h (4 Bft) 98,11 %
05.02.2017 22:48 3,0 C 83 % 1001,9 hPa 0,0 l/m 13,0 km/h (3 Bft) NO 46 0 min 0,000 mm 0,0 UV-I 0 W/m 0,4 C -2,2 C 19,3 km/h (3 Bft) 97,44 %
05.02.2017 22:50 3,1 C 83 % 1002,0 hPa 0,0 l/m 10,0 km/h (2 Bft) NO 47 0 min 0,000 mm 0,0 UV-I 0 W/m 0,5 C -0,0 C 19,3 km/h (3 Bft) 97,73 %
05.02.2017 22:52 3,0 C 83 % 1002,1 hPa 0,0 l/m 9,9 km/h (2 Bft) O-NO 59 0 min 0,000 mm 0,0 UV-I 0 W/m 0,4 C -0,1 C 17,7 km/h (3 Bft) 98,00 %
05.02.2017 22:54 3,0 C 84 % 1002,1 hPa 0,0 l/m 9,2 km/h (2 Bft) NO 53 0 min 0,000 mm 0,0 UV-I 0 W/m 0,6 C 0,5 C 16,1 km/h (3 Bft) 93,62 %
05.02.2017 22:56 3,0 C 84 % 1002,1 hPa 0,0 l/m 12,4 km/h (3 Bft) O-NO 60 0 min 0,000 mm 0,0 UV-I 0 W/m 0,6 C -1,8 C 17,7 km/h (3 Bft) 97,56 %
05.02.2017 22:58 3,0 C 84 % 1002,2 hPa 0,0 l/m 10,3 km/h (2 Bft) O-NO 62 0 min 0,000 mm 0,0 UV-I 0 W/m 0,6 C -0,4 C 14,5 km/h (3 Bft) 98,31 %
05.02.2017 23:00 2,9 C 84 % 1002,3 hPa 0,0 l/m 10,5 km/h (2 Bft) O 81 0 min 0,000 mm 0,0 UV-I 0 W/m 0,5 C -0,6 C 14,5 km/h (3 Bft) 96,15 %
05.02.2017 23:02 2,9 C 84 % 1002,3 hPa 0,0 l/m 9,9 km/h (2 Bft) NO 52 0 min 0,025 mm 0,0 UV-I 0 W/m 0,5 C -0,2 C 14,5 km/h (3 Bft) 98,53 %
05.02.2017 23:04 2,9 C 84 % 1002,3 hPa 0,0 l/m 12,2 km/h (2 Bft) NO 55 0 min 0,000 mm 0,0 UV-I 0 W/m 0,5 C -1,8 C 16,1 km/h (3 Bft) 97,56 %
05.02.2017 23:06 2,9 C 84 % 1002,4 hPa 0,0 l/m 11,5 km/h (2 Bft) NO 40 0 min 0,000 mm 0,0 UV-I 0 W/m 0,5 C -1,3 C 14,5 km/h (3 Bft) 96,23 %
05.02.2017 23:08 2,9 C 84 % 1002,2 hPa 0,0 l/m 11,4 km/h (2 Bft) NO 42 0 min 0,000 mm 0,0 UV-I 0 W/m 0,5 C -1,3 C 16,1 km/h (3 Bft) 100,00 %
05.02.2017 23:10 2,9 C 84 % 1002,2 hPa 0,0 l/m 8,3 km/h (2 Bft) NO 41 0 min 0,000 mm 0,0 UV-I 0 W/m 0,5 C 1,1 C 12,9 km/h (3 Bft) 100,00 %
05.02.2017 23:12 2,9 C 85 % 1002,2 hPa 0,0 l/m 12,9 km/h (3 Bft) NO 54 0 min 0,000 mm 0,0 UV-I 0 W/m 0,6 C -2,2 C 20,9 km/h (4 Bft) 97,37 %
05.02.2017 23:14 2,8 C 85 % 1002,2 hPa 0,0 l/m 13,2 km/h (3 Bft) NO 54 0 min 0,000 mm 0,0 UV-I 0 W/m 0,5 C -2,5 C 17,7 km/h (3 Bft) 100,00 %
05.02.2017 23:16 2,8 C 85 % 1002,2 hPa 0,0 l/m 10,6 km/h (2 Bft) O-NO 62 0 min 0,000 mm 0,0 UV-I 0 W/m 0,5 C -0,8 C 14,5 km/h (3 Bft) 100,00 %
05.02.2017 23:18 2,8 C 85 % 1002,2 hPa 0,0 l/m 10,7 km/h (2 Bft) O-NO 63 0 min 0,000 mm 0,0 UV-I 0 W/m 0,5 C -0,9 C 14,5 km/h (3 Bft) 100,00 %
05.02.2017 23:20 2,8 C 85 % 1002,2 hPa 0,0 l/m 7,9 km/h (2 Bft) NO 55 0 min 0,000 mm 0,0 UV-I 0 W/m 0,5 C 1,4 C 11,3 km/h (2 Bft) 100,00 %
05.02.2017 23:22 2,7 C 85 % 1002,2 hPa 0,0 l/m 9,0 km/h (2 Bft) O-NO 66 0 min 0,000 mm 0,0 UV-I 0 W/m 0,4 C 0,3 C 14,5 km/h (3 Bft) 100,00 %
05.02.2017 23:24 2,7 C 85 % 1002,3 hPa 0,0 l/m 10,6 km/h (2 Bft) NO 52 0 min 0,000 mm 0,0 UV-I 0 W/m 0,4 C -0,9 C 17,7 km/h (3 Bft) 100,00 %
05.02.2017 23:26 2,7 C 86 % 1002,3 hPa 0,0 l/m 11,1 km/h (2 Bft) O-NO 71 0 min 0,000 mm 0,0 UV-I 0 W/m 0,6 C -1,3 C 16,1 km/h (3 Bft) 98,21 %
05.02.2017 23:28 2,7 C 86 % 1002,3 hPa 0,0 l/m 11,2 km/h (2 Bft) O-NO 60 0 min 0,000 mm 0,0 UV-I 0 W/m 0,6 C -1,3 C 14,5 km/h (3 Bft) 100,00 %
05.02.2017 23:30 2,7 C 86 % 1002,4 hPa 0,0 l/m 11,7 km/h (2 Bft) O-NO 59 0 min 0,000 mm 0,0 UV-I 0 W/m 0,6 C -1,7 C 16,1 km/h (3 Bft) 98,31 %
05.02.2017 23:32 2,7 C 86 % 1002,4 hPa 0,0 l/m 8,4 km/h (2 Bft) NO 48 0 min 0,000 mm 0,0 UV-I 0 W/m 0,6 C 0,8 C 11,3 km/h (2 Bft) 92,11 %
05.02.2017 23:34 2,6 C 86 % 1002,5 hPa 0,0 l/m 8,5 km/h (2 Bft) O-NO 74 0 min 0,000 mm 0,0 UV-I 0 W/m 0,5 C 0,6 C 11,3 km/h (2 Bft) 100,00 %
05.02.2017 23:36 2,6 C 86 % 1002,5 hPa 0,0 l/m 9,1 km/h (2 Bft) NO 44 0 min 0,000 mm 0,0 UV-I 0 W/m 0,5 C 0,1 C 14,5 km/h (3 Bft) 100,00 %
05.02.2017 23:38 2,6 C 86 % 1002,5 hPa 0,0 l/m 8,9 km/h (2 Bft) O-NO 63 0 min 0,000 mm 0,0 UV-I 0 W/m 0,5 C 0,3 C 12,9 km/h (3 Bft) 100,00 %
05.02.2017 23:40 2,6 C 86 % 1002,5 hPa 0,0 l/m 9,1 km/h (2 Bft) NO 46 0 min 0,000 mm 0,0 UV-I 0 W/m 0,5 C 0,1 C 11,3 km/h (2 Bft) 98,11 %
05.02.2017 23:42 2,6 C 86 % 1002,4 hPa 0,0 l/m 7,7 km/h (2 Bft) O-NO 64 0 min 0,000 mm 0,0 UV-I 0 W/m 0,5 C 1,4 C 12,9 km/h (3 Bft) 97,56 %
05.02.2017 23:44 2,6 C 86 % 1002,4 hPa 0,0 l/m 10,2 km/h (2 Bft) O-NO 65 0 min 0,000 mm 0,0 UV-I 0 W/m 0,5 C -0,7 C 16,1 km/h (3 Bft) 98,00 %
05.02.2017 23:46 2,6 C 86 % 1002,4 hPa 0,0 l/m 10,3 km/h (2 Bft) O-NO 61 0 min 0,000 mm 0,0 UV-I 0 W/m 0,5 C -0,8 C 14,5 km/h (3 Bft) 100,00 %
05.02.2017 23:48 2,6 C 86 % 1002,4 hPa 0,0 l/m 9,6 km/h (2 Bft) O-NO 61 0 min 0,000 mm 0,0 UV-I 0 W/m 0,5 C -0,3 C 12,9 km/h (3 Bft) 100,00 %
05.02.2017 23:50 2,5 C 87 % 1002,4 hPa 0,0 l/m 10,7 km/h (2 Bft) NO 49 0 min 0,000 mm 0,0 UV-I 0 W/m 0,6 C -1,2 C 16,1 km/h (3 Bft) 100,00 %
05.02.2017 23:52 2,5 C 87 % 1002,5 hPa 0,0 l/m 9,7 km/h (2 Bft) NO 53 0 min 0,000 mm 0,0 UV-I 0 W/m 0,6 C -0,5 C 12,9 km/h (3 Bft) 100,00 %
05.02.2017 23:54 2,4 C 87 % 1002,5 hPa 0,0 l/m 9,8 km/h (2 Bft) NO 46 0 min 0,000 mm 0,0 UV-I 0 W/m 0,5 C -0,6 C 16,1 km/h (3 Bft) 100,00 %
05.02.2017 23:56 2,4 C 87 % 1002,5 hPa 0,0 l/m 8,9 km/h (2 Bft) NO 41 0 min 0,000 mm 0,0 UV-I 0 W/m 0,5 C 0,1 C 12,9 km/h (3 Bft) 100,00 %
05.02.2017 23:58 2,4 C 87 % 1002,5 hPa 0,0 l/m 10,7 km/h (2 Bft) NO 55 0 min 0,000 mm 0,0 UV-I 0 W/m 0,5 C -1,3 C 16,1 km/h (3 Bft) 100,00 %
_ Min-Zeit 23:54 11:10 22:40 - 11:14 - - - - - - 11:14 00:44 11:10 07:16
Minimum _ 2,4 C 54 % 1001,9 hPa - 0,4 km/h (0 Bft) - - - - - - -1,2 C -5,1 C 1,6 km/h (1 Bft) 87,23 %
_ Max-Zeit 11:12 00:00 08:20 00:00 00:44 - - 09:49 12:02 12:50 12:52 00:32 11:12 00:44 00:00
Maximum _ 7,7 C 96 % 1007,3 hPa 0,0 l/m 24,7 km/h
W-SW (4 Bft)
- - 3 min 0,229 mm 1,4 UV-I 550 W/m 3,1 C 7,7 C 32,2 km/h
SW (5 Bft)
100,00 %
Durchschnitt _ 4,6 C 74 % 1004,7 hPa #0,0 l/m 8,6 km/h (2 Bft) NO - #6:58 h #1,600 mm 0,9 UV-I 234 W/m 0,2 C 2,5 C 13,0 km/h (3 Bft) 98,06 %